[[{"header":{"parameterUnit":"m.s-1","parameterCategory":1,"la1":30.6,"la2":28.766,"lo1":-90.7593,"lo2":-88.6598,"dy":0.0162,"dx":0.0183,"nx":116,"ny":114,"refTime":"2023-09-22T18:00:00:Z","depth":0,"parameterNumber":2,"parameterNumberName":"U-component_of_WINDS"},"data":[0.0,0.0,0.0,0.0,0.0,0.0,0.0,0.0,0.0,0.0,0.0,0.0,0.0,0.0,0.0,0.0,0.0,0.0,0.0,0.0,0.0,0.0,0.0,0.0,0.0,0.0,0.0,0.0,0.0,0.0,0.0,0.0,0.0,0.0,0.0,0.0,0.0,0.0,0.0,0.0,0.0,0.0,0.0,0.0,0.0,0.0,0.0,0.0,0.0,0.0,0.0,0.0,0.0,0.0,0.0,0.0,0.0,0.0,0.0,0.0,0.0,0.0,0.0,0.0,0.0,0.0,0.0,0.0,0.0,0.0,0.0,0.0,0.0,0.0,0.0,0.0,0.0,0.0,0.0,0.0,0.0,0.0,0.0,0.0,0.0,0.0,0.0,0.0,0.0,0.0,0.0,0.0,0.0,0.0,0.0,0.0,0.0,0.0,0.0,0.0,0.0,0.0,0.0,0.0,0.0,0.0,0.0,0.0,0.0,0.0,0.0,0.0,0.0,0.0,0.0,0.0,0.0,0.0,0.0,0.0,0.0,0.0,0.0,0.0,0.0,0.0,0.0,0.0,0.0,0.0,0.0,0.0,0.0,0.0,0.0,0.0,0.0,0.0,0.0,0.0,0.0,0.0,0.0,0.0,0.0,0.0,0.0,0.0,0.0,0.0,0.0,0.0,0.0,0.0,0.0,0.0,0.0,0.0,0.0,0.0,0.0,0.0,0.0,0.0,0.0,0.0,0.0,0.0,0.0,0.0,0.0,0.0,0.0,0.0,0.0,0.0,0.0,0.0,0.0,0.0,0.0,0.0,0.0,0.0,0.0,0.0,0.0,0.0,0.0,0.0,0.0,0.0,0.0,0.0,0.0,0.0,0.0,0.0,0.0,0.0,0.0,0.0,0.0,0.0,0.0,0.0,0.0,0.0,0.0,0.0,0.0,0.0,0.0,0.0,0.0,0.0,0.0,0.0,0.0,0.0,0.0,0.0,0.0,0.0,0.0,0.0,0.0,0.0,0.0,0.0,0.0,0.0,0.0,0.0,0.0,0.0,0.0,0.0,0.0,0.0,0.0,0.0,0.0,0.0,0.0,0.0,0.0,0.0,0.0,0.0,0.0,0.0,0.0,0.0,0.0,0.0,0.0,0.0,0.0,0.0,0.0,0.0,0.0,0.0,0.0,0.0,0.0,0.0,0.0,0.0,0.0,0.0,0.0,0.0,0.0,0.0,0.0,0.0,0.0,0.0,0.0,0.0,0.0,0.0,0.0,0.0,0.0,0.0,0.0,0.0,0.0,0.0,0.0,0.0,0.0,0.0,0.0,0.0,0.0,0.0,0.0,0.0,0.0,0.0,0.0,0.0,0.0,0.0,0.0,0.0,0.0,0.0,0.0,0.0,0.0,0.0,0.0,0.0,0.0,0.0,0.0,0.0,0.0,0.0,0.0,0.0,0.0,0.0,0.0,0.0,0.0,0.0,0.0,0.0,0.0,0.0,0.0,0.0,0.0,0.0,0.0,0.0,0.0,0.0,0.0,0.0,0.0,0.0,0.0,0.0,0.0,0.0,0.0,0.0,0.0,0.0,0.0,0.0,0.0,0.0,0.0,0.0,0.0,0.0,0.0,0.0,0.0,0.0,0.0,0.0,0.0,0.0,0.0,0.0,0.0,0.0,0.0,0.0,0.0,0.0,0.0,0.0,0.0,0.0,0.0,0.0,0.0,0.0,0.0,0.0,0.0,0.0,0.0,0.0,0.0,0.0,0.0,0.0,0.0,0.0,0.0,0.0,0.0,0.0,0.0,0.0,0.0,0.0,0.0,0.0,0.0,0.0,0.0,0.0,0.0,0.0,0.0,0.0,0.0,0.0,0.0,0.0,0.0,0.0,0.0,0.0,0.0,0.0,0.0,0.0,0.0,0.0,0.0,0.0,0.0,0.0,0.0,0.0,0.0,0.0,0.0,0.0,0.0,0.0,0.0,0.0,0.0,0.0,0.0,0.0,0.0,0.0,0.0,0.0,0.0,0.0,0.0,0.0,0.0,0.0,0.0,0.0,0.0,0.0,0.0,0.0,0.0,0.0,0.0,0.0,0.0,0.0,0.0,0.0,0.0,0.0,0.0,0.0,0.0,0.0,0.0,0.0,0.0,0.0,0.0,0.0,0.0,0.0,0.0,0.0,0.0,0.0,0.0,0.0,0.0,0.0,0.0,0.0,0.0,0.0,0.0,0.0,0.0,0.0,0.0,0.0,0.0,0.0,0.0,0.0,0.0,0.0,0.0,0.0,0.0,0.0,0.0,0.0,0.0,0.0,0.0,0.0,0.0,0.0,0.0,0.0,0.0,0.0,0.0,0.0,0.0,0.0,0.0,0.0,0.0,0.0,0.0,0.0,0.0,0.0,0.0,0.0,0.0,0.0,0.0,0.0,0.0,0.0,0.0,0.0,0.0,0.0,0.0,0.0,0.0,0.0,0.0,0.0,0.0,0.0,0.0,0.0,0.0,0.0,0.0,0.0,0.0,0.0,0.0,0.0,0.0,0.0,0.0,0.0,0.0,0.0,0.0,0.0,0.0,0.0,0.0,0.0,0.0,0.0,0.0,0.0,0.0,0.0,0.0,0.0,0.0,0.0,0.0,0.0,0.0,0.0,0.0,0.0,0.0,0.0,0.0,0.0,0.0,0.0,0.0,0.0,0.0,0.0,0.0,0.0,0.0,0.0,0.0,0.0,0.0,0.0,0.0,0.0,0.0,0.0,0.0,0.0,0.0,0.0,0.0,0.0,0.0,0.0,0.0,0.0,0.0,0.0,0.0,0.0,0.0,0.0,0.0,0.0,0.0,0.0,0.0,0.0,0.0,0.0,0.0,0.0,0.0,0.0,0.0,0.0,0.0,0.0,0.0,0.0,0.0,0.0,0.0,0.0,0.0,0.0,0.0,0.0,0.0,0.0,0.0,0.0,0.0,0.0,0.0,0.0,0.0,0.0,0.0,0.0,0.0,0.0,0.0,0.0,0.0,0.0,0.0,0.0,0.0,0.0,0.0,0.0,0.0,0.0,0.0,0.0,0.0,0.0,0.0,0.0,0.0,0.0,0.0,0.0,0.0,0.0,0.0,0.0,0.0,0.0,0.0,0.0,0.0,0.0,0.0,0.0,0.0,0.0,0.0,0.0,0.0,0.0,0.0,0.0,0.0,0.0,0.0,0.0,0.0,0.0,0.0,0.0,0.0,0.0,0.0,0.0,0.0,0.0,0.0,0.0,0.0,0.0,0.0,0.0,0.0,0.0,0.0,0.0,0.0,0.0,0.0,0.0,0.0,0.0,0.0,0.0,0.0,0.0,0.0,0.0,0.0,0.0,0.0,0.0,0.0,0.0,0.0,0.0,0.0,0.0,0.0,0.0,0.0,0.0,0.0,0.0,0.0,0.0,0.0,0.0,0.0,0.0,0.0,0.0,0.0,0.0,0.0,0.0,0.0,0.0,0.0,0.0,0.0,0.0,0.0,0.0,0.0,0.0,0.0,0.0,0.0,0.0,0.0,0.0,0.0,0.0,0.0,0.0,0.0,0.0,0.0,0.0,0.0,0.0,0.0,0.0,0.0,0.0,0.0,0.0,0.0,0.0,0.0,0.0,0.0,0.0,0.0,0.0,0.0,0.0,0.0,0.0,0.0,0.0,0.0,0.0,0.0,0.0,0.0,0.0,0.0,0.0,0.0,0.0,0.0,0.0,0.0,0.0,0.0,0.0,0.0,0.0,0.0,0.0,0.0,0.0,0.0,0.0,0.0,0.0,0.0,0.0,0.0,0.0,0.0,0.0,0.0,0.0,0.0,0.0,0.0,0.0,0.0,0.0,0.0,0.0,0.0,0.0,0.0,0.0,0.0,0.0,0.0,0.0,0.0,0.0,0.0,0.0,0.0,0.0,0.0,0.0,0.0,0.0,0.0,0.0,0.0,0.0,0.0,0.0,0.0,0.0,0.0,0.0,0.0,0.0,0.0,0.0,0.0,0.0,0.0,0.0,0.0,0.0,0.0,0.0,0.0,0.0,0.0,0.0,0.0,0.0,0.0,0.0,0.0,0.0,0.0,0.0,0.0,0.0,0.0,0.0,0.0,0.0,0.0,0.0,0.0,0.0,0.0,0.0,0.0,0.0,0.0,0.0,0.0,0.0,0.0,0.0,0.0,0.0,0.0,0.0,0.0,0.0,0.0,0.0,0.0,0.0,0.0,0.0,0.0,0.0,0.0,0.0,0.0,0.0,0.0,0.0,0.0,0.0,0.0,0.0,0.0,0.0,0.0,0.0,0.0,0.0,0.0,0.0,0.0,0.0,0.0,0.0,0.0,0.0,0.0,0.0,0.0,0.0,0.0,0.0,0.0,0.0,0.0,0.0,0.0,0.0,0.0,0.0,0.0,0.0,0.0,0.0,0.0,0.0,0.0,0.0,0.0,0.0,0.0,0.0,0.0,0.0,0.0,0.0,0.0,0.0,0.0,0.0,0.0,0.0,0.0,0.0,0.0,0.0,0.0,0.0,0.0,0.0,0.0,0.0,0.0,0.0,0.0,0.0,0.0,0.0,0.0,0.0,0.0,0.0,0.0,0.0,0.0,0.0,0.0,0.0,0.0,0.0,0.0,0.0,0.0,0.0,0.0,0.0,0.0,0.0,0.0,0.0,0.0,0.0,0.0,0.0,0.0,0.0,0.0,0.0,0.0,0.0,0.0,0.0,0.0,0.0,0.0,0.0,0.0,0.0,0.0,0.0,0.0,0.0,0.0,0.0,0.0,0.0,0.0,0.0,0.0,0.0,0.0,0.0,0.0,0.0,0.0,0.0,0.0,0.0,0.0,0.0,0.0,0.0,0.0,0.0,0.0,0.0,0.0,0.0,0.0,0.0,0.0,0.0,0.0,0.0,0.0,0.0,0.0,0.0,0.0,0.0,0.0,0.0,0.0,0.0,0.0,0.0,0.0,0.0,0.0,0.0,0.0,0.0,0.0,0.0,0.0,0.0,0.0,0.0,0.0,0.0,0.0,0.0,0.0,0.0,0.0,0.0,0.0,0.0,0.0,0.0,0.0,0.0,0.0,0.0,0.0,0.0,0.0,0.0,0.0,0.0,0.0,0.0,0.0,0.0,0.0,0.0,0.0,0.0,0.0,0.0,0.0,0.0,0.0,0.0,0.0,0.0,0.0,0.0,0.0,0.0,0.0,0.0,0.0,0.0,0.0,0.0,0.0,0.0,0.0,0.0,0.0,0.0,0.0,0.0,0.0,0.0,0.0,0.0,0.0,0.0,0.0,0.0,0.0,0.0,0.0,0.0,0.0,0.0,0.0,0.0,0.0,0.0,0.0,0.0,0.0,0.0,0.0,0.0,0.0,0.0,0.0,0.0,0.0,0.0,0.0,0.0,0.0,0.0,0.0,0.0,0.0,0.0,0.0,0.0,0.0,0.0,0.0,0.0,0.0,0.0,0.0,0.0,0.0,0.0,0.0,0.0,0.0,0.0,0.0,0.0,0.0,0.0,0.0,0.0,0.0,0.0,0.0,0.0,0.0,0.0,0.0,0.0,0.0,0.0,0.0,0.0,0.0,0.0,0.0,0.0,0.0,0.0,0.0,0.0,0.0,0.0,0.0,0.0,0.0,0.0,0.0,0.0,0.0,0.0,0.0,0.0,0.0,0.0,0.0,0.0,0.0,0.0,0.0,0.0,0.0,0.0,0.0,0.0,0.0,0.0,0.0,0.0,0.0,0.0,0.0,0.0,0.0,0.0,0.0,0.0,0.0,0.0,0.0,0.0,0.0,0.0,0.0,0.0,0.0,0.0,0.0,0.0,0.0,0.0,0.0,0.0,0.0,0.0,0.0,0.0,0.0,0.0,0.0,0.0,0.0,0.0,0.0,0.0,0.0,0.0,0.0,0.0,0.0,0.0,0.0,0.0,0.0,0.0,0.0,0.0,0.0,0.0,0.0,0.0,0.0,0.0,0.0,0.0,0.0,0.0,0.0,0.0,0.0,0.0,0.0,0.0,0.0,0.0,0.0,0.0,0.0,0.0,0.0,0.0,0.0,0.0,0.0,0.0,0.0,0.0,0.0,0.0,0.0,0.0,0.0,0.0,-0.6746,-0.3532,0.0,0.0,0.0,0.0,0.0,0.0,0.0,0.0,0.0,0.0,0.0,0.0,0.0,0.0,0.0,0.0,0.0,0.0,0.0,0.0,0.0,0.0,0.0,0.0,0.0,0.0,0.0,0.0,0.0,0.0,0.0,0.0,0.0,0.0,0.0,0.0,0.0,0.0,-0.4191,-0.6423,-0.9777,-0.8313,-0.7325,-0.6672,0.0,0.0,0.0,0.0,0.0,0.0,0.0,0.0,0.0,0.0,0.0,0.0,0.0,0.0,0.0,0.0,0.0,0.0,0.0,0.0,0.0,0.0,0.0,0.0,0.0,0.0,0.0,0.0,0.0,0.0,0.0,0.0,0.0,0.0,0.0,0.0,0.0,0.0,0.0,0.0,0.0,0.0,0.0,0.0,0.0,0.0,0.0,0.0,0.0,0.0,0.0,0.0,0.0,0.0,0.0,0.0,0.0,0.0,0.0,0.0,0.0,0.0,0.0,0.0,0.0,0.0,0.0,0.0,0.0,0.0,-0.8215,-0.6118,0.0,0.0,0.0,0.0,0.0,0.0,0.0,0.0,0.0,0.0,0.0,0.0,0.0,0.0,0.0,0.0,0.0,0.0,0.0,0.0,0.0,0.0,0.0,-0.4253,-0.4243,-0.4252,-0.4192,-0.4131,0.0,0.0,0.0,0.0,0.0,0.0,0.0,-0.3237,-0.3485,-0.4186,-0.6208,-0.8913,-1.2187,-1.2844,-1.2675,-1.1594,-0.7013,0.0,0.0,0.0,0.0,0.0,0.0,0.0,0.0,0.0,0.0,0.0,0.0,0.0,0.0,0.0,0.0,0.0,0.0,0.0,0.0,0.0,0.0,0.0,0.0,0.0,0.0,0.0,0.0,0.0,0.0,0.0,0.0,0.0,0.0,0.0,0.0,0.0,0.0,0.0,0.0,0.0,0.0,0.0,0.0,0.0,0.0,0.0,0.0,0.0,0.0,0.0,0.0,0.0,0.0,0.0,0.0,0.0,0.0,0.0,0.0,0.0,0.0,0.0,-1.0454,-1.0318,-1.0756,-1.0908,-1.1748,-1.2936,-0.998,-0.9354,-1.0117,-0.685,0.0,0.0,0.0,0.0,0.0,0.0,0.0,0.0,0.0,0.0,0.0,0.0,0.0,0.0,0.0,0.0,0.0,0.0,0.0,0.0,0.0,-0.4048,-0.4048,-0.4039,-0.3984,-0.3991,-0.4096,0.0,0.0,0.0,0.0,0.0,-0.3903,-0.404,-0.4773,-0.6125,-1.1143,-1.4997,-1.7661,-1.7636,-1.8415,-1.9531,-1.4023,-1.2793,-1.4551,0.0,0.0,0.0,0.0,0.0,0.0,0.0,0.0,0.0,0.0,0.0,0.0,0.0,0.0,0.0,0.0,0.0,0.0,0.0,0.0,0.0,0.0,0.0,0.0,0.0,0.0,0.0,0.0,0.0,0.0,0.0,0.0,0.0,0.0,0.0,0.0,0.0,0.0,0.0,0.0,0.0,-0.6522,-0.6473,0.0,0.0,0.0,0.0,0.0,0.0,0.0,0.0,0.0,0.0,0.0,0.0,0.0,-0.9994,-0.8476,-1.0182,-1.161,-1.2811,-1.4965,-1.5537,-1.469,-1.507,-1.5215,-1.4992,-1.4535,0.0,-1.0984,-1.0146,0.0,0.0,0.0,0.0,0.0,0.0,0.0,0.0,0.0,0.0,0.0,0.0,0.0,0.0,0.0,0.0,0.0,0.0,0.0,0.0,0.0,-0.61,-0.7128,-0.7104,-0.9499,-1.0073,-0.779,-0.7279,0.0,0.0,0.0,-0.4325,-0.4394,-0.5481,-0.7912,-1.1731,-1.5748,-1.9084,-2.177,-2.2817,-2.4193,-2.5546,-2.2686,-1.9777,-1.6797,-1.3709,0.0,0.0,0.0,0.0,0.0,0.0,0.0,0.0,0.0,0.0,0.0,0.0,0.0,0.0,0.0,0.0,0.0,0.0,0.0,0.0,0.0,0.0,0.0,0.0,0.0,0.0,0.0,0.0,0.0,0.0,0.0,0.0,0.0,0.0,0.0,0.0,0.0,0.0,0.0,-0.5552,-0.5759,-0.5938,-0.5401,-0.4697,0.0,0.0,0.0,0.0,0.0,0.0,0.0,0.0,0.0,-1.0162,-1.2327,-1.3373,-1.3167,-1.4317,-1.5187,-1.5863,-1.6811,-1.7139,-1.6875,-1.707,-1.7051,-1.6865,-1.6621,-1.5673,-1.4099,-1.1865,-0.9766,-0.779,0.0,0.0,0.0,0.0,-0.4721,-0.525,0.0,0.0,0.0,0.0,0.0,0.0,0.0,0.0,0.0,0.0,0.0,0.0,-0.6197,-0.8634,-1.0368,-1.0692,-1.3758,-1.4194,-1.0688,-0.9796,-0.8205,0.0,-0.5208,-0.5139,-0.5155,-0.7734,-1.171,-1.7112,-1.9769,-2.2468,-2.5316,-2.6984,-2.8394,-2.952,-2.9614,-2.6373,-2.0764,-1.8042,-1.5241,-1.2394,0.0,0.0,0.0,0.0,0.0,0.0,0.0,0.0,0.0,0.0,0.0,0.0,0.0,0.0,0.0,0.0,0.0,0.0,0.0,0.0,0.0,0.0,0.0,0.0,0.0,0.0,0.0,0.0,0.0,0.0,0.0,0.0,0.0,0.0,0.0,0.0,0.0,-0.6293,-0.6756,-0.6062,-0.6858,-0.6671,0.0,0.0,0.0,0.0,0.0,0.0,-1.0183,-1.0997,-1.2153,-1.3789,-1.5289,-1.6391,-1.7185,-1.786,-1.8301,-1.8496,-1.8291,-1.8252,-1.834,-1.8447,-1.8437,-1.832,-1.8008,-1.775,-1.7248,-1.3879,-1.1853,-1.0819,-0.9132,-0.8059,-0.7375,-0.7101,-0.7236,-0.8008,0.0,0.0,0.0,0.0,0.0,0.0,0.0,0.0,0.0,0.0,0.0,-0.8361,-0.9445,-1.1009,-1.2544,-1.3938,-1.3536,-1.2441,-1.0696,-0.9552,-0.8247,-0.6681,-0.6609,-0.654,-0.6408,-1.118,-1.5938,-2.0654,-2.282,-2.5435,-2.8368,-2.9201,-2.9947,-3.0794,-3.2813,-3.2514,-3.0036,-2.3091,-2.036,-1.9985,-1.2532,0.0,0.0,0.0,0.0,0.0,0.0,0.0,0.0,0.0,0.0,0.0,0.0,0.0,0.0,0.0,0.0,0.0,0.0,0.0,0.0,0.0,0.0,0.0,0.0,0.0,0.0,0.0,0.0,0.0,0.0,0.0,0.0,0.0,0.0,0.0,0.0,0.0,0.0,-0.821,-1.0755,0.0,0.0,0.0,0.0,-1.0127,-1.0757,-1.2162,-1.4573,-1.4686,-1.5495,-1.7404,-1.8481,-1.9014,-1.8872,-1.9889,-2.0205,-1.9824,-2.0225,-1.999,-1.9238,-1.9639,-1.96,-1.9219,-1.9199,-1.9353,-1.9468,-1.6904,-1.4336,-1.2052,-1.2396,-1.1123,-0.9364,-1.1567,-1.1705,-1.1048,0.0,0.0,0.0,0.0,0.0,0.0,0.0,0.0,-0.4874,-0.461,-0.7128,-0.9277,-1.0156,-1.3584,-1.6281,-1.7434,-1.8532,-1.81,-1.5521,-1.3811,-1.1802,-0.9376,-0.8039,-0.8526,-1.1086,-1.5272,-1.9407,-2.3535,-2.6186,-2.8723,-3.1067,-3.1911,-3.2852,-3.394,-3.4032,-3.3942,-3.3448,-2.896,-2.5378,-2.2277,-1.7505,-1.3145,0.0,0.0,0.0,0.0,0.0,0.0,0.0,0.0,0.0,0.0,0.0,0.0,0.0,0.0,0.0,0.0,0.0,0.0,0.0,0.0,0.0,0.0,0.0,0.0,0.0,0.0,0.0,0.0,0.0,0.0,0.0,0.0,0.0,0.0,0.0,0.0,0.0,-1.1809,-1.3683,0.0,-1.2757,-1.2665,-1.3192,-1.4344,-1.5148,-1.6263,-1.7697,-1.8288,-1.9,-1.9889,-2.0996,-2.1516,-2.1255,-2.183,-2.1912,-2.1582,-2.1182,-2.084,-2.0537,-2.0918,-2.0607,-1.9687,-2.0259,-2.0081,-1.9423,-1.9059,-1.7721,-1.576,-1.484,-1.3923,-1.3294,-1.4185,-1.4213,-1.3876,0.0,0.0,0.0,0.0,0.0,0.0,0.0,0.0,-0.5106,-0.5613,-0.8766,-1.1454,-1.2726,-1.6789,-1.9844,-2.0961,-2.1947,-2.1209,-1.8197,-1.6215,-1.3838,-1.0844,-0.9894,-1.1391,-1.5542,-1.8912,-2.245,-2.6229,-2.9042,-3.1213,-3.2752,-3.3573,-3.4434,-3.5285,-3.4836,-3.4888,-3.5169,-3.3357,-2.9995,-2.5424,-2.1524,-1.7749,-1.406,0.0,0.0,0.0,0.0,0.0,0.0,0.0,0.0,0.0,0.0,0.0,0.0,0.0,0.0,0.0,0.0,0.0,0.0,0.0,0.0,0.0,0.0,0.0,0.0,0.0,0.0,0.0,0.0,0.0,0.0,0.0,0.0,0.0,0.0,-1.3105,-1.5549,-1.4222,-1.6797,-1.798,-1.6184,-1.6424,-1.7219,-1.8387,-1.8705,-1.9316,-2.0322,-2.0781,-2.1211,-2.165,-2.2384,-2.2621,-2.2305,-2.2557,-2.2478,-2.208,-2.1504,-2.1312,-2.1382,-2.1681,-2.1525,-2.1012,-2.1523,-2.1418,-2.0918,-2.105,-2.0604,-1.9587,-1.7636,-1.6677,-1.6377,-1.6292,-1.6314,-1.6337,0.0,0.0,0.0,0.0,0.0,0.0,0.0,-0.5159,-0.577,-0.7882,-1.1556,-1.4875,-1.7213,-2.0411,-2.2972,-2.4374,-2.3134,-2.1083,-1.8266,-1.6295,-1.3902,-1.0916,-1.2281,-1.5087,-1.9401,-2.1988,-2.5072,-2.8748,-3.1197,-3.2752,-3.346,-3.4168,-3.4522,-3.4657,-3.5378,-3.5732,-3.5763,-3.6072,-3.3933,-2.9919,-2.4417,-2.2235,-2.1555,0.0,0.0,0.0,0.0,0.0,0.0,0.0,0.0,0.0,0.0,0.0,0.0,0.0,0.0,0.0,0.0,0.0,0.0,0.0,0.0,0.0,0.0,0.0,0.0,0.0,0.0,0.0,0.0,0.0,0.0,0.0,0.0,0.0,-1.2538,-1.6284,-1.8274,-1.5587,-2.0312,-2.2361,-1.8843,-2.025,-2.1554,-2.2004,-2.1215,-2.1262,-2.2461,-2.2232,-2.2109,-2.2519,-2.2529,-2.2334,-2.1934,-2.2152,-2.1935,-2.1269,-2.1481,-2.1617,-2.1787,-2.1842,-2.2285,-2.2957,-2.3032,-2.3463,-2.4002,-2.2806,-2.282,-2.3282,-2.0754,-1.9256,-1.8475,-1.8188,-1.8181,-1.8353,0.0,0.0,0.0,0.0,0.0,0.0,0.0,-0.4855,-0.5865,-0.7217,-1.1082,-1.4522,-1.6697,-2.0172,-2.2879,-2.4236,-2.2793,-2.128,-2.0028,-1.6438,-1.3817,-1.2628,-1.5683,-1.8631,-2.1238,-2.4268,-2.6984,-2.944,-3.1427,-3.3013,-3.4198,-3.4876,-3.5722,-3.663,-3.6117,-3.644,-3.7296,-3.6095,-3.5508,-3.4789,-2.9471,-2.6125,-2.3871,0.0,0.0,0.0,0.0,0.0,0.0,0.0,0.0,0.0,0.0,0.0,0.0,0.0,0.0,0.0,0.0,0.0,0.0,0.0,0.0,0.0,0.0,0.0,0.0,0.0,0.0,0.0,0.0,0.0,0.0,0.0,-1.5443,-1.8262,-1.7352,-2.0264,-2.2667,-2.2994,-2.4246,-2.5013,-2.4531,-2.394,-2.4084,-2.5128,-2.4371,-2.3966,-2.3941,-2.3859,-2.3519,-2.2959,-2.3142,-2.3179,-2.3061,-2.2839,-2.2705,-2.2659,-2.2451,-2.2152,-2.1873,-2.3099,-2.318,-2.2392,-2.3401,-2.361,-2.3305,-2.3525,-2.3553,-2.3223,-2.1325,-2.0452,-2.0137,-1.9724,-1.9137,-1.8534,0.0,0.0,0.0,0.0,0.0,0.0,0.0,-0.561,-0.6784,-0.8251,-1.1753,-1.4996,-1.7327,-2.0401,-2.2648,-2.3434,-2.178,-2.0137,-1.8785,-1.5816,-1.4658,-1.5991,-1.8993,-2.1691,-2.3955,-2.6829,-2.8981,-3.0426,-3.2348,-3.3521,-3.4044,-3.5029,-3.5968,-3.6739,-3.6117,-3.6487,-3.7621,-3.6578,-3.6432,-3.655,-3.3154,-3.0624,-2.8359,-2.3435,-2.0976,-1.9761,-1.7474,-1.6132,-1.5176,-1.3361,0.0,0.0,0.0,0.0,0.0,0.0,0.0,0.0,0.0,0.0,0.0,0.0,0.0,0.0,0.0,0.0,0.0,0.0,0.0,0.0,0.0,0.0,0.0,0.0,-1.9629,-2.2224,-2.2674,-2.4106,-2.5516,-2.6647,-2.6854,-2.703,-2.7519,-2.638,-2.5938,-2.6645,-2.5878,-2.5153,-2.4638,-2.4556,-2.4039,-2.313,-2.3312,-2.3318,-2.3138,-2.3083,-2.3186,-2.3454,-2.3278,-2.3232,-2.3349,-2.4056,-2.4059,-2.3632,-2.4276,-2.4348,-2.3986,-2.442,-2.4472,-2.4038,0.0,0.0,0.0,0.0,-2.0006,-1.9315,0.0,0.0,0.0,0.0,0.0,0.0,0.0,-0.6603,-0.7755,-0.9848,-1.2689,-1.5538,-1.8221,-2.0625,-2.2053,-2.2183,-2.0455,-1.8406,-1.6096,-1.5165,-1.6291,-1.9839,-2.2006,-2.4353,-2.7028,-2.9353,-3.0843,-3.149,-3.349,-3.4106,-3.3429,-3.4906,-3.5704,-3.5809,-3.5825,-3.6378,-3.7304,-3.7285,-3.6967,-3.6474,-3.5654,-3.4848,-3.3508,-2.7777,-2.5482,-2.4968,-2.2343,-1.9866,-1.7935,-1.8553,0.0,0.0,0.0,0.0,0.0,0.0,0.0,0.0,0.0,0.0,0.0,0.0,0.0,0.0,0.0,0.0,0.0,0.0,0.0,0.0,0.0,0.0,0.0,0.0,-2.4217,-2.6362,-2.7855,-2.7642,-2.7444,-2.7849,-2.8318,-2.8595,-2.8595,-2.7928,-2.7487,-2.7429,-2.6484,-2.5687,-2.5136,-2.4836,0.0,0.0,0.0,-2.3086,-2.2786,-2.3177,-2.3573,-2.3992,-2.3921,-2.4422,-2.5304,-2.4774,-2.4898,-2.5368,-2.5358,-2.5276,-2.5216,-2.5288,-2.524,-2.4977,-2.3407,-2.2428,-2.1874,-2.1296,-2.0768,-2.0361,0.0,0.0,0.0,0.0,0.0,0.0,0.0,-0.5181,-0.6149,-0.8743,-1.1147,-1.3712,-1.654,-1.8905,-2.044,-2.0852,-1.9441,-1.7878,-1.6308,-1.7177,-1.8815,-2.1134,-2.4088,-2.6688,-2.8866,-3.0391,-3.1536,-3.2198,-3.3721,-3.4106,-3.3444,-3.5383,-3.6353,-3.6522,-3.6675,-3.7232,-3.7979,-3.7566,-3.7385,-3.7227,-3.6452,-3.575,-3.482,-3.1838,-3.0453,-2.9864,-2.8323,-2.7277,-2.6337,-2.382,-2.2805,-2.2004,-1.8337,-1.5693,0.0,0.0,0.0,0.0,0.0,0.0,0.0,0.0,0.0,0.0,0.0,0.0,0.0,0.0,0.0,0.0,0.0,0.0,0.0,-2.4797,-2.7902,-3.0147,-3.047,-3.0052,-2.9487,-2.906,-2.9088,-2.9217,-2.9367,-2.9193,-2.9012,-2.8761,-2.8536,-2.8036,-2.7221,-2.6558,-2.5666,-2.4756,-2.4033,-2.3766,-2.3866,-2.3738,-2.3816,-2.4219,-2.4602,0.0,-2.4403,-2.5206,-2.5083,-2.4259,-2.4979,-2.5059,-2.4711,-2.5131,-2.4819,-2.4049,-2.3699,-2.2977,-2.2068,-2.1371,-2.0868,-2.044,0.0,0.0,0.0,0.0,0.0,0.0,0.0,-0.5032,-0.5948,-0.8079,-0.9892,-1.1974,-1.451,-1.6049,-1.7107,-1.7653,-1.6529,-1.6055,-1.6673,-1.8219,-2.0392,-2.3314,-2.6043,-2.8229,-2.9889,-3.0942,-3.179,-3.2398,-3.3558,-3.3712,-3.3064,-3.5192,-3.6086,-3.5985,-3.6732,-3.7414,-3.7834,-3.7622,-3.748,-3.7449,-3.7085,-3.6738,-3.6253,-3.445,-3.313,-3.2266,-3.1912,-3.0546,-2.8755,-2.7458,-2.725,-2.6803,-2.2918,-2.011,-1.746,0.0,0.0,0.0,0.0,0.0,0.0,0.0,0.0,0.0,0.0,0.0,0.0,0.0,0.0,-1.8193,-2.0823,0.0,-2.6015,-2.8937,-3.0655,-3.1653,-3.1559,-3.0803,-3.0146,-2.9756,-2.9213,-2.9072,-2.9569,-2.9351,-2.9175,-2.9077,-2.9197,-2.8748,-2.7593,-2.7497,-2.6943,-2.5694,-2.5532,-2.5505,-2.5673,-2.5418,-2.5506,-2.598,-2.5841,-2.5727,-2.5744,-2.5868,-2.553,-2.4927,-2.5192,-2.5155,-2.4939,-2.5274,-2.478,-2.3839,-2.3893,-2.3176,-2.2185,-2.1851,-2.1308,-2.0656,0.0,0.0,0.0,0.0,0.0,0.0,0.0,-0.5012,-0.5944,-0.755,-0.8818,-1.0422,-1.2617,-1.3344,-1.3883,-1.4356,-1.3846,-1.4583,-1.7146,-1.8971,-2.163,-2.5364,-2.7504,-2.9175,-3.0433,-3.1232,-3.1897,-3.2523,-3.3454,-3.3572,-3.2881,-3.5101,-3.5841,-3.542,-3.6644,-3.7329,-3.748,-3.748,-3.748,-3.748,-3.748,-3.748,-3.7338,-3.6074,-3.4789,-3.3743,-3.4476,-3.2501,-2.9622,-2.9962,-3.0176,-2.9798,-2.6803,-2.4141,-2.1228,-1.6723,-1.4592,0.0,0.0,0.0,0.0,0.0,0.0,0.0,0.0,-1.4025,-1.4983,-1.8318,-2.0344,-2.2554,-2.6086,-2.7522,-2.9326,-3.2879,-3.3052,-3.2647,-3.2326,-3.1323,-3.0498,-3.0238,-2.9394,-2.9012,-2.9569,-2.9382,-2.9193,-2.9234,-2.9365,-2.8999,-2.7861,-2.8234,-2.7941,-2.6792,-2.6841,-2.692,-2.692,-2.6765,-2.6848,-2.7244,-2.6763,-2.676,-2.7105,-2.6387,-2.5894,-2.5689,-2.5257,-2.5141,-2.5296,-2.5448,-2.482,-2.3815,-2.3904,-2.322,-2.2247,-2.2359,-2.1812,-2.1019,0.0,0.0,0.0,0.0,0.0,0.0,0.0,0.0,-0.4937,-0.7,-0.7971,-0.9264,-1.1364,-1.2191,-1.2571,-1.26,-1.3573,-1.533,-1.7993,-2.0046,-2.2748,-2.6218,-2.7705,-2.9175,-3.0725,-3.1321,-3.202,-3.2843,-3.4104,-3.4441,-3.3817,-3.5907,-3.656,-3.6137,-3.6849,-3.7329,-3.748,-3.748,-3.748,-3.748,-3.748,-3.748,-3.7385,-3.6611,-3.5812,-3.5313,-3.6616,-3.5275,-3.2568,-3.0984,-3.0448,-3.0164,-2.8381,-2.674,-2.4265,-1.8223,-1.5433,-1.3164,-0.7906,-0.8353,-1.121,-1.4928,-1.5444,-1.6888,0.0,-2.4169,-2.3721,-2.7328,-2.9038,-3.0375,-3.1906,-3.2719,-3.359,-3.5102,-3.5372,-3.4862,-3.3736,-3.2626,-3.1474,-3.0368,-3.0053,-2.9915,-2.9898,-3.0229,-3.0257,-2.9777,-2.9714,-2.9677,-2.9537,-2.8846,-2.8426,-2.8287,-2.7011,-2.6405,-2.6405,-2.6182,-2.6152,-2.62,-2.6416,-2.6559,-2.6622,-2.649,-2.5965,-2.5049,-2.4607,-2.4676,-2.5117,-2.5117,-2.4695,-2.3964,-2.3695,-2.3081,-2.2359,-2.242,-2.2116,-2.1707,0.0,0.0,0.0,0.0,0.0,0.0,0.0,0.0,0.0,-0.6401,-0.6859,-0.7643,-0.9297,-0.9939,-1.0208,-1.0091,-1.2127,-1.4584,-1.7245,-2.0141,-2.3146,-2.6253,-2.8376,-3.0002,-3.1144,-3.2238,-3.2926,-3.3282,-3.4387,-3.4573,-3.4062,-3.5828,-3.6531,-3.6337,-3.7089,-3.7405,-3.748,-3.748,-3.748,-3.748,-3.748,-3.7227,-3.6738,-3.5616,-3.4349,-3.3495,-3.5269,-3.4241,0.0,-2.8379,-2.6735,-2.6103,-2.623,-2.4949,-2.2518,-1.81,-1.5795,-1.4394,-1.3303,-1.3842,-1.5376,-1.8274,-1.9995,-2.1901,-2.5382,-2.5858,-2.6701,-3.0336,-3.2006,-3.3091,-3.3932,-3.4285,-3.4733,-3.5574,-3.5425,-3.4874,-3.3885,-3.2566,-3.1134,-2.9895,-2.9218,-2.9047,-2.9383,-2.9389,-2.9448,-2.9804,-2.9792,-2.9792,-2.9792,-2.9456,-2.9061,-2.8728,-2.8098,-2.7666,-2.7363,-2.692,-2.6769,-2.6756,-2.6577,-2.6533,-2.6452,-2.599,-2.5356,-2.455,-2.4337,-2.4398,-2.4607,-2.4686,-2.4378,-2.3732,-2.3638,-2.3207,-2.2665,-2.2665,-2.2381,-2.2005,0.0,0.0,0.0,0.0,0.0,0.0,0.0,0.0,0.0,0.0,-0.6027,-0.661,-0.7928,-0.8334,-0.8504,-0.8482,-1.0693,-1.3268,-1.6038,-1.9327,-2.254,-2.5617,-2.822,-3.0158,-3.1388,-3.2436,-3.3285,-3.3953,-3.4538,-3.4703,-3.4413,-3.5705,-3.6235,-3.6169,-3.7038,-3.7456,-3.7472,-3.7663,-3.7674,-3.7598,-3.7456,-3.6746,-3.5602,-3.4069,-3.2012,-3.037,-3.3266,-3.1338,-2.6681,-2.1929,-2.0441,-2.0895,-2.2577,-2.1936,-1.9977,-1.7116,-1.4734,-1.3554,-1.59,-1.7337,-1.8853,-2.1449,-2.4356,-2.6687,-2.7171,-2.8011,-2.9493,-3.2136,-3.3485,-3.4217,-3.4326,-3.4339,-3.4489,-3.4909,-3.4624,-3.4214,-3.3819,-3.2228,-3.0765,-2.9824,-2.8455,-2.7934,-2.8639,-2.8691,-2.8895,-2.9528,-2.9704,-2.9854,-3.0018,-2.988,-2.9603,-2.9176,-2.8863,-2.8436,-2.7883,-2.7331,-2.7055,-2.7055,-2.6722,-2.6533,-2.644,-2.569,-2.4959,-2.4245,-2.4357,-2.4307,-2.4184,-2.4313,-2.4025,-2.3527,-2.3555,-2.3257,-2.2909,-2.2969,-2.272,-2.2346,0.0,0.0,0.0,0.0,0.0,0.0,0.0,0.0,0.0,0.0,0.0,0.0,0.0,-0.8014,-0.8124,-0.8393,-0.9557,-1.1556,-1.4588,-1.7487,-2.0669,-2.4204,-2.6617,-2.8993,-3.145,-3.1396,-3.2496,-3.4769,-3.4738,-3.4808,-3.5069,-3.5796,-3.586,-3.5514,-3.6725,-3.7307,-3.7355,-3.8003,-3.815,-3.7939,-3.7438,-3.599,-3.3971,-3.2109,-2.9038,-2.6424,-3.1517,-2.6672,-1.6884,-1.0686,-1.138,-1.5239,-1.7578,-1.8252,-1.7715,-1.5138,-1.1695,-0.9437,-1.2894,-1.6232,-1.9918,-2.471,-2.821,-3.089,-3.2554,-3.3289,-3.3707,-3.3801,-3.4302,-3.4461,-3.3322,-3.3118,-3.3193,-3.322,-3.3132,-3.3284,-3.378,-3.2058,-3.065,-3.0561,-2.8263,-2.7052,-2.7755,-2.8758,-2.922,-2.8913,-2.9478,-3.003,-3.0557,-3.008,-2.9779,-2.9767,-2.8699,-2.7871,-2.7318,-2.6766,-2.6546,-2.6546,-2.6533,-2.6533,-2.6496,-2.5699,-2.4971,-2.4305,-2.4657,-2.4519,-2.4017,-2.4017,-2.3879,-2.3679,-2.3255,-2.303,-2.2909,-2.3078,-2.3065,-2.2977,0.0,0.0,0.0,0.0,0.0,0.0,0.0,0.0,0.0,0.0,0.0,0.0,0.0,0.0,0.0,0.0,-0.9449,-1.1174,-1.3494,-1.6843,-1.9919,-2.2604,-2.6227,-2.8665,-2.9627,-3.0948,-3.185,-3.2261,-3.2763,-3.3134,-3.3399,-3.4072,-3.4561,-3.4915,-3.5904,-3.6317,-3.6366,-3.7072,-3.7061,-3.6422,-3.5218,-3.3713,-3.1867,-2.8482,-2.5673,-2.3339,0.0,-1.9026,-1.565,-1.2373,-1.2327,-1.3885,-1.5537,-1.5015,-1.3441,-1.1576,-1.2485,-1.4562,-1.6797,-2.152,-2.6549,-2.9664,-3.2572,-3.4658,-3.4947,-3.5152,-3.5059,-3.4091,-3.1997,-3.0058,-2.9376,-2.8831,-2.8831,-2.9707,-3.1906,-3.3559,-3.3628,-3.2989,-3.1877,-3.0116,-2.8627,-2.7462,-2.6772,-2.7394,-2.8114,-2.8813,-2.9465,-3.0181,-3.1085,-3.062,-3.0331,-3.0331,-2.8888,-2.7846,-2.7293,-2.6741,-2.6533,-2.6533,-2.6533,-2.6264,-2.5862,-2.5272,-2.4669,-2.4067,-2.3816,-2.359,-2.3427,-2.3427,-2.3353,-2.328,-2.3153,-2.3365,-2.3721,-2.378,-2.4002,-2.4182,0.0,0.0,0.0,0.0,0.0,0.0,0.0,0.0,0.0,0.0,0.0,0.0,0.0,0.0,0.0,0.0,0.0,-0.9996,-1.1979,-1.4681,-1.7314,-1.9798,-2.2697,-2.4821,-2.6066,-2.6869,-2.7604,-2.8315,-2.8822,-2.9357,-2.9865,-3.0634,-3.1275,-3.1912,-3.2878,-3.3599,-3.4097,-3.4562,-3.433,-3.352,-3.2027,-2.9946,-2.7413,-2.4303,-2.1573,0.0,-1.4933,-1.3557,-1.3358,-1.1894,-1.1414,-1.1563,-1.2371,-1.1837,-1.099,-1.1387,-1.4101,-1.7817,-2.1728,-2.6332,-3.0694,-3.3728,-3.5918,-3.709,-3.6255,-3.5868,-3.5157,-3.3077,-2.983,-2.7116,-2.6022,-2.5195,-2.4854,-2.5486,-2.7961,-3.0242,-3.1646,-3.1287,-3.0929,-3.1047,-2.9786,-2.8627,-2.8003,-2.7959,-2.8063,-2.8335,-2.9591,-3.0583,-3.1085,-3.0796,-3.062,-3.062,-2.8988,-2.7846,-2.7293,-2.6741,-2.6533,-2.6533,-2.6533,-2.6332,-2.5887,-2.5561,-2.5008,-2.4268,-2.3904,-2.3514,-2.3078,-2.3078,-2.3245,-2.3484,-2.3484,-2.3826,-2.4408,-2.4408,-2.4681,-2.4811,0.0,0.0,0.0,0.0,0.0,0.0,0.0,0.0,0.0,0.0,0.0,0.0,0.0,0.0,0.0,0.0,0.0,0.0,-1.0063,-1.1237,-1.313,-1.6017,-1.6551,-1.8171,-2.1105,-1.9781,-2.0423,-2.3198,-2.3408,-2.3926,-2.4846,-2.5799,-2.6378,-2.6705,-2.7955,-2.9286,-3.0566,-3.0538,-3.0085,-2.9278,-2.7859,-2.4879,-2.1083,-1.9862,-1.6999,-1.3417,-1.143,-1.0438,-0.9957,-0.8992,-0.8657,-0.8684,-0.8844,-0.9508,-1.0945,-1.4603,-1.6669,-1.9412,-2.7137,-3.0431,-3.2583,-3.6713,-3.8197,-3.8237,-3.6558,-3.5626,-3.4153,-3.0869,-2.7961,-2.5299,-2.3072,-2.2127,-2.1517,-2.0822,-2.2116,-2.451,-2.8292,-2.7657,-2.8505,-3.3173,-3.1629,-3.0446,-3.1031,-3.0343,-2.9176,-2.7494,-2.9867,-3.1185,-3.0721,-3.0696,-3.0683,-3.0658,-2.9051,-2.7921,-2.7369,-2.6791,-2.6571,-2.6571,-2.6546,-2.6533,-2.6533,-2.6496,-2.5837,-2.482,-2.482,-2.418,-2.3138,-2.3223,-2.3641,-2.4171,-2.4131,-2.4523,-2.5118,-2.5077,-2.5077,-2.4925,0.0,0.0,0.0,0.0,0.0,0.0,0.0,0.0,0.0,0.0,0.0,0.0,0.0,0.0,0.0,0.0,0.0,0.0,-0.8779,-1.0365,-1.2024,-1.3762,-1.5784,-1.724,-1.8017,-1.8258,-1.8665,-1.9335,-2.0011,-2.062,-2.1178,-2.2046,-2.2744,-2.3298,-2.4158,-2.4709,-2.4996,-2.5598,-2.5063,-2.3729,-2.2683,-2.0929,-1.8724,-1.6898,-1.5103,-1.3403,-1.1573,-1.0548,-0.9856,-0.8713,-1.0089,-1.2671,-1.4966,-1.6457,-1.7848,-2.0244,-2.3538,-2.7069,-2.9983,-3.4012,-3.762,-3.8477,-3.9299,-3.9262,-3.6925,-3.5019,-3.2645,-2.8552,-2.3936,-1.9733,-1.6895,-1.7922,-1.929,-1.967,-2.5162,-3.0002,-3.1847,-3.3031,-3.3874,-3.4084,-3.2992,-3.1957,-3.1185,-3.1033,-3.0294,-2.8637,-3.0294,-3.1512,-3.1788,-3.1813,-3.1625,-3.121,-3.0005,-2.9089,-2.8511,-2.7557,-2.708,-2.7067,-2.6653,-2.6533,-2.6508,-2.6013,-2.5448,-2.482,-2.5358,-2.4887,-2.3923,-2.48,-2.5266,-2.5401,-2.497,-2.5392,-2.6302,-2.5813,-2.5934,-2.6172,0.0,0.0,0.0,0.0,0.0,0.0,0.0,0.0,0.0,0.0,0.0,0.0,0.0,0.0,0.0,0.0,0.0,0.0,0.0,-0.8483,-0.9649,-1.1049,-1.1898,-1.2786,-1.3752,-1.3565,-1.3718,-1.4251,-1.5138,-1.5843,-1.6402,-1.7227,-1.799,-1.8641,-1.906,-1.9571,-2.012,-2.0483,-2.0003,0.0,0.0,-1.6507,-1.4739,-1.3257,-1.2125,-1.1245,-1.0415,-1.0367,-1.0911,-1.233,-1.3895,-1.5728,-1.8527,-2.0092,-2.1558,-2.4998,-2.8207,-3.1294,-3.4151,-3.7163,-3.9519,-3.9563,-3.9485,-3.8321,-3.4421,-3.2291,-2.958,-2.3966,-1.9598,-1.6044,-1.3622,-1.506,-1.6776,-1.7242,-2.2612,-2.7611,-3.0353,-3.1909,-3.335,-3.4996,-3.4344,-3.3576,-3.3125,-3.2542,-3.175,-3.0821,-3.1599,-3.1951,-3.1537,-3.1964,-3.1951,-3.1411,-3.0344,-2.9402,-2.8574,-2.7708,-2.7281,-2.7268,-2.6798,-2.6533,-2.6521,-2.6438,-2.6112,-2.5666,-2.6327,-2.5974,-2.4936,-2.595,-2.6311,-2.6295,-2.624,-2.6595,-2.7142,-2.6814,-2.6798,-2.6788,0.0,0.0,0.0,0.0,0.0,0.0,0.0,0.0,0.0,0.0,0.0,0.0,0.0,0.0,0.0,0.0,0.0,0.0,0.0,0.0,0.0,-0.8476,-0.7437,-0.7675,-0.9483,-0.8226,-0.8092,-0.9189,-1.0046,-1.0818,-1.153,-1.234,-1.3091,-1.3774,-1.3754,-1.4449,-1.5629,-1.5347,-1.4905,-1.4327,-1.3505,-1.2035,-1.0281,0.0,-0.9108,-0.8572,-0.8771,-0.9954,0.0,0.0,-1.841,-1.8599,-2.1471,-2.2929,-2.4582,-2.9552,-3.1844,-3.3728,-3.837,-3.9566,-3.9582,-4.0069,-3.9047,-3.6473,-3.0862,-2.8773,-2.5945,-1.8721,-1.5624,-1.3627,-1.1822,-1.3081,-1.4566,-1.5095,-1.8434,-2.2618,-2.7406,-2.8684,-3.094,-3.5854,-3.5398,-3.4925,-3.556,-3.4108,-3.3043,-3.2968,-3.3031,-3.2453,-3.1022,-3.1825,-3.2039,-3.1411,-3.0419,-2.9402,-2.8348,-2.777,-2.7507,-2.7494,-2.7082,-2.6835,-2.6759,-2.7468,-2.7433,-2.6878,-2.7642,-2.725,-2.6185,-2.6932,-2.7218,-2.723,-2.7711,-2.7926,-2.7955,-2.7795,-2.7496,-2.7106,0.0,0.0,0.0,0.0,0.0,0.0,0.0,0.0,0.0,0.0,-0.4523,-0.4523,0.0,0.0,0.0,0.0,0.0,0.0,0.0,0.0,0.0,0.0,-0.821,-0.8385,-0.8156,-0.7936,-0.7573,-0.7034,-0.7856,-0.8493,-0.895,-0.9812,-1.0478,-1.0903,-1.0919,-1.0975,-1.1088,-1.0446,-0.977,-0.9103,-0.8868,-0.8443,-0.7962,-0.8382,0.0,0.0,-0.8148,0.0,0.0,0.0,-2.0258,-2.3258,-2.7967,-3.0707,-3.2682,-3.5414,-3.6342,-3.7125,-3.974,-3.9961,-3.9534,-3.9598,-3.8146,-3.5373,-3.0186,-2.7018,-2.324,-1.6404,-1.3923,-1.2165,-0.9436,-1.1354,-1.4337,-1.7297,-2.1146,-2.5604,-3.0904,-3.2634,-3.4272,-3.678,-3.5662,-3.4925,-3.556,-3.4108,-3.288,-3.2403,-3.2805,-3.2955,-3.2667,-3.283,-3.2453,-3.1424,-3.0796,-3.0156,-2.9503,-2.8938,-2.8637,-2.8637,-2.871,-2.8534,-2.7984,-2.8799,-2.8538,-2.7575,-2.8782,-2.8568,-2.7549,-2.8653,-2.9145,-2.9059,-2.8712,-2.8813,-2.9174,-2.8196,-2.7783,-2.7676,0.0,0.0,0.0,0.0,0.0,0.0,0.0,0.0,-0.5191,-0.5268,-0.5553,-0.547,-0.4724,-0.4646,0.0,0.0,0.0,0.0,0.0,0.0,0.0,0.0,0.0,0.0,-0.7612,-0.7106,-0.674,-0.6496,0.0,-0.7273,-0.7735,-0.8225,-0.8738,-0.9262,-0.9217,-0.9172,-0.9111,-0.9034,-0.8576,-0.7929,-0.8213,-0.7797,-0.7056,0.0,0.0,0.0,0.0,0.0,0.0,0.0,-1.8665,-2.3558,-3.0351,-3.3496,-3.5118,-3.7262,-3.7939,-3.8397,-4.0135,-4.0056,-3.9424,-3.9076,-3.688,-3.3114,-2.6747,-2.3555,-1.9864,-1.261,-1.0865,-1.0084,-0.8354,-1.0367,-1.3021,-1.5389,-1.9277,-2.3699,-2.8619,-3.0825,-3.2911,-3.5425,-3.4991,-3.4512,-3.4539,-3.3617,-3.2968,-3.2679,-3.2918,-3.2943,-3.2641,-3.2629,-3.2378,-3.1838,-3.1035,-3.0495,-3.0218,-2.9732,-2.9356,-2.9048,-2.925,-2.9066,-2.8412,-2.9214,-2.9218,-2.874,-2.9667,-2.96,-2.8798,-2.9739,-2.9914,-2.9624,-2.9653,-2.9711,-2.9682,-2.9154,-2.8825,-2.8651,0.0,0.0,0.0,0.0,0.0,0.0,0.0,-0.5746,-0.5818,-0.6228,-0.6741,-0.6723,-0.5816,-0.4509,-0.3967,0.0,0.0,0.0,0.0,0.0,0.0,0.0,0.0,0.0,0.0,0.0,0.0,-0.607,-0.5684,0.0,0.0,0.0,0.0,0.0,-0.8284,-0.8309,-0.8316,-0.8612,-0.8387,0.0,0.0,-0.7675,0.0,0.0,0.0,0.0,0.0,0.0,0.0,0.0,-1.5871,-2.0904,-2.8439,-3.1991,-3.3871,-3.6163,-3.6981,-3.7607,-3.9739,-3.9787,-3.9171,-3.8634,-3.5774,-3.1193,-2.3909,-2.0637,-1.7006,-0.9482,-0.8226,-0.8311,-0.7686,-0.9255,-1.1222,-1.2938,-1.6137,-2.0234,-2.5301,-2.7787,-3.0415,-3.3861,-3.4272,-3.4173,-3.3936,-3.3456,-3.3081,-3.3081,-3.3081,-3.288,-3.2416,-3.239,-3.234,-3.2215,-3.1286,-3.08,-3.0833,-3.0491,-3.0026,-2.9508,-2.9957,-2.9679,-2.8954,-2.968,-2.9936,-2.987,-3.0387,-3.0351,-2.9929,-3.0424,-3.0337,-2.9944,-3.0498,-3.0455,-3.0119,-3.0044,-2.9832,-2.9565,0.0,0.0,0.0,0.0,0.0,0.0,0.0,-0.5727,-0.6077,-0.7371,-0.754,-0.7932,-0.8948,-0.3893,-0.1586,0.0,0.0,0.0,0.0,0.0,0.0,0.0,0.0,0.0,0.0,0.0,0.0,-0.4675,-0.3281,0.0,0.0,0.0,0.0,0.0,0.0,-0.8361,-0.8261,-0.7763,0.0,0.0,0.0,0.0,0.0,0.0,0.0,0.0,0.0,-0.6179,-0.6945,-1.0797,-1.2972,-1.4908,-1.9898,-2.4462,-2.8602,-3.1547,-3.2472,-3.3603,-3.8194,-3.8998,-3.8586,-3.8539,-3.541,-3.0738,-2.4418,-2.0327,-1.5857,-0.8822,-0.7645,-0.7675,-0.6934,-0.7429,-0.9063,-1.2404,-1.3715,-1.6764,-2.373,-2.6092,-2.8933,-3.3845,-3.4011,-3.4187,-3.5278,-3.3998,-3.3081,-3.3081,-3.3081,-3.3056,-3.3006,-3.3006,-3.2754,-3.2227,-3.1637,-3.1369,-3.1603,-3.1055,-3.0824,-3.0899,-3.1681,-3.138,-3.0261,-3.0974,-3.1119,-3.0702,-3.0642,-3.0598,-3.0674,-3.0747,-3.0732,-3.0674,-3.094,-3.1043,-3.0911,-3.0421,-3.0211,-3.006,0.0,0.0,0.0,0.0,0.0,0.0,-0.5853,-0.5966,-0.6432,-0.7774,-0.8414,-0.8926,-0.9399,-0.735,-0.4863,0.0,0.0,0.0,0.0,0.0,0.0,0.0,0.0,0.0,0.0,0.0,-0.2685,-0.1791,-0.3001,0.0,0.0,0.0,0.0,0.0,0.0,-0.7436,-0.7795,-0.756,0.0,0.0,0.0,0.0,0.0,0.0,0.0,0.0,0.0,0.0,-0.6247,-0.7899,-0.9915,-1.1876,-1.2616,-1.5156,0.0,-2.6967,-2.9957,-3.1887,-3.7073,-3.8408,-3.8302,-3.8344,-3.381,-2.8092,-2.3581,-1.8302,-1.3066,-0.8442,-0.7293,-0.7058,-0.6794,-0.6864,-0.7519,-0.9255,-1.0503,-1.2889,-1.754,-2.089,-2.4695,-2.9617,-3.1155,-3.2627,-3.4936,-3.441,-3.405,-3.4594,-3.4581,-3.4581,-3.4581,-3.3296,-3.2693,-3.2949,-3.205,-3.1837,-3.2444,-3.2359,-3.2189,-3.2027,-3.235,-3.2097,-3.1344,-3.1302,-3.113,-3.0955,-3.0821,-3.0821,-3.0955,-3.0821,-3.0602,-3.0411,-3.0925,-3.0895,-3.0554,-3.0359,-3.0354,-3.0276,0.0,0.0,0.0,0.0,0.0,-0.5287,-0.6007,-0.6086,-0.6493,-0.7621,-0.8478,-0.9138,-0.951,-0.9288,-0.706,-0.1899,0.0,0.0,0.0,0.0,0.0,0.0,0.0,0.0,0.0,0.0,-0.1483,-0.1336,-0.2571,-0.2618,0.0,0.0,-0.4949,-0.5889,0.0,0.0,0.0,0.0,0.0,0.0,0.0,0.0,0.0,0.0,0.0,0.0,0.0,0.0,0.0,0.0,0.0,0.0,0.0,0.0,0.0,0.0,-2.5461,-2.8192,-3.3634,-3.6086,-3.7102,-3.7048,-3.209,-2.6267,-2.2503,-1.6721,-1.1202,-0.7822,-0.6862,-0.6544,-0.6282,-0.638,-0.6592,-0.6868,-0.8007,-0.9861,-1.2855,-1.612,-1.9872,-2.4346,-2.6272,-2.8731,-3.2597,-3.3807,-3.4703,-3.5548,-3.5386,-3.5305,-3.5615,-3.3789,-3.3083,-3.3738,-3.2749,-3.2426,-3.3006,-3.3297,-3.3078,-3.2442,-3.2664,-3.2423,-3.1707,-3.1279,-3.1132,-3.1132,-3.0955,-3.1014,-3.1132,-3.0999,-3.0616,-3.0231,-3.0939,-3.073,-3.0101,-3.0447,-3.0554,-3.0392,0.0,0.0,0.0,0.0,0.0,0.0,0.0,-0.6059,-0.609,-0.6912,-0.7483,-0.834,-0.975,-0.8362,-0.6664,-0.4993,0.0,0.0,0.0,0.0,0.0,0.0,0.0,0.0,0.0,0.0,-0.1472,-0.4449,-0.1488,-0.0034,-0.0084,-0.3095,-0.4471,-0.4474,0.0,0.0,0.0,0.0,0.0,0.0,0.0,0.0,0.0,0.0,0.0,0.0,0.0,0.0,0.0,0.0,0.0,0.0,0.0,0.0,0.0,0.0,-1.8065,-2.1437,-2.6998,-3.151,-3.4529,-3.4151,-3.0539,-2.5904,-2.1362,-1.6075,-1.0952,-0.6853,-0.6276,-0.6182,-0.5125,-0.5776,-0.6396,-0.6055,-0.6593,-0.8096,-1.1173,-1.2682,-1.4839,-1.8567,-1.9312,-2.1948,-2.808,-3.2159,-3.4703,-3.5548,-3.4855,-3.4786,-3.5548,-3.4644,-3.429,-3.4681,-3.3669,-3.3284,-3.3353,-3.3673,-3.32,-3.1999,-3.2709,-3.2326,-3.1087,-3.1087,-3.119,-3.1278,-3.1132,-3.119,-3.1278,-3.1292,-3.0906,-3.0372,-3.1155,-3.0731,-2.9723,-3.0868,-3.0898,-3.0258,0.0,0.0,0.0,0.0,0.0,0.0,0.0,-0.5313,-0.5339,-0.5607,-0.63,-0.7154,-0.8143,-0.813,-0.7419,-0.5854,0.0,0.0,0.0,0.0,0.0,0.0,0.0,0.0,0.0,0.0,-0.2537,-0.1421,-0.2537,-0.2534,-0.1546,-0.3466,-0.4379,-0.444,-0.5222,-0.5063,0.0,0.0,0.0,0.0,0.0,0.0,-0.8554,0.0,0.0,0.0,0.0,0.0,0.0,0.0,0.0,0.0,0.0,0.0,0.0,-0.9781,-1.3161,-1.6983,-2.1547,-2.3799,-2.5043,-2.5853,-2.2185,-1.8074,-1.6993,-1.2567,-0.8255,-0.6719,-0.5945,-0.5384,-0.4859,-0.4886,-0.5077,-0.5336,-0.5591,-0.6283,-0.778,-1.2621,-1.7131,-2.0247,-2.7119,-3.2138,-3.3508,-3.5689,-3.7092,-3.7386,-3.7246,-3.7139,-3.6939,-3.6373,-3.5782,-3.5125,-3.4155,-3.3844,-3.4452,-3.4083,-3.3818,-3.3517,-3.2773,-3.2301,-3.202,-3.1574,-3.1424,-3.1409,-3.1292,-3.1292,-3.1379,-3.086,-3.0503,-3.035,-3.0548,-3.0339,-2.9894,-3.0261,-3.0297,-3.0016,0.0,0.0,0.0,0.0,0.0,0.0,0.0,-0.4969,-0.5014,-0.5029,-0.5507,-0.6198,-0.7104,-0.714,-0.6838,-0.6161,0.0,0.0,0.0,0.0,0.0,0.0,0.0,0.0,0.0,-0.4505,-0.3532,-0.1539,-0.4537,-0.5224,-0.3768,-0.4674,-0.5098,-0.5114,-0.4889,-0.4644,0.0,0.0,0.0,0.0,0.0,0.0,-0.7791,0.0,0.0,0.0,0.0,0.0,0.0,0.0,0.0,0.0,0.0,0.0,0.0,0.0,-0.8711,-1.1679,0.0,-1.8909,-2.0254,-2.0886,-1.7603,-1.434,-1.4629,-1.0589,-0.6711,-0.6419,-0.5775,-0.5065,-0.4432,-0.4436,-0.4543,-0.4606,-0.4903,-0.5679,-0.7284,-1.1901,-1.6423,-1.9992,-2.8544,-3.3915,-3.3395,-3.602,-3.7947,-3.8277,-3.797,-3.7739,-3.7637,-3.7013,-3.6358,-3.5668,-3.4824,-3.4455,-3.4617,-3.4362,-3.3981,-3.3523,-3.2705,-3.2258,-3.2138,-3.1719,-3.1482,-3.1482,-3.1409,-3.1375,0.0,-3.091,-3.0495,-3.0219,-3.0448,-3.0357,-3.0085,-3.0243,-3.0353,-3.0304,0.0,0.0,0.0,0.0,0.0,0.0,0.0,0.0,0.0,-0.5086,-0.5093,-0.548,-0.6467,-0.5638,-0.5273,-0.595,0.0,0.0,0.0,0.0,0.0,0.0,0.0,0.0,-0.451,-0.4499,-0.4367,-0.4101,-0.6917,-0.7611,-0.6325,-0.6316,-0.6316,-0.6277,-0.4859,-0.5277,-0.699,-0.6403,-0.5825,-0.5352,-0.6038,-0.63,0.0,0.0,0.0,0.0,0.0,0.0,0.0,0.0,0.0,0.0,0.0,0.0,0.0,0.0,0.0,0.0,0.0,-1.589,-1.8518,-1.7985,-1.5675,-1.349,-1.3418,0.0,0.0,-0.6022,-0.5676,-0.5061,-0.3922,-0.4312,-0.4578,-0.3907,-0.4445,-0.6014,-0.9129,-1.1289,-1.429,-1.8824,-2.529,-2.9254,-2.8879,-3.3874,-3.7472,-3.8295,-3.7255,-3.688,-3.7691,-3.6763,-3.6179,-3.6119,-3.554,-3.4887,-3.4203,-3.4409,-3.3844,-3.2587,-3.2587,-3.2243,-3.1541,-3.1541,-3.1526,-3.1482,-3.1482,-3.1449,-3.1374,-3.1282,-3.0778,-3.018,-3.0716,-3.0639,-3.0321,-3.0765,-3.099,-3.1013,0.0,0.0,0.0,0.0,0.0,0.0,0.0,0.0,0.0,0.0,-0.5076,-0.5185,-0.5382,-0.5162,-0.5027,0.0,0.0,0.0,0.0,0.0,0.0,0.0,0.0,0.0,-0.451,-0.4397,-0.4265,-0.4104,-0.5513,-0.6312,-0.6512,-0.5752,-0.5862,-0.6645,-0.5895,-0.5873,-0.6346,-0.5184,-0.492,-0.536,-0.6082,-0.6345,0.0,0.0,0.0,0.0,-0.6573,-0.6552,0.0,0.0,0.0,0.0,0.0,0.0,0.0,0.0,-0.523,-0.5486,-0.7147,0.0,-0.7662,-0.8425,-0.7621,-0.68,0.0,0.0,0.0,0.0,0.0,-0.443,-0.3944,-0.3889,-0.3871,-0.3744,-0.4141,-0.5815,-0.9656,-1.7073,-2.287,-2.4989,-3.0446,-3.2577,-2.885,-3.3607,-3.7009,-3.7166,-3.7019,-3.6866,-3.66,-3.6507,-3.6186,-3.5678,-3.5514,-3.5111,-3.4424,-3.4472,-3.4068,-3.326,-3.326,-3.2916,-3.2273,-3.2273,-3.2018,-3.1482,-3.1482,-3.1762,-3.2074,-3.0975,-3.0892,-3.1388,-3.0561,-3.056,-3.1056,-3.0925,-3.1072,-3.1286,0.0,0.0,0.0,0.0,0.0,0.0,0.0,0.0,0.0,0.0,0.0,0.0,0.0,0.0,0.0,0.0,0.0,0.0,0.0,0.0,0.0,0.0,0.0,-0.4531,-0.451,-0.4373,-0.4425,-0.4655,-0.5524,-0.6356,-0.7097,-0.6511,-0.6592,-0.7174,-0.6522,-0.6195,-0.6068,-0.4795,-0.4464,-0.4824,-0.5232,0.0,0.0,0.0,0.0,0.0,-0.5533,-0.5189,0.0,-0.4306,-0.4516,-0.4977,0.0,0.0,0.0,0.0,-0.4721,-0.4672,-0.4756,-0.488,-0.5117,-0.5679,-0.5471,-0.5201,-0.5508,0.0,0.0,0.0,0.0,-0.4172,-0.3755,-0.4725,-0.5158,-0.3717,-0.6445,-0.982,-1.2901,-1.8007,-2.2738,-2.6339,-2.9996,-3.2174,-3.1874,-3.4913,-3.6936,-3.6936,-3.6891,-3.6716,-3.6358,-3.6126,-3.5863,-3.5519,-3.5504,-3.5325,-3.4951,-3.4637,-3.4292,-3.3933,-3.3335,-3.2976,-3.2894,-3.2315,-3.2186,-3.2351,-3.2064,-3.2268,-3.2692,-3.1899,-3.1646,-3.179,-3.1255,-3.1372,-3.1832,-3.1551,-3.1771,-3.2107,0.0,0.0,0.0,0.0,0.0,0.0,0.0,0.0,0.0,0.0,0.0,0.0,0.0,0.0,0.0,0.0,0.0,0.0,0.0,0.0,0.0,0.0,0.0,-0.4476,-0.4465,-0.4324,-0.4624,-0.5365,-0.6045,-0.6787,-0.7605,-0.7474,-0.7417,-0.7431,-0.6925,-0.6371,-0.5718,-0.4721,-0.4265,-0.4204,-0.4205,0.0,0.0,0.0,0.0,0.0,0.0,0.0,0.0,-0.392,-0.4192,-0.4192,-0.4163,0.0,0.0,0.0,0.0,0.0,-0.3813,-0.5303,-0.6779,-0.6378,-0.6084,-0.5798,-0.5435,0.0,0.0,0.0,0.0,0.0,-0.4185,-0.5941,-0.6637,-0.4253,-0.9747,-1.5222,-1.7797,-1.8618,-2.0796,-2.5688,-2.8084,-3.0708,-3.4324,-3.599,-3.6862,-3.6862,-3.6574,-3.6342,-3.6342,-3.5804,-3.5504,-3.5504,-3.5504,-3.5459,-3.5355,-3.4771,-3.4382,-3.4158,-3.3261,-3.2942,-3.3269,-3.2376,-3.2459,-3.3287,-3.2788,-3.2871,-3.3272,-3.3062,-3.257,-3.2026,-3.2207,-3.2376,-3.25,-3.2248,-3.2546,-3.3019,0.0,0.0,0.0,0.0,0.0,0.0,0.0,0.0,0.0,0.0,0.0,0.0,0.0,0.0,0.0,0.0,0.0,0.0,0.0,0.0,0.0,-0.442,-0.4415,-0.4386,-0.4338,-0.414,-0.4575,-0.5643,-0.5759,-0.629,-0.7173,-0.6726,-0.645,-0.6375,-0.7226,-0.6412,-0.4399,-0.4336,-0.4265,-0.4205,-0.4262,0.0,0.0,0.0,0.0,0.0,0.0,0.0,0.0,-0.4108,-0.4116,-0.4109,-0.4046,0.0,0.0,0.0,0.0,0.0,-0.41,-0.6316,-0.8242,-0.7009,-0.5792,-0.4958,-0.511,0.0,0.0,0.0,0.0,0.0,0.0,-0.608,-0.5232,-0.6632,-1.1918,-1.7843,-2.3474,-2.6928,-2.8383,-2.6884,-3.0629,-3.2247,-2.9482,-3.3182,-3.5738,-3.5738,-3.5714,-3.5654,-3.5654,-3.5564,-3.5504,-3.5504,-3.5504,-3.522,-3.4637,-3.4532,-3.3918,-3.2826,-3.3649,-3.3587,-3.2821,-3.3597,-3.3567,-3.2895,-3.3235,-3.3566,-3.3744,-3.3112,-3.2849,-3.2859,-3.2314,-3.2354,-3.2645,-3.2352,-3.2506,-3.2793,0.0,0.0,0.0,0.0,0.0,0.0,0.0,0.0,0.0,0.0,0.0,0.0,0.0,0.0,0.0,0.0,0.0,0.0,0.0,0.0,0.0,-0.4409,-0.4323,-0.4279,-0.424,-0.444,-0.5029,-0.6029,-0.6035,-0.656,-0.7581,-0.7257,-0.6618,-0.5715,-0.5625,-0.5208,-0.4579,-0.4341,-0.4227,-0.4201,0.0,0.0,0.0,0.0,0.0,0.0,0.0,0.0,0.0,0.0,-0.4055,-0.3977,-0.392,0.0,0.0,0.0,0.0,0.0,-0.2815,-0.4589,-0.69,-0.825,-0.9297,-1.0049,-1.0294,-0.9731,0.0,0.0,0.0,0.0,0.0,-0.83,-1.057,-1.6335,-1.7206,-1.8877,-2.3853,-2.4298,-2.4775,-2.6554,-2.8868,-3.0765,-3.1922,-3.4169,-3.5504,-3.5504,-3.5504,-3.5504,-3.5504,-3.516,-3.5063,-3.5349,-3.5109,-3.4819,-3.4438,-3.411,-3.3856,-3.3572,-3.4131,-3.4062,-3.3549,-3.3816,-3.3848,-3.3616,-3.3728,-3.3879,-3.4091,-3.3668,-3.3259,-3.2893,-3.2967,-3.2989,-3.2916,-3.3057,-3.3154,-3.3142,0.0,0.0,0.0,0.0,0.0,0.0,0.0,0.0,0.0,0.0,0.0,0.0,0.0,0.0,0.0,0.0,0.0,0.0,0.0,0.0,-0.4471,-0.4409,-0.4269,-0.4265,-0.4409,-0.4751,-0.5467,-0.6571,-0.6519,-0.6935,-0.7762,-0.7446,-0.6658,-0.5441,-0.4419,-0.4276,-0.4795,-0.4393,-0.4224,-0.4217,0.0,0.0,0.0,0.0,0.0,0.0,0.0,0.0,0.0,0.0,0.0,0.0,0.0,0.0,0.0,-0.3587,-0.3462,-0.3135,-0.2155,-0.3844,-0.6516,-0.9179,0.0,-1.2833,-1.4645,-1.3879,-1.2336,0.0,0.0,0.0,0.0,-1.1162,-1.5287,-2.2521,-2.1296,-2.0833,-2.4946,-2.3234,-2.3223,-2.7767,-2.8569,-3.0534,-3.5031,-3.5355,-3.5265,-3.5265,-3.5228,-3.5138,-3.504,-3.4831,-3.4759,-3.4942,-3.4806,-3.4601,-3.4257,-3.4021,-3.3958,-3.4011,-3.3953,-3.3799,-3.3665,-3.3551,-3.3691,-3.4028,-3.3977,-3.4049,-3.4216,-3.4137,-3.3504,-3.2666,-3.3419,-3.3414,-3.2977,-3.3458,-3.3513,-3.3332,0.0,0.0,0.0,0.0,0.0,0.0,0.0,0.0,0.0,0.0,0.0,0.0,0.0,0.0,0.0,0.0,0.0,0.0,0.0,0.0,-0.4471,-0.4409,-0.4269,-0.4461,-0.5022,-0.482,-0.5579,-0.7318,-0.7191,-0.7118,-0.7066,-0.6228,-0.581,-0.5741,-0.5043,-0.4558,-0.4264,-0.4275,-0.4293,-0.4291,-0.429,0.0,0.0,0.0,0.0,0.0,0.0,0.0,0.0,0.0,0.0,0.0,0.0,0.0,-0.3501,-0.3442,-0.331,-0.3274,-0.3544,-0.6602,-0.9606,-0.9191,-0.7503,-0.7715,-1.4379,-1.3734,0.0,-1.6378,0.0,-1.6428,-1.4296,-1.4054,-1.5004,-1.7555,-2.1326,-2.5564,-3.027,-3.1276,-3.1827,-3.287,-3.3555,-3.4379,-3.5415,-3.4921,-3.4547,-3.4547,-3.4471,-3.4166,-3.3696,-3.4725,-3.4867,-3.3834,-3.4904,-3.5007,-3.3873,-3.4764,-3.4392,-3.2631,-3.2433,-3.2172,-3.1839,-3.2767,-3.3278,-3.3305,-3.3772,-3.4004,-3.4002,-3.4017,-3.3305,-3.23,-3.3176,-3.3092,-3.2502,-3.29,-3.2966,-3.2982,0.0,0.0,0.0,0.0,0.0,0.0,0.0,0.0,0.0,0.0,0.0,0.0,0.0,0.0,0.0,0.0,0.0,0.0,0.0,-0.3684,-0.3527,-0.4414,-0.4328,-0.4505,-0.5019,-0.5302,-0.5948,-0.6956,-0.7116,-0.6846,-0.6119,-0.6047,-0.5525,-0.4685,-0.4861,-0.4628,-0.4146,-0.4211,-0.424,-0.424,-0.4188,-0.4116,0.0,0.0,0.0,0.0,0.0,0.0,0.0,0.0,-0.3129,-0.3605,-0.3557,-0.3437,-0.3315,-0.3285,-0.3177,-0.3058,-0.3009,-0.5888,-0.8726,-0.7901,-0.7479,0.0,0.0,-1.7738,-1.665,-1.5916,-1.8685,-2.0047,-1.602,-1.9016,-2.1758,-2.0642,-2.5063,-2.9495,-3.1824,-3.2003,-3.2405,-3.3847,-3.4257,-3.4636,-3.5272,-3.5502,-3.5424,-3.4991,-3.467,-3.4515,-3.4674,-3.4498,-3.4526,-3.4768,-3.492,-3.4708,-3.4136,-3.415,-3.3573,-3.2381,-3.3162,-3.2995,-3.2071,-3.3194,-3.3447,-3.3066,-3.3715,-3.3864,-3.3599,-3.3149,-3.26,-3.2109,-3.2478,-3.2381,-3.2075,-3.2374,-3.2418,-3.243,0.0,0.0,0.0,0.0,0.0,0.0,0.0,0.0,0.0,0.0,0.0,0.0,0.0,0.0,0.0,0.0,0.0,0.0,-0.3918,-0.3349,-0.3465,-0.4459,-0.4386,-0.4462,-0.4742,-0.5346,-0.6089,-0.6982,-0.7399,-0.7034,-0.5914,-0.5924,-0.5258,-0.4085,-0.4538,-0.4528,-0.4166,-0.4242,-0.424,-0.4191,-0.4109,-0.4013,0.0,0.0,0.0,0.0,0.0,0.0,0.0,0.0,-0.2057,-0.2898,-0.3267,-0.3276,-0.3171,-0.3145,-0.3678,-0.4316,-0.4578,-0.6296,-0.8132,-0.8594,0.0,0.0,-1.8937,-2.0028,-1.9359,-1.961,-2.1705,-2.2492,-1.929,-2.2637,-2.5346,-2.3498,-2.795,-3.1864,-3.2397,-3.1925,-3.2045,-3.3572,-3.3768,-3.4079,-3.4815,-3.5237,-3.5169,-3.4644,-3.4337,-3.4171,-3.4149,-3.383,-3.3764,-3.4184,-3.4228,-3.4072,-3.3768,-3.3643,-3.3141,-3.229,-3.3371,-3.3243,-3.2134,-3.2921,-3.3138,-3.2912,-3.3419,-3.341,-3.3006,-3.2567,-3.2237,-3.1928,-3.1532,-3.1409,-3.1512,-3.1826,-3.188,-3.1956,0.0,0.0,0.0,0.0,0.0,0.0,0.0,0.0,0.0,0.0,0.0,0.0,0.0,0.0,0.0,0.0,0.0,0.0,-0.2435,-0.372,-0.4535,-0.4476,-0.442,-0.4316,-0.4201,-0.4797,-0.5916,-0.7588,-0.8184,-0.7821,-0.6577,-0.5706,-0.4897,-0.4201,-0.42,-0.4242,-0.4301,-0.4368,-0.4318,-0.4185,-0.4042,-0.3919,-0.3779,0.0,0.0,0.0,0.0,0.0,0.0,0.0,-0.0619,-0.1601,-0.2742,-0.3091,-0.3082,-0.3022,-0.4874,-0.7285,-0.8817,-0.8457,-0.8419,-1.174,0.0,0.0,-2.0044,-1.9778,-2.0083,-2.9065,-2.7025,-2.384,-2.473,-2.4342,-2.4164,-2.5072,-2.9222,-3.2382,-3.2413,-3.191,-3.1764,-3.2422,-3.2512,-3.296,-3.4186,-3.3805,-3.3474,-3.3298,-3.329,-3.2723,-3.1486,-3.2557,-3.2707,-3.163,-3.2796,-3.3117,-3.2602,-3.3522,-3.3408,-3.2297,-3.2694,-3.2472,-3.1677,-3.1714,-3.2127,-3.2795,-3.2795,-3.2601,-3.2328,-3.2507,-3.2316,-3.1738,-3.0356,-3.0205,-3.0847,-3.1248,-3.1355,-3.1565,0.0,0.0,0.0,0.0,0.0,0.0,0.0,0.0,0.0,0.0,0.0,0.0,0.0,0.0,0.0,0.0,0.0,0.0,-0.4018,-0.2335,-0.1817,-0.2845,-0.2857,-0.3344,-0.4386,-0.4858,-0.5529,-0.6407,-0.6208,-0.5942,-0.5596,-0.4972,-0.4604,-0.4481,-0.4539,-0.4485,-0.437,-0.4392,-0.4242,-0.3977,-0.3898,-0.3728,-0.3514,0.0,0.0,0.0,0.0,0.0,0.0,0.0,0.0,0.0,-0.2447,-0.2815,-0.2891,-0.2863,-0.336,-0.3955,-0.4182,-0.7426,0.0,-0.9062,0.0,0.0,0.0,-2.0686,0.0,-2.984,-2.6961,-2.3396,-2.4533,-2.6264,-2.6964,-2.5272,-2.9039,-3.252,-3.3505,-3.31,-3.2958,-3.3572,-3.3657,-3.3598,-3.3404,-3.3696,-3.3678,-3.3113,-3.282,-3.2698,-3.2663,-3.2752,-3.2796,-3.284,-3.322,-3.3219,-3.2821,-3.3076,-3.2614,-3.1462,-3.1568,-3.1654,-3.1714,-3.1986,-3.2368,-3.2813,-3.3099,-3.2944,-3.246,-3.1759,-3.1073,-3.0466,-3.0242,-3.0275,-3.0472,-3.0631,-3.0744,-3.0963,0.0,0.0,0.0,0.0,0.0,0.0,0.0,0.0,0.0,0.0,0.0,0.0,0.0,0.0,0.0,0.0,0.0,0.0,0.0,-0.2692,-0.1996,-0.2272,-0.2838,-0.3574,-0.4482,-0.4704,-0.4962,-0.5275,-0.5265,-0.5285,-0.5303,-0.4764,-0.4545,-0.4594,-0.4612,-0.4546,-0.4403,-0.4335,-0.415,-0.3847,-0.3758,-0.3612,-0.3427,0.0,0.0,0.0,0.0,0.0,0.0,0.0,0.0,0.0,-0.243,-0.2655,-0.318,-0.5501,-0.4435,-0.3616,-0.8632,-1.0958,0.0,-1.3118,-1.5835,-1.9001,-2.19,-2.3849,-2.6335,-3.0858,-2.8649,-2.6213,-2.7359,-2.8718,-2.9214,-2.7889,-3.0116,-3.2313,-3.3192,-3.2561,-3.2262,-3.2933,-3.2821,-3.2673,-3.2668,-3.2885,-3.2773,-3.2253,-3.2033,-3.1959,-3.1982,-3.201,-3.211,-3.2253,-3.2253,-3.2072,-3.1722,-3.1864,-3.1497,-3.062,-3.08,-3.0997,-3.1234,-3.1467,-3.1951,-3.2577,-3.231,-3.2114,-3.1883,-3.0941,-3.0373,-3.0071,-3.0235,-3.0321,-3.0389,-3.0414,-3.0505,-3.0717,0.0,0.0,0.0,0.0,0.0,0.0,0.0,0.0,0.0,0.0,0.0,0.0,0.0,0.0,0.0,0.0,0.0,0.0,0.0,0.0,-0.4076,-0.2673,-0.3906,-0.4577,-0.4511,-0.4437,-0.4375,-0.432,-0.5054,-0.5423,-0.539,-0.4932,-0.4666,-0.4596,-0.4546,-0.4471,-0.4386,-0.4245,-0.4044,-0.3788,-0.3675,-0.3557,-0.3444,-0.3272,0.0,0.0,0.0,0.0,0.0,0.0,0.0,0.0,-0.2578,-0.2588,-0.3636,-0.8898,-0.7128,-0.5988,-1.7577,-1.6564,-1.386,-2.0666,-2.0722,-2.0261,-2.4397,-2.8119,-3.0885,-3.153,-3.1033,-3.0747,-3.1486,-3.1008,-3.0853,-3.1681,-3.1801,-3.1864,-3.1971,-3.105,-3.0623,-3.1294,-3.0844,-3.0868,-3.1896,-3.1468,-3.099,-3.0824,-3.0931,-3.0738,-3.0061,-3.0692,-3.0878,-3.0471,-3.0437,-3.0283,-2.9969,-3.0318,-3.0313,-2.991,-3.0254,-3.0463,-3.046,-3.0503,-3.1142,-3.2192,-3.0978,-3.0669,-3.0938,-3.0246,-3.0085,-3.0316,-3.0321,-3.0402,-3.0518,-3.0533,-3.0567,-3.0724,0.0,0.0,0.0,0.0,0.0,0.0,0.0,0.0,0.0,0.0,0.0,0.0,0.0,0.0,0.0,0.0,0.0,0.0,0.0,0.0,-0.458,-0.4289,-0.454,-0.4642,-0.4577,-0.4508,-0.4471,-0.4454,-0.4741,-0.4789,-0.4648,-0.4791,-0.4759,-0.4596,-0.4577,-0.4492,-0.431,-0.4233,-0.4039,-0.3796,-0.3773,-0.3533,-0.3186,-0.3194,-0.2685,0.0,0.0,0.0,0.0,0.0,0.0,0.0,-0.2382,-0.247,-0.275,-0.3543,-0.7472,-1.1476,-1.0916,-1.316,0.0,-1.8271,-2.1528,-2.4753,-2.6689,-2.8289,-2.9147,-2.8481,-2.957,-3.036,-2.9393,-3.0185,-3.098,-3.1049,-3.1161,-3.1434,-3.1862,-3.1686,-3.1421,-3.1133,-3.095,-3.0783,-3.056,-2.9916,-2.9505,-2.9428,-2.9634,-2.9728,-2.9573,-2.9937,-3.0141,-3.0033,-3.0033,-3.0127,-3.0379,-3.0457,-3.0313,-2.9891,-2.999,-3.0155,-3.0345,-3.063,-3.1151,-3.1885,-3.1162,-3.0922,-3.0956,-3.0424,-3.0273,-3.0398,-3.0485,-3.0555,-3.0584,-3.0648,-3.0667,-3.0714,0.0,0.0,0.0,0.0,0.0,0.0,0.0,0.0,0.0,0.0,0.0,0.0,0.0,0.0,0.0,0.0,0.0,0.0,0.0,0.0,-0.4768,-0.4792,-0.4764,-0.4724,-0.4643,-0.4622,-0.4572,-0.4541,-0.3877,-0.3884,-0.4507,-0.4739,-0.4781,-0.4621,-0.4051,-0.397,-0.4296,-0.4188,-0.3991,-0.3751,-0.3721,-0.3541,-0.3272,-0.3044,-0.2731,-0.2278,-0.1214,0.0,0.0,0.0,0.0,0.0,0.0,0.0,-0.2765,-0.4351,-0.6535,-0.8942,-1.1195,0.0,0.0,-1.9589,0.0,-2.521,-2.6044,-2.6605,-2.691,-2.6691,-2.828,-2.9449,-2.8682,-2.9573,-3.0278,-2.9822,-3.0144,-3.0476,-3.0622,-3.0666,-3.0628,-3.048,-3.0465,-3.0364,-3.0022,-2.9317,-2.8904,-2.8904,-2.902,-2.9101,-2.9101,-2.9612,-2.9825,-2.9629,-2.9611,-2.9615,-2.9591,-2.9629,-2.9521,-2.933,-2.946,-2.9717,-3.0114,-3.0593,-3.0823,-3.0885,-3.066,-3.0632,-3.0706,-3.0483,-3.0433,-3.0498,-3.0564,-3.0638,-3.0689,-3.0663,-3.0675,-3.0706,0.0,0.0,0.0,0.0,0.0,0.0,0.0,0.0,0.0,0.0,0.0,0.0,0.0,0.0,0.0,0.0,0.0,0.0,0.0,0.0,0.0,-0.4783,-0.4799,-0.4768,-0.4719,-0.4706,-0.466,-0.4592,-0.3062,-0.3087,-0.4625,-0.4765,-0.4631,-0.4217,-0.3223,-0.3339,-0.4267,-0.4169,-0.397,-0.3713,-0.3651,-0.3557,-0.3403,-0.2953,-0.2847,-0.2742,-0.1063,-0.0265,0.0,0.0,0.0,0.0,0.0,0.0,-0.2969,-0.6245,-0.5368,-0.4881,-1.1946,0.0,-1.509,-2.2142,-2.4007,-2.4234,-2.4643,-2.4827,-2.5103,-2.5742,-2.7182,-2.8333,-2.8333,-2.9001,-2.9336,-2.8578,-2.9022,-2.9377,-2.9161,-2.918,-2.9298,-2.947,-2.9639,-2.9674,-2.9502,-2.8969,-2.8601,-2.8601,-2.8644,-2.8675,-2.8675,-2.9321,-2.9513,-2.9201,-2.904,-2.8802,-2.8438,-2.8373,-2.833,-2.8372,-2.8661,-2.9139,-2.9755,-3.0295,-3.0335,-2.9996,-3.0119,-3.0256,-3.0413,-3.0482,-3.0561,-3.0611,-3.0606,-3.0663,-3.0776,-3.0626,-3.0598,-3.0587,0.0,0.0,0.0,0.0,0.0,0.0,0.0,0.0,0.0,0.0,0.0,0.0,0.0,0.0,0.0,0.0,0.0,0.0,-0.4648,0.0,0.0,-0.4676,-0.4804,-0.4792,-0.4789,-0.4738,-0.466,-0.4592,-0.3062,-0.3125,0.0,-0.4878,-0.4095,-0.2534,-0.2362,-0.3013,-0.4207,-0.4205,-0.4031,-0.3781,-0.3721,-0.3509,-0.3229,-0.3159,-0.2479,-0.1627,-0.2148,-0.1327,0.0,0.0,-0.0087,0.0,0.0,0.0,-0.2568,-0.3038,-0.5225,-0.6986,-0.4711,0.0,-1.8315,0.0,-2.4508,-2.4452,-2.5137,-2.5349,-2.5401,-2.5331,-2.6323,-2.723,-2.7296,-2.8303,-2.8837,-2.8024,-2.8237,-2.8475,-2.8456,-2.8699,-2.8644,-2.7979,-2.8518,-2.8658,-2.7962,-2.7882,-2.7841,-2.7841,-2.8067,-2.819,-2.819,-2.8569,-2.8789,-2.8782,-2.8087,-2.7737,-2.7747,-2.7178,-2.6898,-2.6979,-2.7478,-2.8179,-2.9047,-2.9357,-2.9804,-3.0348,-3.0404,-3.0452,-3.049,-3.0567,-3.0634,-3.0673,-3.0614,-3.0654,-3.0701,-3.0564,-3.0405,-3.0265,0.0,0.0,0.0,0.0,0.0,0.0,0.0,0.0,0.0,0.0,0.0,0.0,0.0,0.0,0.0,-0.5049,-0.3426,-0.2351,-0.2246,-0.0839,-0.064,-0.2049,-0.3876,-0.4834,-0.4793,-0.4738,-0.466,-0.4592,-0.2184,0.0,0.0,-0.4049,-0.406,-0.3472,-0.3284,-0.3496,-0.3976,-0.3932,-0.3825,-0.3682,-0.3581,-0.4383,-0.5497,-0.3874,-0.2604,-0.1655,-0.1313,-0.0674,0.0,0.0,-0.0527,-0.1221,-0.1444,0.0,0.0,0.0,-0.364,-0.5244,-0.6104,-1.1843,-1.868,0.0,-2.4259,-2.4149,-2.4397,-2.448,-2.4599,-2.4963,-2.5359,-2.5736,-2.6028,-2.6895,-2.7284,-2.6509,-2.6874,-2.7148,-2.6935,-2.7025,-2.704,-2.6845,-2.7121,-2.7371,-2.7478,-2.7111,-2.704,-2.7486,-2.7223,-2.7047,-2.7072,-2.723,-2.7373,-2.7519,-2.7171,-2.7053,-2.72,-2.6991,-2.6984,-2.7214,-2.7471,-2.7898,-2.8414,-2.9052,-2.9751,-3.046,-3.0567,-3.0575,-3.0521,-3.0565,-3.0597,-3.0595,-3.0555,-3.0498,-3.0403,-3.0271,-3.0088,-2.9913,0.0,0.0,0.0,0.0,0.0,0.0,0.0,0.0,0.0,0.0,0.0,0.0,0.0,0.0,0.0,0.0,-0.3418,-0.1737,-0.0113,0.0,0.0,0.0,-0.2344,-0.4026,-0.4804,-0.3963,-0.3473,-0.3426,0.0,0.0,-0.2232,-0.3454,-0.4137,0.0,-0.4144,-0.3963,-0.3818,-0.3713,-0.3628,-0.3608,-0.4221,-0.5708,-0.7476,-0.6545,-0.5363,-0.3875,-0.1506,-0.0486,-0.0255,-0.0255,-0.0947,-0.1745,-0.1316,-0.1725,0.0,0.0,0.0,-0.2913,0.0,0.0,-1.5991,-2.1388,-2.2573,-2.2656,-2.364,-2.3855,-2.4034,-2.4632,-2.4631,-2.4633,-2.4946,-2.5614,-2.5939,-2.5372,-2.583,-2.6134,-2.5849,-2.5861,-2.5919,-2.5955,-2.6141,-2.6436,-2.6881,-2.6531,-2.6545,-2.712,-2.6571,-2.6272,-2.6362,-2.6385,-2.6478,-2.6688,-2.6504,-2.6488,-2.6671,-2.6626,-2.6744,-2.7078,-2.7123,-2.7342,-2.7735,-2.8431,-2.9156,-2.9922,-3.0453,-3.0621,-3.0536,-3.0568,-3.0503,-3.0421,-3.0394,-3.0248,-3.0036,-2.9874,-2.9649,-2.9419,0.0,0.0,0.0,0.0,0.0,0.0,0.0,0.0,0.0,0.0,0.0,0.0,-0.5109,-0.5095,-0.5073,-0.5014,-0.3473,-0.1781,-0.0116,0.0,0.0,0.0,-0.0166,0.0,-0.4823,-0.1849,-0.0248,-0.0244,0.0,0.0,-0.2235,-0.3683,-0.422,-0.3933,-0.4109,-0.4077,-0.3891,0.0,0.0,0.0,-0.6301,-0.7433,-0.7994,-1.243,-1.2454,-0.9471,-0.4321,-0.1816,-0.0947,-0.0947,-0.0997,-0.1156,-0.1755,-0.207,-0.2245,0.0,0.0,0.0,0.0,-0.4826,0.0,-1.7101,-1.869,-1.9344,-2.3364,-2.4266,-2.4284,-2.4321,-2.4303,-2.4284,-2.4184,-2.4801,-2.5347,-2.5312,-2.5579,-2.5839,-2.5804,-2.6015,-2.5978,-2.5424,-2.6008,-2.6255,-2.5667,-2.6151,-2.6502,-2.6538,-2.6395,-2.6362,-2.656,-2.6585,-2.6708,-2.6953,-2.6242,-2.5914,-2.605,-2.5494,-2.5341,-2.5604,-2.5621,-2.6087,-2.6958,-2.693,-2.7415,-2.8313,-2.9904,-3.0599,-3.0587,-3.0536,-3.0384,-3.021,-3.0094,-2.9904,-2.968,-2.9363,-2.9018,-2.8732,0.0,0.0,0.0,0.0,0.0,0.0,0.0,0.0,0.0,0.0,0.0,0.0,0.0,-0.5054,-0.5017,-0.501,-0.2479,-0.0636,-0.0039,0.0,0.0,0.0,0.0,-0.0557,-0.1726,-0.0594,-0.0998,0.0,0.0,-0.439,-0.3693,-0.4135,-0.4205,-0.3963,-0.3991,-0.3898,-0.3689,-0.3357,0.0,-0.3321,-0.6144,-0.837,-0.9995,-0.9911,-1.1948,-1.4631,-1.3096,-0.799,-0.1874,-0.1271,-0.135,-0.1677,-0.1531,-0.1754,-0.2035,-0.1849,-0.167,0.0,0.0,0.0,0.0,-1.5406,-1.8179,-1.9616,-2.364,-2.4428,-2.4284,-2.4284,-2.4284,-2.4303,-2.4247,-2.4392,-2.4491,-2.4359,-2.4446,-2.4509,-2.4509,-2.4599,-2.4641,-2.4592,-2.4811,-2.5127,-2.5579,-2.5356,-2.5374,-2.593,-2.5467,-2.519,-2.5317,-2.5364,-2.5474,-2.5721,-2.5487,-2.5461,-2.5677,-2.5464,-2.5428,-2.5566,-2.5525,-2.5682,-2.6014,-2.6373,-2.6746,-2.714,-2.8067,-2.8859,-2.9438,-2.9224,-2.9384,-2.972,-2.9419,-2.9172,-2.8963,-2.8662,-2.8406,-2.8157,0.0,0.0,0.0,0.0,0.0,0.0,0.0,0.0,0.0,0.0,0.0,0.0,0.0,0.0,-0.4976,-0.4935,-0.2555,-0.0748,-0.0053,0.0,0.0,0.0,0.0,0.0,0.0,0.0,-0.1548,-0.4733,-0.4759,0.0,0.0,-0.442,-0.4242,-0.4034,-0.3941,-0.3773,0.0,-0.3191,-0.2978,-0.324,-0.7115,-0.9259,-1.0141,-1.0276,-1.2723,-1.6129,-1.6394,-1.2205,-0.6414,-0.5646,-0.5675,-0.5699,-0.3753,-0.255,-0.176,-0.1405,0.0,0.0,-0.1313,0.0,0.0,-1.0438,-1.231,-1.464,-2.2836,-2.4564,-2.4445,-2.4445,-2.4444,-2.4461,-2.4442,-2.4355,-2.4229,-2.3999,-2.3999,-2.4001,-2.4001,-2.4002,-2.4118,-2.4337,-2.432,-2.4595,-2.5354,-2.4874,-2.4748,-2.5323,-2.4856,-2.4586,-2.4674,-2.4757,-2.4905,-2.5133,-2.5206,-2.5318,-2.5506,-2.5517,-2.5535,-2.557,-2.5526,-2.5459,-2.539,-2.5754,-2.5928,-2.594,-2.6138,-2.7013,-2.8284,-2.8237,-2.8446,-2.881,-2.8713,-2.8458,-2.812,-2.7822,-2.7543,-2.723,0.0,0.0,0.0,0.0,0.0,0.0,0.0,0.0,0.0,-0.5096,0.0,0.0,0.0,0.0,0.0,-0.4824,-0.3788,-0.2297,-0.0261,-0.0135,-0.0156,-0.0156,-0.0059,0.0,0.0,0.0,-0.1537,-0.4665,-0.4697,-0.466,-0.4587,-0.452,-0.4356,-0.4089,-0.3956,-0.375,-0.3475,-0.3206,-0.3028,-0.3445,-0.9406,-1.0168,-0.8371,-1.4279,-1.554,-1.4114,-1.3642,-1.391,-1.4425,-1.4153,-1.3791,-1.2662,-0.8187,-0.4333,-0.1416,-0.1159,0.0,0.0,0.0,0.0,0.0,-0.2081,-0.0968,-0.4076,-2.027,-2.4332,-2.467,-2.4689,-2.4731,-2.4752,-2.471,-2.4704,-2.462,-2.4356,-2.4373,-2.4407,-2.4407,-2.4456,-2.4554,-2.4697,-2.4712,-2.4756,-2.4902,-2.4799,-2.4712,-2.4712,-2.467,-2.4708,-2.4886,-2.4967,-2.5133,-2.5395,-2.548,-2.5493,-2.5498,-2.5566,-2.5553,-2.5483,-2.5492,-2.5347,-2.5101,-2.5011,-2.4892,-2.4752,-2.4264,-2.5241,-2.7195,-2.755,-2.758,-2.7483,-2.7908,-2.7713,-2.7174,-2.6865,-2.6438,-2.599,0.0,0.0,0.0,0.0,0.0,0.0,0.0,0.0,-0.5086,0.0,0.0,0.0,-0.5089,-0.5047,-0.4973,-0.4882,-0.4548,-0.4034,-0.3298,-0.3523,-0.3689,-0.3689,-0.1327,0.0,0.0,0.0,-0.0439,-0.1335,-0.3637,-0.4656,-0.4452,-0.4443,-0.4251,-0.3956,-0.3862,-0.3704,-0.3475,-0.3206,-0.3215,-0.388,-0.9376,-1.1205,-1.1094,-1.5333,-1.8417,-2.026,-1.8532,-1.617,-1.4251,-1.6907,-1.2184,-0.4784,-0.2457,-0.1253,0.0,-0.0674,-0.073,0.0,-0.0147,0.0,0.0,0.0,0.0,0.0,-0.5909,-1.5571,-2.391,-2.4752,-2.4511,-2.4343,-2.4958,-2.5061,-2.5037,-2.4956,-2.4728,-2.4572,-2.461,-2.4639,-2.4709,-2.4905,-2.4873,-2.496,-2.5234,-2.5182,-2.5126,-2.5134,-2.5111,-2.5099,-2.5118,-2.5233,-2.5371,-2.5542,-2.5552,-2.5542,-2.5506,-2.5524,-2.5414,-2.5205,-2.5158,-2.5061,-2.4877,-2.4504,-2.4279,-2.4118,-2.3462,-2.3458,-2.4015,-2.4712,-2.5394,-2.5982,-2.5403,-2.5227,-2.5251,-2.5162,-2.4893,-2.4579,0.0,0.0,0.0,0.0,0.0,0.0,0.0,-0.5068,-0.5046,0.0,0.0,0.0,-0.4087,-0.4128,-0.4178,-0.4121,-0.4496,-0.441,-0.3599,-0.4021,-0.455,-0.5075,-0.3197,-0.1458,-0.0039,0.0,0.0,-0.0,-0.187,-0.3363,-0.4441,-0.4358,-0.4182,-0.3941,0.0,0.0,0.0,-0.3177,-0.3139,-0.3752,-0.9339,-1.2095,-1.3132,-1.5864,-1.7844,-1.9229,-1.9383,-1.792,-1.6523,-2.0557,-1.5746,-0.7645,-0.5401,-0.2338,0.0429,0.0388,-0.0104,0.0,0.0,0.0,0.0,-0.112,0.0,0.0,-0.4831,-1.3445,-2.1722,-2.4509,-2.4752,-2.4648,-2.5168,-2.5284,-2.5303,-2.5367,-2.5156,-2.4965,-2.4953,-2.4977,-2.5042,-2.5147,-2.5137,-2.5177,-2.5378,-2.536,-2.5341,-2.5341,-2.5341,-2.5351,-2.5322,-2.5425,-2.5532,-2.5593,-2.5564,-2.5546,-2.5492,-2.5383,-2.524,-2.5071,-2.4954,-2.4774,-2.4498,-2.4007,-2.3653,-2.3418,-2.2718,-2.2312,-2.2122,-2.2502,-2.3363,-2.4384,-2.3959,-2.3819,-2.3869,-2.4139,-2.3766,-2.3195,0.0,0.0,0.0,0.0,0.0,0.0,0.0,-0.4755,-0.4792,0.0,-0.4989,-0.4426,-0.2936,-0.3031,-0.3228,-0.3231,-0.4125,-0.4078,-0.2625,-0.3079,-0.3921,-0.5055,-0.4985,-0.3557,-0.0622,-0.0194,0.0,0.0,0.0,-0.1466,-0.4255,-0.4205,-0.4111,-0.3977,0.0,0.0,0.0,-0.3138,-0.3177,-0.3894,-0.9151,-1.2519,-1.4551,-1.6122,-1.5902,-1.5175,-1.8384,-1.9228,-1.9454,-2.3386,-2.1133,-1.6131,-1.2794,-0.6027,0.0761,0.1214,0.0821,0.0,0.0,0.0,0.0,-0.0026,-0.1162,0.0,-1.0305,-1.5255,-1.979,-2.4298,-2.5138,-2.5129,-2.539,-2.5421,-2.5472,-2.5589,-2.5551,-2.5468,-2.536,-2.5387,-2.5412,-2.5412,-2.5412,-2.5374,-2.5297,-2.5277,-2.5219,-2.5134,-2.5213,-2.5277,-2.5343,-2.5496,-2.5583,-2.5595,-2.5527,-2.5466,-2.5449,-2.5208,-2.5042,-2.4929,-2.4774,-2.4463,-2.3983,-2.3515,-2.3081,-2.2642,-2.2062,-2.1569,-2.1158,-2.0894,-2.1504,-2.263,-2.298,-2.2863,-2.2639,-2.3274,-2.2732,-2.1768,0.0,0.0,0.0,0.0,0.0,0.0,0.0,0.0,-0.3454,-0.475,-0.4919,-0.4786,-0.4466,-0.416,-0.4172,-0.4653,-0.4641,-0.4592,-0.4545,-0.4661,-0.4844,-0.5091,-0.4222,-0.3845,-0.4101,-0.1399,0.0,0.0,0.0,-0.0933,-0.2745,-0.3686,-0.4013,-0.3839,-0.3689,0.0,0.0,-0.3154,-0.4758,-0.7449,-0.8185,-1.1081,-1.5142,-1.6895,-1.8658,-2.0372,-2.1746,-2.0115,-1.7516,-1.867,-1.8325,-1.6767,-1.3101,-0.8788,-0.4439,-0.1199,0.0709,0.1512,0.032,-0.0665,-0.1147,-0.0235,-0.0254,0.0,-0.3988,-1.4733,-2.4385,-2.5341,-2.4419,-2.3876,-2.5305,-2.5557,-2.5577,-2.5595,-2.5586,-2.5576,-2.5551,-2.5551,-2.5551,-2.5551,-2.5551,-2.5299,-2.4581,-2.4502,-2.4211,-2.3431,-2.3985,-2.4384,-2.4443,-2.5084,-2.5469,-2.5529,-2.5449,-2.5324,-2.5101,-2.505,-2.4854,-2.4519,-2.4227,-2.3833,-2.3365,-2.2828,-2.2346,-2.1871,-2.135,-2.0878,-2.0469,-2.0143,-2.0342,-2.084,-2.062,-2.0507,-2.0548,-2.0941,-2.0768,-2.0349,0.0,0.0,0.0,0.0,0.0,0.0,0.0,0.0,-0.2113,-0.4539,-0.3457,-0.2459,-0.2459,-0.2851,-0.3504,-0.4509,-0.4624,-0.4743,-0.493,-0.5044,-0.5098,-0.5092,-0.4557,-0.4524,-0.509,-0.3416,-0.2539,-0.2539,-0.0827,-0.1132,-0.3318,-0.3952,-0.4157,-0.399,-0.3716,-0.358,-0.3528,-0.3128,-0.3753,-0.5178,-0.7004,-1.1779,-1.7891,-1.8806,-2.0205,-2.1764,-2.2197,-2.1318,-1.9978,-2.0138,-2.0824,-2.0811,-1.6425,-1.2448,-0.8585,-0.4416,-0.1534,0.0276,0.0137,-0.0342,-0.0945,-0.1552,-0.1146,0.0,0.0,-0.7643,-1.463,-1.8464,-1.853,-1.8185,-1.9055,-1.9211,-1.9211,-1.9211,-1.9887,-2.1626,-2.5118,-2.5247,-2.4994,-2.4994,-2.462,-2.4187,-2.3739,-2.3696,-2.3508,-2.304,-2.3332,-2.3739,-2.4179,-2.458,-2.495,-2.5293,-2.5243,-2.5111,-2.4892,-2.4733,-2.4479,-2.4155,-2.3692,-2.3257,-2.277,-2.2118,-2.1526,-2.1037,-2.0567,-2.0089,-1.9717,-1.9624,-1.9536,-1.9471,-1.9551,-1.9639,-1.9698,-2.0205,-1.9996,-1.9448,-0.5106,0.0,0.0,0.0,0.0,0.0,0.0,0.0,-0.0933,-0.3531,-0.3901,-0.3905,-0.3905,-0.4245,-0.4967,-0.614,-0.591,-0.5748,-0.5841,-0.5588,-0.543,-0.5422,-0.4911,-0.4604,-0.4599,-0.4914,-0.5085,-0.5089,-0.2309,-0.2129,-0.4371,-0.4334,-0.4263,-0.4166,-0.373,-0.3585,0.0,-0.3093,-0.2887,-0.3273,-0.7462,-1.3706,-2.0425,-1.9743,-2.0327,-2.1463,-2.1472,-2.2025,-2.2764,-2.2773,-2.3886,-2.4609,-2.076,-1.7194,-1.3733,-1.0282,-0.6617,-0.3179,-0.0849,-0.0273,-0.0705,-0.2314,-0.2161,-0.1335,0.0,0.0,0.0,-0.9121,-1.0363,-1.0338,-1.0338,-1.0338,-1.0882,-1.2534,-1.4157,-1.7397,-2.3652,-2.3181,-2.2665,-2.3987,-2.3519,-2.3031,-2.2933,-2.272,-2.2593,-2.2557,-2.2513,-2.291,-2.3845,-2.4033,-2.4404,-2.5018,-2.4988,-2.4828,-2.4628,-2.4366,-2.4044,-2.3671,-2.317,-2.2634,-2.2068,-2.1437,-2.0799,-2.0196,-1.9808,-1.9406,-1.9026,-1.9101,-1.8784,-1.8333,-1.9026,-1.9265,-1.9286,-1.973,-1.9392,-1.8648,-0.5095,-0.5098,0.0,0.0,0.0,0.0,0.0,0.0,-0.0128,-0.0494,-1.0734,-1.7984,-1.7984,-1.5272,-1.3578,-1.3917,-1.1106,-0.9387,-0.9583,-0.7717,-0.6602,-0.6601,-0.4224,-0.2861,-0.2796,-0.4244,-0.5016,-0.5003,-0.4626,-0.4505,-0.4638,-0.418,-0.4006,-0.409,-0.3569,-0.3273,-0.3175,-0.3156,-0.5013,-0.8328,-1.2374,-1.6603,-2.0157,-1.7063,-1.787,-2.0645,-2.0646,-2.1208,-2.1972,-2.2207,-2.3086,-2.4187,-2.4673,-2.3861,-2.2643,-2.2219,-1.6911,-0.98,-0.3464,-0.18,-0.1583,-0.0488,-0.1691,-0.2599,-0.0478,0.0,-0.0404,-0.1289,0.0,-0.1457,-0.1457,0.0,0.0,-1.1563,-1.4157,-1.6495,-2.02,-1.6965,-1.6465,-2.2522,-2.3119,-2.2811,-2.2342,-2.1383,-2.0741,-2.0636,-2.0671,-2.1313,-2.2717,-2.3458,-2.4148,-2.481,-2.478,-2.4487,-2.4007,-2.3949,-2.3569,-2.2818,-2.2452,-2.1843,-2.0989,-2.0959,-2.0416,-1.9508,-1.9288,-1.8974,-1.863,-1.8355,-1.7907,-1.7517,-1.8577,-1.8798,-1.8556,-1.823,-1.7976,-1.776,-0.504,-0.5044,0.0,0.0,0.0,0.0,0.0,0.0,0.0,0.0,-0.4982,-0.9189,-1.0937,-1.2205,-1.267,-1.2001,-1.0052,-0.9163,-0.9915,-0.9215,-0.789,-0.5898,-0.4686,-0.2637,0.0392,-0.3085,-0.4488,-0.3547,-0.4567,-0.4956,-0.4747,-0.4336,-0.4238,-0.4423,-0.3895,-0.4598,-0.6187,-0.6505,-0.6207,-0.6078,-1.2181,-1.6992,-2.033,-1.8873,-1.9208,-2.0447,-2.0449,-2.0988,-2.1773,-2.2314,-1.9604,-1.7076,-2.3191,-1.8229,-1.1458,-1.8254,-1.6444,-1.0929,-0.4903,-0.4657,-0.5471,-0.2794,-0.1739,-0.1125,-0.0212,0.0,0.0,0.0,0.0,0.0,0.0,0.0,0.0,0.0,-0.5936,-0.9598,-1.8816,-1.5009,-1.4198,-2.2042,-1.8624,-1.7084,-2.0792,-2.0191,-1.9733,-2.0141,-1.9663,-2.0041,-2.1585,-2.24,-2.3107,-2.379,-2.4076,-2.3986,-2.344,-2.3244,-2.2783,-2.2122,-2.1778,-2.1348,-2.0847,-2.0434,-1.9879,-1.9213,-1.8936,-1.8461,-1.7881,-1.7706,-1.7244,-1.6744,-1.7409,-1.7626,-1.7476,-1.7312,-1.7353,-1.7407,-0.4971,0.0,0.0,0.0,0.0,0.0,0.0,-0.2045,-0.1106,-0.0732,-0.049,-0.1736,-0.5392,-0.9923,-1.2324,-1.1403,-1.098,-1.1303,-1.2621,-1.0266,-0.8645,-0.8264,-0.5339,-0.2381,0.0456,-0.1686,-0.2949,-0.3151,-0.4418,-0.4987,-0.4875,-0.4607,-0.4549,-0.461,-0.3991,-0.7166,-1.2971,-1.2376,-1.0641,-0.8717,-1.3135,-1.7122,-2.0441,-2.0479,-2.0424,-2.0373,-2.0367,-2.0899,-2.1745,-2.2636,-1.9151,-1.522,-1.9809,-1.4502,-0.7812,-1.4102,-1.4958,-1.2762,-0.7822,-0.6806,-0.6479,-0.3705,-0.1457,0.0061,0.0012,0.0,0.0,0.0,0.0,0.0,0.0,0.0,0.0,0.0,0.0,-0.4069,-1.5723,-1.1563,-1.0341,-1.844,-1.2345,-1.0868,-1.9536,-1.9244,-1.8792,-1.9475,-1.883,-1.9168,-2.0954,-2.155,-2.2237,-2.3143,-2.3456,-2.3365,-2.286,-2.2608,-2.2139,-2.1467,-2.1132,-2.0814,-2.0565,-1.9844,-1.9207,-1.8693,-1.8305,-1.776,-1.7146,-1.698,-1.6587,-1.6071,-1.6244,-1.6244,-1.6145,-1.6348,-1.6562,-1.6689,-0.49,-0.4954,0.0,0.0,-0.4886,-0.4831,-0.4733,-0.4514,-0.3889,-0.2589,-0.1738,-0.3253,-0.8473,-1.3065,-1.574,-1.5705,-1.679,-1.8213,-1.9942,-1.0776,-0.854,-1.59,-0.5919,-0.1595,-0.4695,-0.008,0.0,-0.4816,-0.4888,-0.4974,-0.5086,-0.5005,-0.4809,-0.4473,-0.3608,-1.1214,-2.4446,-2.1139,-2.0345,-2.0992,-1.7398,-1.7695,-2.0299,-2.0371,-2.0351,-2.0292,-2.0302,-2.0855,-2.1811,-2.3141,-2.4118,-2.3389,-1.5113,-1.7431,-2.1803,-1.4419,-1.5127,-1.741,-1.3341,-0.7437,-0.2188,-0.1236,-0.049,0.0003,0.0001,0.0,0.0,0.0,0.0,0.0,0.0,0.0,0.0,0.0,0.0,0.0,0.0,-0.4589,-0.2853,-0.9708,-0.4486,-0.5586,-1.8998,-1.8622,-1.7687,-1.8034,-1.7988,-1.888,-2.1067,-2.1154,-2.1822,-2.333,-2.3023,-2.2634,-2.2245,-2.2211,-2.179,-2.091,-2.0503,-2.0128,-1.9711,-1.9035,-1.8383,-1.772,-1.716,-1.6795,-1.6509,-1.6163,-1.5856,-1.5591,-1.5277,-1.488,-1.4558,-1.5219,-1.5374,-1.5184,0.0,0.0,0.0,0.0,-0.495,-0.4868,-0.4755,-0.4684,-0.5704,-0.8672,-0.997,-1.1253,-1.2929,-1.4941,-1.6191,-1.6297,-1.6483,-1.7663,-2.0166,-1.4509,-1.1358,-1.1999,-1.2502,-1.1037,-0.7327,-0.191,0.0332,-0.0796,-0.2434,-0.3297,-0.3388,-0.3411,-0.3953,-0.4828,-0.301,-0.7668,-1.6907,-1.7614,-1.899,-2.0604,-1.9349,-1.8264,-1.7592,-1.9574,-2.0288,-2.0237,-2.0229,-2.077,-2.1587,-2.2503,-2.3774,-2.4423,-2.1237,-2.2033,-2.3602,-2.0904,-2.0825,-2.1263,-1.9562,-1.7381,-1.3106,-0.2869,-0.3959,-0.6223,-0.1158,0.0,0.0,0.0,0.0,0.0,0.0,0.0,0.0,0.0,0.0,-0.0803,0.0,-0.1453,-0.0841,-0.3136,-0.1396,-0.1803,-0.6417,-1.0359,-1.4008,-1.742,-1.7519,-1.8048,-1.9482,-2.0191,-2.0424,-2.0159,-2.2025,-2.2583,-2.1736,-2.1224,-2.0636,-1.9984,-1.939,-1.8896,-1.8574,-1.8013,-1.7395,-1.6714,-1.6667,-1.6466,-1.6163,-1.5856,-1.5546,-1.5232,-1.5153,-1.4834,-1.4419,-1.4514,-1.4215,-1.3758,-0.4402,-0.4155,-0.4214,-0.485,-0.4921,-0.485,-0.4728,-0.4561,-0.6147,-1.0859,-1.2378,-1.3275,-1.394,-1.5293,-1.6191,-1.6278,-1.7043,-1.7916,-1.8813,-1.7233,-1.4966,-1.2067,-1.6748,-1.6483,-1.0135,-0.3428,0.0279,0.0836,-0.0763,-0.1577,-0.161,-0.166,-0.2247,-0.3353,-0.4765,-0.8015,-1.2711,-1.6932,-1.9582,-2.0878,-2.0419,-1.9273,-1.8062,-1.9888,-1.9781,-1.8794,-1.9819,-2.0661,-2.142,-2.2154,-2.3251,-2.4302,-2.4242,-2.4155,-2.4058,-2.3878,-2.3477,-2.3032,-2.2712,-2.2409,-1.9841,-1.0018,-0.927,-0.9021,-0.1668,0.0,-0.1247,-0.566,-0.3077,-0.0677,-0.2892,-0.1496,0.0,0.0,0.0,0.0,0.0,0.0,0.0,0.0,0.0,-0.1675,-0.592,-0.643,-0.9597,-1.7037,-1.7135,-1.7292,-1.8311,-1.9324,-1.9521,-1.8762,-2.0925,-2.1886,-2.1428,-2.0304,-1.9743,-1.9782,-1.8765,-1.78,-1.6983,-1.7066,-1.6634,-1.5872,-1.5864,-1.5611,-1.5119,-1.4937,-1.4766,-1.4593,-1.4971,-1.464,-1.3941,-1.3931,-1.3409,-1.2745,-0.3545,-0.291,-0.3023,-0.4622,-0.49,-0.485,-0.4728,-0.4473,-0.5698,-0.963,-0.9637,-1.0092,-1.2243,-1.4726,-1.6222,-1.6128,-1.8688,-1.922,-1.6664,-1.8679,-1.8832,-1.631,-1.8268,-1.7475,-1.3327,-0.5161,-0.0643,0.0,0.0,0.0,0.0,0.0,0.0,-0.0349,-0.8222,-1.1746,-1.2197,-1.9276,-2.2311,-2.2205,-2.0735,-2.0547,-2.1177,-2.1142,-1.901,-1.6375,-1.9197,-2.0608,-2.1273,-2.2143,-2.2862,-2.3456,-2.3805,-2.3909,-2.381,-2.3356,-2.308,-2.2917,-2.2883,-2.2375,-2.1721,-2.137,-1.5918,-0.8942,-0.2467,-0.0824,-0.397,-1.5651,-0.8702,-0.2417,-0.8602,-0.491,-0.0717,-0.0098,0.0,0.0,0.0,0.0,0.0,0.0,-0.0436,-0.4992,-1.5863,-0.7143,-0.5402,-1.6486,-1.6661,-1.6707,-1.7776,-1.8636,-1.9124,-1.922,-1.9923,-2.0579,-2.1197,-1.9534,-1.9192,-2.02,-1.863,-1.6879,-1.5198,-1.6244,-1.6164,-1.5184,-1.4858,-1.4294,-1.3621,-1.3621,-1.3621,-1.3705,-1.464,-1.4258,-1.3132,-1.342,-1.29,-1.2076,-0.4299,-0.4365,-0.4374,-0.4765,-0.482,-0.4789,-0.4719,-0.6849,-1.0018,-1.4367,-1.6274,-1.7727,-1.9003,-2.0357,-2.0651,-1.9352,-1.9884,-2.0012,-1.9325,-1.765,-1.7376,-1.8916,-1.659,-1.6058,-1.7839,-1.5556,-0.9643,0.0,0.0,0.0,0.0,0.0,0.0,-0.0202,-0.4673,-0.667,-0.7427,-1.8841,-2.2768,-2.1242,-2.0847,-1.9582,-1.8194,-2.0841,-1.9994,-1.7754,-2.0587,-2.1706,-2.1966,-2.2731,-2.3084,-2.3282,-2.3859,-2.3999,-2.3901,-2.3588,-2.3277,-2.3014,-2.2815,-2.2303,-2.1691,-2.115,-1.9555,-1.7602,-1.5557,-1.2479,-1.0347,-1.1452,-0.9738,-0.9684,-1.5147,-1.4836,-1.0734,-0.1503,0.0,0.0,0.0,0.0,0.0,0.0,-0.6519,-0.9302,-0.4982,-0.9107,-1.1648,-1.0656,-1.4446,-1.7158,-1.7973,-1.8659,-1.9113,-1.933,-1.9967,-2.015,-1.9874,-1.9011,-1.8745,-1.908,-1.7733,-1.6655,-1.5925,-1.5623,-1.54,-1.5073,-1.4247,-1.38,-1.3621,-1.3621,-1.3621,-1.361,-1.3894,-1.361,-1.3035,-1.2657,-1.2264,-1.1977,-0.4635,-0.4875,-0.5357,-0.663,-0.8073,-0.8591,-0.7226,-0.7271,-0.9687,-1.5897,-1.6687,-1.7329,-1.9096,-2.0772,-2.1372,-2.0399,-2.0275,-1.9766,-1.8569,-1.7844,-1.7684,-1.8191,-1.7001,-1.7349,-1.9503,-1.9462,-1.4434,-0.4243,-0.1396,0.0,0.0,0.0,0.0,-0.0073,-0.1903,-0.4288,-0.7666,-1.8794,-2.2221,-2.0247,-2.0709,-2.0164,0.0,-2.1633,-2.1749,-2.0891,-2.2386,-2.2757,-2.2598,-2.3021,-2.3306,-2.351,-2.3632,-2.3649,-2.3522,-2.3129,-2.29,-2.2695,-2.2385,-2.1936,-2.1462,-2.0975,-2.0763,-2.0563,-2.0357,-1.8322,-1.5891,-1.3841,-1.3423,-1.4375,-1.7394,-1.6028,-1.1282,-0.1574,0.0,0.0,0.0,0.0,0.0,0.0,-0.4232,-0.4724,0.1452,-0.5914,-1.0617,-0.95,-1.2925,-1.4993,-1.479,-1.7267,-1.865,-1.8523,-1.8996,-1.9159,-1.9003,-1.7955,-1.7299,-1.7136,-1.7008,-1.6527,-1.5703,-1.4387,-1.3779,-1.3779,-1.318,-1.2939,-1.2939,-1.2939,-1.2939,-1.2939,-1.2939,-1.2842,-1.2608,-1.2224,-1.1868,-1.1551,-0.4715,-0.4729,-0.5625,-0.8396,-1.164,-1.3135,-1.0957,-0.851,-0.9335,-1.609,-1.5015,-1.4481,-1.6739,-1.8981,-2.0277,-2.0171,-2.0162,-1.9153,-1.6823,-1.8734,-1.8887,-1.6495,-1.8488,-1.9625,-1.9499,-1.9532,-1.6724,-1.0966,-0.36,0.0,0.0,0.0,0.0,0.0,0.0,-0.3571,-1.0102,-1.7664,-2.0362,-1.9585,-2.0544,-2.141,-2.2163,-2.2793,-2.3511,-2.4135,-2.3958,-2.358,-2.3179,-2.3179,-2.3491,-2.3795,-2.3277,-2.3093,-2.2989,-2.2453,-2.2293,-2.2209,-2.1827,-2.1493,-2.115,-2.0877,-2.0561,-2.0304,-2.027,-2.022,-1.994,-1.8921,-1.7679,-1.6834,-1.712,-1.2565,-0.702,-0.1662,-0.0784,-0.079,-0.0789,-0.0782,-0.0591,-0.0064,0.0348,0.0,0.4413,-0.0764,-0.5862,-0.9646,-1.1197,-1.1592,-1.0699,-1.3979,-1.6378,-1.7403,-1.7725,-1.802,-1.8278,-1.6691,-1.561,-1.5108,-1.6324,-1.6139,-1.464,-1.289,-1.2076,-1.2076,-1.2076,-1.2076,-1.2076,-1.2076,-1.2076,-1.2076,-1.2026,-1.1977,-1.1977,-1.1977,-1.1501,-1.0922,-0.4682,-0.4065,-0.3955,-0.5376,-0.8297,-1.1238,-1.3523,-1.8102,-2.0594,-1.8686,-2.0376,-2.1455,-2.0664,-2.0793,-2.0709,-2.0088,-1.9928,-1.9673,-1.9193,-1.9541,-1.9543,-1.9058,-1.9363,-1.9513,-1.9499,-1.9405,-1.8783,-1.7633,-0.5786,0.0,0.0,0.0,0.0,0.0,0.0,-0.3359,-0.9171,-1.1061,-1.5252,-2.0642,-2.1002,-2.1504,-2.2111,-2.2874,-2.3249,-2.3374,-2.3346,-2.3414,-2.3518,-2.3518,-2.3396,-2.3236,-2.3141,-2.3105,-2.2975,-2.2402,-2.2209,-2.2096,-2.1538,-2.115,-2.0877,-2.0827,-2.0561,-2.027,-2.015,-1.9889,-1.9479,-1.8968,-1.7667,-1.6571,-1.6401,-1.1013,-0.6199,-0.5119,-0.4951,-0.4953,-0.4947,-0.4947,-0.3719,-0.0391,-0.6253,-0.6593,0.3549,-0.0147,-0.3348,-0.3723,-0.6733,-0.9421,-1.1383,-0.6223,-0.7673,-1.7408,-1.7724,-1.7495,-1.7014,-1.5831,-1.518,-1.5108,-1.5367,-1.4468,-1.2598,-1.2264,-1.2076,-1.2076,-1.2076,-1.2076,-1.2076,-1.2076,-1.2076,-1.2076,-1.1619,-1.1427,-1.1427,-1.1427,-1.0897,-1.0167,-0.2585,-0.3248,-0.5287,-0.9115,-1.0137,-1.2115,-1.7099,-2.1727,-2.3177,-1.9086,-1.9573,-1.9886,-1.8715,-1.965,-2.0231,-1.9881,-1.9793,-1.9744,-1.9744,-1.965,-1.9612,-1.9612,-1.9476,-1.9361,-1.9253,-1.918,-1.9198,-1.9305,-0.9717,-0.3306,0.0,0.0,0.0,-0.0065,0.0,-0.6437,-1.3481,-1.2822,-1.5547,-2.0359,-2.1224,-2.1715,-2.2042,-2.2847,-2.317,-2.317,-2.317,-2.3146,-2.3146,-2.3277,-2.323,-2.3098,-2.2925,-2.2773,-2.2546,-2.2124,-2.1866,-2.1642,-2.1182,-2.0909,-2.0728,-2.0494,-2.017,-1.9854,-1.9767,-1.9391,-1.8968,-1.8511,-1.7543,-1.644,-1.5327,-0.9761,-0.6171,-0.8757,-0.9154,-0.918,-0.916,-0.9158,-0.8298,-0.5938,-0.7574,-0.6332,0.0233,0.0626,-0.0042,-0.1278,-0.3496,-0.5748,-0.7957,-0.791,-1.0743,-1.7073,-1.6931,-1.6522,-1.5967,-1.4817,-1.45,-1.5108,-1.4014,-1.3025,-1.2076,-1.2076,-1.2076,-1.2076,-1.2076,-1.2076,-1.2076,-1.1778,-1.1678,-1.1678,-1.1427,-1.1326,-1.1326,-1.1326,-1.0285,-0.904,-0.3017,-0.4626,-0.8181,-1.4344,-1.4027,-1.462,-1.9711,-2.2701,-2.31,-1.9578,-1.8542,-1.7778,-1.681,-1.8444,-1.9625,-1.9663,-1.9638,-1.9612,-1.9612,-1.9472,-1.9327,-1.9142,-1.9164,-1.9024,-1.8694,-1.8841,-1.8983,-1.9097,-1.2777,-0.6374,0.0,0.0,-0.1691,-0.4831,-0.712,-1.1968,-1.8358,-1.7095,-1.7882,-2.0125,-2.1348,-2.1829,-2.195,-2.2658,-2.2841,-2.273,-2.2798,-2.2634,-2.2419,-2.26,-2.2789,-2.2884,-2.2588,-2.2309,-2.1994,-2.1645,-2.137,-2.1055,-2.0712,-2.0628,-2.0527,-2.0065,-1.9696,-1.9457,-1.9258,-1.8855,-1.8433,-1.8028,-1.7286,-1.6046,-1.375,-0.9631,-0.7639,-1.0822,-1.1766,-1.2054,-1.1975,-1.1976,-1.1751,-1.1067,-0.7856,-0.4874,-0.2732,0.0604,0.1901,0.0129,-0.15,-0.2944,-0.4147,-1.1136,-1.5478,-1.6348,-1.5978,-1.556,-1.5182,-1.4017,-1.3799,-1.4444,-1.2832,-1.2076,-1.2076,-1.2076,-1.2076,-1.2076,-1.2076,-1.1769,-1.115,-1.0744,-1.06,-1.06,-1.06,-1.06,-1.06,-1.06,-0.9458,-0.8055,-1.0818,-1.1104,-1.2334,-1.7805,-1.8633,-1.8728,-1.9344,-2.2157,-2.3638,-2.2037,-2.1648,-2.0984,-1.9495,-1.9342,-1.9376,-1.9499,-1.9405,-1.9335,-1.9335,-1.9162,-1.8719,-1.7993,-1.8466,-1.8414,-1.7665,-1.8305,-1.8548,-1.8397,-1.2561,-0.6374,0.0,0.0,-0.7239,-2.023,-2.0491,-2.0576,-2.0526,-2.0611,-2.0811,-2.1087,-2.1421,-2.164,-2.1857,-2.2231,-2.1986,-2.1507,-2.1794,-2.1705,-2.1415,-2.1305,-2.1761,-2.2321,-2.2003,-2.1794,-2.1521,-2.091,-2.0648,-2.0514,-2.0166,-2.0061,-1.999,-1.9566,-1.9442,-1.9295,-1.8769,-1.8344,-1.8028,-1.7828,-1.6976,-1.5157,-1.1502,-1.1889,-1.188,-0.9186,-1.0613,-1.1967,-1.1621,-1.1579,-1.15,-1.1306,-0.9907,-0.728,-0.3014,-0.1314,0.0189,0.1816,-0.1421,-0.3209,-0.2647,-1.0537,-1.5085,-1.5005,-1.5119,-1.5017,-1.4665,-1.3949,-1.3199,-1.2363,-1.2175,-1.2076,-1.2076,-1.2076,-1.2076,-1.2076,-1.2076,-1.0635,-0.8315,-0.8215,-0.8215,-0.8215,-0.8215,-0.8215,-0.8215,-0.8215,-0.8109,-0.7901,-1.1833,-1.4059,-1.717,-2.1451,-2.206,-2.1954,-2.1989,-2.3122,-2.3375,-2.1753,-2.1729,-2.1224,-1.9464,-1.9175,-1.9113,-1.9081,-1.8981,-1.8948,-1.8948,-1.8843,-1.8628,-1.8289,-1.8501,-1.8425,-1.7993,-1.8233,-1.827,-1.8061,-1.5694,-1.3763,-1.2179,-1.2179,-1.3189,-1.5033,-1.6451,-1.8182,-1.9947,-1.897,-1.9353,-2.0652,-2.118,-2.144,-2.1524,-2.1661,-2.1524,-2.1308,-2.1354,-2.1275,-2.1181,-2.1086,-2.1275,-2.1538,-2.1354,-2.115,-2.0894,-2.0614,-2.0361,-2.0185,-2.0025,-1.9797,-1.9566,-1.9332,-1.8907,-1.8486,-1.8187,-1.7666,-1.7214,-1.7131,-1.6454,-1.5142,-1.2792,-1.1799,-1.1176,-1.0702,-0.947,-0.9193,-1.1031,-1.1122,-1.0927,-1.0713,-0.9925,-0.847,-0.6068,-0.5408,-0.4493,-0.306,-0.2343,-0.3371,-0.6601,-1.0923,-1.3826,-1.4949,-0.776,-0.6763,-1.2782,-1.2579,-1.2255,-1.1909,-1.2026,-1.2076,-1.2076,-1.2076,-1.12,-0.9607,-0.9607,-0.8935,-0.7901,-0.7901,-0.7901,-0.7901,-0.7901,-0.7901,-0.7901,-0.7901,-0.7901,-0.7901,-1.4352,-1.6762,-2.0211,-2.3914,-2.4081,-2.371,-2.3774,-2.3692,-2.3009,-2.1266,-2.1327,-2.088,-1.9127,-1.8912,-1.886,-1.8789,-1.8715,-1.8678,-1.8678,-1.8566,-1.8403,-1.8174,-1.8307,-1.8226,-1.7838,-1.8,-1.8073,-1.8047,-1.8044,-1.8049,-1.8081,-1.9615,-1.779,-1.3365,-1.499,-1.731,-1.9906,-1.8582,-1.8956,-2.0489,-2.1004,-2.1166,-2.1071,-2.1166,-2.1071,-2.0926,-2.0926,-2.0862,-2.0764,-2.0681,-2.0665,-2.0715,-2.0829,-2.0599,-2.0261,-2.0158,-1.9859,-1.9545,-1.9545,-1.9347,-1.9072,-1.8869,-1.8277,-1.7733,-1.7544,-1.7018,-1.6509,-1.6411,-1.5976,-1.5175,-1.3847,-1.2204,-1.1236,-1.1797,-0.965,-0.8673,-1.0803,-1.0768,-1.025,-0.9584,-0.8758,-0.8193,-0.8027,-0.7765,-0.7291,-0.6477,-0.413,-0.4711,-0.9188,-1.0311,-1.1872,-1.4133,-0.5628,-0.4502,-1.1774,-1.1678,-1.1669,-1.1859,-1.161,-1.161,-1.1828,-1.115,-0.9755,-0.7901,-0.7901,-0.7901,-0.7901,-0.7901,-0.7901,-0.7901,-0.7901,-0.7901,-0.7901,-0.7901,-0.7901,-0.7901,-2.0318,-1.989,-2.0648,-2.4669,-2.4465,-2.3692,-2.3692,-2.3414,-2.2663,-2.1104,-2.0909,-2.0365,-1.8967,-1.8752,-1.8715,-1.8715,-1.8623,-1.8604,-1.8604,-1.841,-1.7942,-1.7138,-1.7624,-1.7543,-1.6733,-1.7422,-1.7987,-1.8392,-1.8519,-1.6604,-1.289,-1.7955,-2.0465,-2.0767,-2.0749,-2.083,-2.1086,-2.0991,-2.0959,-2.0991,-2.0991,-2.0812,-2.0548,-2.0862,-2.0597,-2.0061,-2.0395,-2.0292,-1.999,-1.9869,-1.9797,-1.9904,-2.0345,-2.0143,-1.9621,-1.9303,-1.8869,-1.85,-1.85,-1.85,-1.8383,-1.7908,-1.7571,-1.7188,-1.6795,-1.6436,-1.61,-1.568,-1.5591,-1.5175,-1.3847,-1.3852,-1.345,-1.1592,-1.1695,-1.1795,-1.1202,-1.0489,-0.9426,-0.7813,-0.6453,-0.6254,-0.7849,-0.7341,-0.6754,-0.6441,-0.6826,-0.7626,-0.8758,-0.8218,-0.9172,-1.2043,-1.1984,-1.1984,-1.2076,-1.1578,-1.1569,-1.2076,-1.0685,-1.049,-1.1217,-0.8995,-0.7955,-0.7901,-0.7901,-0.7901,-0.7901,-0.7901,-0.7901,-0.7901,-0.7901,-0.7901,-0.7901,-0.7901,-0.7901,-0.7901,-2.2493,-2.2144,-2.2289,-2.3837,-2.3588,-2.3146,-2.3146,-2.3074,-2.2366,-2.0644,-2.0413,-1.9866,-1.8419,-1.8368,-1.8371,-1.8225,-1.8163,-1.8125,-1.8125,-1.8035,-1.7829,-1.7586,-1.7742,-1.7952,-1.8183,-1.8208,-1.8526,-1.9161,-1.9204,-1.8706,-1.7775,-1.8679,-1.9504,-2.0258,-1.9777,-1.9857,-2.0342,-2.0342,-2.0308,-2.0308,-2.0308,-2.0239,-2.0185,-2.0289,-2.0185,-1.999,-2.001,-1.996,-1.9812,-1.9435,-1.9325,-1.931,-1.9169,-1.9207,-1.9221,-1.8831,-1.8616,-1.85,-1.85,-1.8094,-1.7639,-1.7489,-1.6736,-1.6074,-1.6305,-1.6044,-1.5691,-1.5334,-1.5232,-1.4915,-1.3705,-1.361,-1.3273,-1.1804,-1.1539,-1.13,-1.0551,-1.0179,-0.9589,-0.8466,-0.7709,-0.7361,-0.7589,-0.7382,-0.7152,-0.6969,-0.7109,-0.7505,-0.8127,-0.8383,-0.9444,-1.1484,-1.1569,-1.1569,-1.1569,-1.1377,-1.1377,-1.1528,-1.1108,-1.0233,-0.8935,-0.8215,-0.7901,-0.7901,-0.7901,-0.7901,-0.7901,-0.7901,-0.7901,-0.7901,-0.7901,-0.7901,-0.7901,-0.7901,-0.7681,-0.7359,-2.323,-2.32,-2.3177,-2.3346,-2.2794,-2.2464,-2.278,-2.2237,-2.1395,-2.0279,-1.9879,-1.9226,-1.7924,-1.7888,-1.7932,-1.7816,-1.7749,-1.7664,-1.7572,-1.7526,-1.7519,-1.7519,-1.7745,-1.8087,-1.8543,-1.8595,-1.8909,-1.9495,-1.9641,-1.9816,-2.0041,-1.9379,-1.9409,-1.999,-1.9531,-1.9526,-1.9919,-1.9884,-1.9812,-1.9669,-1.9669,-1.9581,-1.9435,-1.9435,-1.9435,-1.942,-1.9347,-1.931,-1.9273,-1.8974,-1.886,-1.8784,-1.8383,-1.8422,-1.8553,-1.8305,-1.8108,-1.7988,-1.7988,-1.7505,-1.6993,-1.7066,-1.6195,-1.5458,-1.5704,-1.5513,-1.5187,-1.4971,-1.4777,-1.4351,-1.3409,-1.3084,-1.2626,-1.1783,-1.1427,-1.0976,-1.0112,-0.9787,-0.9182,-0.8062,-0.752,-0.707,-0.6627,-0.6608,-0.6859,-0.743,-0.6568,-0.6542,-0.7829,-0.8069,-0.9134,-1.125,-1.1326,-1.1326,-1.1326,-1.1326,-1.1326,-1.1267,-1.0446,-0.9302,-0.7901,-0.7901,-0.7901,-0.7901,-0.7681,-0.7681,-0.7741,-0.7735,-0.7735,-0.7741,-0.7741,-0.7741,-0.7741,-0.7735,-0.7515,-0.7192,-2.2773,-2.3159,-2.3328,-2.3077,-2.2154,-2.1707,-2.2452,-2.1105,-2.001,-1.9926,-1.9284,-1.8464,-1.7491,-1.7361,-1.7401,-1.7498,-1.7425,-1.7264,-1.7018,-1.6993,-1.7009,-1.7057,-1.7662,-1.8039,-1.8135,-1.8724,-1.9208,-1.9529,-1.9844,-2.0005,-2.0005,-1.997,-1.9955,-1.9919,-1.9812,-1.9726,-1.9726,-1.9639,-1.9384,-1.9064,-1.9064,-1.8822,-1.85,-1.85,-1.85,-1.85,-1.85,-1.85,-1.85,-1.8461,-1.8422,-1.8344,-1.7868,-1.772,-1.772,-1.7747,-1.7475,-1.7157,-1.7157,-1.6751,-1.6397,-1.6596,-1.5952,-1.5242,-1.5037,-1.4858,-1.4651,-1.4651,-1.4165,-1.3579,-1.3064,-1.2336,-1.1752,-1.1442,-1.1334,-1.0957,-0.9907,-0.9265,-0.8355,-0.6913,-0.6274,-0.58,-0.5427,-0.543,-0.6143,-0.7764,-0.5649,-0.5329,-0.7769,-0.7478,-0.8413,-1.099,-1.1217,-1.1217,-1.1065,-1.1065,-1.1065,-1.1065,-0.8942,-0.7901,-0.7901,-0.7901,-0.7901,-0.7794,-0.7354,-0.7246,-0.7467,-0.7408,-0.7461,-0.7521,-0.7467,-0.7467,-0.7467,-0.7408,-0.7402,-0.7354,-2.2443,-2.2508,-2.2348,-2.1507,-2.1763,-2.1898,-2.1326,-2.0663,-1.9947,-1.9183,-1.8623,-1.7986,-1.7183,-1.7093,-1.7228,-1.754,-1.7274,-1.7068,-1.7018,-1.6993,-1.7235,-1.7743,-1.7867,-1.8435,-1.9482,-1.9388,-1.9479,-1.9886,-1.9879,-1.9848,-1.9848,-1.9797,-1.9617,-1.9325,-1.9288,-1.9087,-1.8808,-1.8769,-1.8745,-1.863,-1.863,-1.8592,-1.85,-1.85,-1.85,-1.85,-1.85,-1.85,-1.8461,-1.8068,-1.7814,-1.7517,-1.7076,-1.6765,-1.6693,-1.7186,-1.7102,-1.6808,-1.6808,-1.6323,-1.5787,-1.5864,-1.5496,-1.4989,-1.4415,-1.4282,-1.4269,-1.4071,-1.3637,-1.316,-1.2511,-1.2406,-1.195,-1.0442,-1.0819,-1.0788,-0.9392,-0.8503,-0.8074,-0.8192,-0.7699,-0.7295,-0.726,-0.7265,-0.7453,-0.7883,-0.732,-0.7236,-0.7871,-0.7781,-0.8026,-0.8672,-1.0387,-1.0438,-0.8732,-0.8679,-0.8679,-0.8679,-0.8162,-0.7901,-0.7901,-0.7901,-0.7681,-0.73,-0.7354,-0.7408,-0.7408,-0.7461,-0.7467,-0.7467,-0.6972,-0.7079,-0.7408,-0.7402,-0.7295,-0.7139,-2.2237,-2.2123,-2.1824,-2.1273,-2.0732,-2.0416,-2.0533,-1.9634,-1.8802,-1.8536,-1.786,-1.7257,-1.6821,-1.6738,-1.6891,-1.7306,-1.7302,-1.7332,-1.7483,-1.7499,-1.7644,-1.8008,-1.8247,-1.8764,-1.9531,-1.9449,-1.9406,-1.9369,-1.9258,-1.9199,-1.9184,-1.9161,-1.9035,-1.8822,-1.8822,-1.8707,-1.85,-1.85,-1.8383,-1.8187,-1.8187,-1.8068,-1.7908,-1.7908,-1.7908,-1.7868,-1.7733,-1.7612,-1.7422,-1.7021,-1.6672,-1.6373,-1.617,-1.5976,-1.5901,-1.6281,-1.6411,-1.6479,-1.6479,-1.5893,-1.5223,-1.4949,-1.4823,-1.463,-1.4023,-1.3889,-1.3742,-1.3389,-1.2967,-1.2491,-1.2138,-1.1737,-1.1228,-1.0573,-1.0334,-0.9958,-0.9136,-0.8602,-0.8315,-0.8282,-0.8138,-0.7977,-0.7854,-0.7856,-0.7847,-0.778,-0.7829,-0.7901,-0.7901,-0.7901,-0.8002,-0.8315,-0.9249,-0.9302,-0.8474,-0.8109,-0.7901,-0.7901,-0.7901,-0.7901,-0.7901,-0.7788,-0.7574,-0.73,-0.73,-0.73,-0.7246,-0.73,-0.7139,-0.6864,-0.6534,-0.6426,-0.6421,-0.6421,-0.6534,-0.6701,-2.1886,-2.1768,-2.1538,-2.1393,-1.978,-1.8802,-1.9673,-1.8383,-1.739,-1.7748,-1.7051,-1.6474,-1.6421,-1.6449,-1.6666,-1.7106,-1.7558,-1.7894,-1.8067,-1.7975,-1.7989,-1.8154,-1.8528,-1.8808,-1.9038,-1.9161,-1.9058,-1.8574,-1.8525,-1.85,-1.85,-1.85,-1.8461,-1.8383,-1.8383,-1.8344,-1.8305,-1.8266,-1.8028,-1.7625,-1.7625,-1.7393,-1.7031,-1.6976,-1.6976,-1.6934,-1.6625,-1.6355,-1.6139,-1.5832,-1.5567,-1.5344,-1.5344,-1.5299,-1.5254,-1.5254,-1.5591,-1.5925,-1.5969,-1.5444,-1.4701,-1.4213,-1.4181,-1.4222,-1.3826,-1.3494,-1.3112,-1.2725,-1.2206,-1.1828,-1.1828,-1.0932,-1.0314,-1.0666,-0.9828,-0.8975,-0.8543,-0.8663,-0.8582,-0.7958,-0.8072,-0.8059,-0.7843,-0.7883,-0.7805,-0.7674,-0.7822,-0.7901,-0.7848,-0.7848,-0.8103,-0.8567,-0.8162,-0.8209,-0.889,-0.8209,-0.7848,-0.7848,-0.7901,-0.7901,-0.7848,-0.7628,-0.7467,-0.7413,-0.7192,-0.7085,-0.7085,-0.7025,-0.6647,-0.6209,-0.5987,-0.5664,-0.5277,-0.5277,-0.566,-0.6154,-2.0595,-2.0991,-2.1144,-2.0529,-2.0336,-1.967,-1.7807,-1.7349,-1.701,-1.6394,-1.6197,-1.608,-1.608,-1.6586,-1.7152,-1.7789,-1.8431,-1.8553,-1.8032,-1.7486,-1.7668,-1.8806,-1.797,-1.8018,-1.9156,-1.8826,-1.8577,-1.85,-1.85,-1.85,-1.85,-1.85,-1.8305,-1.7908,-1.7908,-1.772,-1.7393,-1.7282,-1.7102,-1.6879,-1.6765,-1.6565,-1.6318,-1.6107,-1.6008,-1.5964,-1.57,-1.5567,-1.5522,-1.5478,-1.5254,-1.4994,-1.4994,-1.4766,-1.4558,-1.4558,-1.4605,-1.4743,-1.4994,-1.4812,-1.4437,-1.4356,-1.4111,-1.3826,-1.3552,-1.2909,-1.2325,-1.2107,-1.1669,-1.1368,-1.1368,-1.0965,-1.0086,-0.8456,-0.9015,-0.8862,-0.6523,-0.719,-0.8045,-0.8346,-0.7863,-0.7621,-0.785,-0.7906,-0.7883,-0.7841,-0.7877,-0.7842,-0.7723,-0.7723,-0.7729,-0.7729,-0.7842,-0.7955,-0.8109,-0.7676,-0.7574,-0.7747,-0.7854,-0.7854,-0.7747,-0.758,-0.7354,-0.7139,-0.7139,-0.7085,-0.7085,-0.6534,-0.6263,-0.61,-0.5117,-0.5007,-0.5277,-0.5277,-0.5555,-0.605,-2.001,-2.0342,-2.0503,-2.0091,-1.9898,-1.94,-1.8266,-1.7593,-1.7167,-1.7091,-1.7212,-1.7227,-1.7,-1.7009,-1.7326,-1.8007,-1.8144,-1.8229,-1.8273,-1.8204,-1.8461,-1.9034,-1.8325,-1.8058,-1.8433,-1.8212,-1.8028,-1.7787,-1.7787,-1.7787,-1.7787,-1.7787,-1.7503,-1.6993,-1.6993,-1.6866,-1.6612,-1.6269,-1.6225,-1.6343,-1.6008,-1.5844,-1.5768,-1.5611,-1.5567,-1.5522,-1.5254,-1.5028,-1.488,-1.472,-1.4444,-1.4212,-1.4212,-1.4082,-1.3952,-1.3952,-1.4186,-1.4373,-1.4419,-1.4291,-1.4093,-1.3752,-1.3494,-1.3256,-1.2696,-1.2295,-1.195,-1.1619,-1.1427,-1.1326,-1.1326,-1.0797,-1.0114,-0.9305,-0.826,-0.7653,-0.801,-0.8278,-0.8575,-0.9058,-0.8254,-0.7721,-0.7783,-0.78,-0.7741,-0.7681,-0.7681,-0.7681,-0.7622,-0.7568,-0.7568,-0.7521,-0.7628,-0.7681,-0.7622,-0.7515,-0.7521,-0.758,-0.7634,-0.7634,-0.758,-0.7467,-0.7359,-0.7198,-0.7139,-0.7085,-0.7095,-0.6889,-0.6657,-0.6374,-0.5811,-0.5421,-0.5139,-0.5238,-0.5452,-0.575,-1.9797,-1.9884,-2.0041,-1.9955,-1.9426,-1.9011,-1.8927,-1.7993,-1.7359,-1.767,-1.784,-1.784,-1.7519,-1.7321,-1.7418,-1.7921,-1.7837,-1.7969,-1.8472,-1.8717,-1.8921,-1.895,-1.8553,-1.8108,-1.7639,-1.7503,-1.7338,-1.7115,-1.7018,-1.7018,-1.7115,-1.7115,-1.6892,-1.6454,-1.6312,-1.6213,-1.6071,-1.5599,-1.5555,-1.5808,-1.5377,-1.5209,-1.5164,-1.5085,-1.5073,-1.5028,-1.472,-1.4479,-1.4236,-1.3999,-1.3763,-1.3621,-1.3621,-1.3621,-1.3621,-1.3621,-1.3905,-1.4186,-1.3962,-1.3821,-1.3621,-1.3122,-1.2871,-1.2589,-1.2017,-1.1828,-1.1669,-1.1377,-1.1326,-1.1326,-1.1326,-1.0728,-1.0148,-0.9981,-0.8031,-0.7243,-0.9154,-0.9299,-0.9374,-0.9677,-0.8697,-0.7842,-0.7586,-0.7639,-0.7634,-0.7521,-0.7521,-0.7467,-0.7467,-0.7467,-0.7413,-0.7408,-0.7413,-0.7467,-0.7408,-0.7408,-0.7413,-0.7467,-0.7467,-0.7413,-0.7408,-0.7408,-0.7359,-0.7257,-0.7204,-0.7171,-0.7187,-0.726,-0.6912,-0.6397,-0.6226,-0.5681,-0.4939,-0.5001,-0.5143,-0.5243,-1.9797,-1.9884,-2.0005,-2.0076,-1.9551,-1.9014,-1.8745,-1.8016,-1.7292,-1.6858,-1.6709,-1.6628,-1.66,-1.7104,-1.7506,-1.7548,-1.8068,-1.8458,-1.85,-1.8108,-1.8108,-1.8539,-1.8108,-1.7598,-1.7086,-1.6625,-1.6582,-1.6918,-1.6441,-1.6441,-1.6918,-1.6918,-1.6876,-1.6833,-1.6343,-1.6114,-1.6071,-1.5522,-1.5164,-1.4983,-1.4801,-1.4628,-1.4466,-1.4197,-1.4104,-1.4057,-1.381,-1.3658,-1.3658,-1.3621,-1.3621,-1.3621,-1.3621,-1.3621,-1.3621,-1.3621,-1.361,-1.3668,-1.361,-1.3362,-1.3064,-1.3016,-1.2491,-1.1977,-1.1927,-1.1619,-1.1326,-1.1326,-1.1326,-1.1326,-1.1326,-1.0951,-1.0124,-0.8532,-0.8904,-0.8944,-0.7591,-0.8846,-0.9979,-1.0048,-0.8934,-0.7931,-0.7192,-0.7359,-0.7521,-0.7521,-0.7521,-0.7467,-0.7317,-0.7311,-0.7257,-0.7139,-0.7257,-0.7365,-0.7467,-0.7246,-0.7198,-0.7311,-0.7311,-0.7257,-0.7139,-0.7257,-0.7257,-0.7149,-0.7327,-0.7367,-0.7327,-0.7081,-0.6461,-0.5711,-0.5135,-0.4857,-0.4789,-0.4402,-0.4408,-0.4588,-1.9726,-1.9762,-1.9726,-1.9523,-1.9288,-1.8974,-1.8655,-1.8303,-1.8058,-1.7821,-1.7758,-1.7735,-1.7735,-1.7702,-1.7699,-1.7699,-1.7706,-1.7679,-1.7598,-1.7393,-1.7393,-1.7557,-1.7393,-1.7199,-1.6918,-1.6441,-1.6256,-1.6398,-1.5908,-1.5776,-1.5976,-1.5976,-1.5788,-1.541,-1.5174,-1.5096,-1.5028,-1.4479,-1.4362,-1.4558,-1.4165,-1.3978,-1.3905,-1.381,-1.3763,-1.3716,-1.3621,-1.3621,-1.3621,-1.3621,-1.3621,-1.3621,-1.3621,-1.3621,-1.3563,-1.3314,-1.3218,-1.317,-1.2949,-1.2939,-1.2871,-1.2442,-1.2116,-1.1828,-1.1578,-1.1276,-1.1074,-1.1074,-1.0922,-1.082,-1.082,-1.0475,-1.006,-0.966,-0.9509,-0.9422,-0.9244,-0.9479,-0.9787,-1.0287,-0.916,-0.799,-0.7192,-0.7192,-0.7246,-0.7246,-0.7246,-0.7246,-0.7198,-0.7198,-0.7144,-0.7085,-0.7144,-0.7198,-0.7246,-0.7139,-0.7139,-0.7198,-0.7198,-0.7144,-0.7085,-0.7144,-0.7144,-0.709,-0.7182,-0.7225,-0.7186,-0.684,-0.6529,-0.6226,-0.5596,-0.514,-0.4785,-0.4762,-0.4567,-0.4298,-1.9457,-1.9384,-1.9273,-1.9064,-1.8745,-1.8422,-1.8108,-1.8068,-1.8068,-1.8068,-1.8068,-1.8068,-1.8068,-1.7625,-1.7325,-1.7325,-1.6909,-1.6582,-1.6509,-1.6509,-1.6637,-1.696,-1.6808,-1.668,-1.662,-1.5952,-1.5676,-1.5776,-1.5344,-1.5175,-1.5311,-1.5311,-1.5073,-1.4698,-1.4525,-1.4444,-1.4373,-1.381,-1.381,-1.414,-1.3763,-1.3621,-1.3621,-1.3621,-1.3621,-1.3621,-1.3621,-1.3515,-1.3409,-1.3409,-1.3324,-1.3238,-1.3122,-1.3112,-1.3064,-1.288,-1.2774,-1.2628,-1.2264,-1.2304,-1.2286,-1.1968,-1.1728,-1.1519,-1.1226,-1.0972,-1.0769,-1.0769,-1.0624,-1.0522,-1.0522,-1.0264,-1.0176,-1.0482,-0.9966,-0.9671,-1.0084,-0.9632,-0.9457,-0.9902,-0.889,-0.7889,-0.7192,-0.7085,-0.7085,-0.7085,-0.7085,-0.7085,-0.7085,-0.7085,-0.7085,-0.7085,-0.7085,-0.7085,-0.7085,-0.7085,-0.7085,-0.7085,-0.7085,-0.7085,-0.7085,-0.7085,-0.7085,-0.709,-0.7165,-0.7198,-0.7164,-0.7048,-0.675,-0.6402,-0.5829,-0.5323,-0.4799,-0.4545,-0.4323,-0.4134,-1.9011,-1.8669,-1.8592,-1.886,-1.7948,-1.7199,-1.7199,-1.7199,-1.7199,-1.7199,-1.7199,-1.7199,-1.7199,-1.6667,-1.6269,-1.6269,-1.5744,-1.5389,-1.5389,-1.5389,-1.5832,-1.6833,-1.6398,-1.6039,-1.5988,-1.5017,-1.4698,-1.5108,-1.4605,-1.4651,-1.5108,-1.5108,-1.5108,-1.5062,-1.4605,-1.4373,-1.4384,-1.381,-1.3621,-1.3621,-1.3621,-1.3621,-1.3621,-1.3621,-1.3621,-1.3621,-1.3621,-1.3314,-1.3016,-1.3016,-1.2793,-1.2421,-1.208,-1.2012,-1.207,-1.2412,-1.2246,-1.1922,-1.156,-1.1267,-1.1158,-1.1719,-1.1377,-1.0922,-1.0922,-1.0675,-1.0522,-1.0522,-1.047,-1.047,-1.047,-1.047,-1.047,-1.047,-1.0205,-0.9836,-0.9465,-0.9159,-0.8949,-0.883,-0.8143,-0.7563,-0.7139,-0.7085,-0.7085,-0.7085,-0.7085,-0.7085,-0.7085,-0.7085,-0.7085,-0.7085,-0.7085,-0.7085,-0.7085,-0.7085,-0.7085,-0.7085,-0.7085,-0.7085,-0.7085,-0.7085,-0.7085,-0.7095,-0.7287,-0.7389,-0.741,-0.7698,-0.7125,-0.6072,-0.5665,-0.5258,-0.4836,-0.3401,-0.3426,-0.3961,-1.8344,-1.8187,-1.8147,-1.8108,-1.7828,-1.7434,-1.6934,-1.685,-1.671,-1.6269,-1.6225,-1.6139,-1.5964,-1.5788,-1.5656,-1.5656,-1.5522,-1.5389,-1.5344,-1.522,-1.5322,-1.5635,-1.5579,-1.5478,-1.5379,-1.4731,-1.4501,-1.4605,-1.4093,-1.3894,-1.4035,-1.4035,-1.4035,-1.4035,-1.3905,-1.3858,-1.381,-1.3668,-1.3621,-1.3621,-1.3621,-1.3621,-1.3621,-1.3621,-1.342,-1.317,-1.317,-1.2812,-1.2316,-1.2316,-1.212,-1.1832,-1.1765,-1.1715,-1.1665,-1.1501,-1.1401,-1.125,-1.0863,-1.0718,-1.0667,-1.0871,-1.0769,-1.0624,-1.0624,-1.036,-1.0154,-1.0154,-0.9991,-0.9777,-0.9472,-0.9427,-0.9368,-0.9054,-0.8949,-0.8844,-0.8738,-0.8633,-0.8474,-0.819,-0.7877,-0.7563,-0.7139,-0.7085,-0.7085,-0.7085,-0.7085,-0.716,-0.7277,-0.7176,-0.7085,-0.7085,-0.7085,-0.7085,-0.7085,-0.7085,-0.7085,-0.7085,-0.7085,-0.7085,-0.7085,-0.6923,-0.6761,-0.6657,-0.6614,-0.6584,-0.6528,-0.6202,-0.5853,-0.5473,-0.4636,-0.4188,-0.3901,-0.3203,-0.2988,-0.3072,-1.7948,-1.7908,-1.7747,-1.7284,-1.7005,-1.6656,-1.6031,-1.5904,-1.5776,-1.5432,-1.5525,-1.5567,-1.5433,-1.5012,-1.4752,-1.4752,-1.4541,-1.4451,-1.4606,-1.4536,-1.4501,-1.4501,-1.4582,-1.4674,-1.4834,-1.4326,-1.4046,-1.3988,-1.3705,-1.3563,-1.3515,-1.3563,-1.3621,-1.3621,-1.3515,-1.3515,-1.3515,-1.3467,-1.3314,-1.3122,-1.3122,-1.3016,-1.2812,-1.2919,-1.2764,-1.2463,-1.257,-1.2169,-1.1584,-1.1584,-1.1334,-1.0981,-1.1133,-1.1082,-1.0939,-1.0854,-1.071,-1.0549,-1.036,-1.0205,-1.0095,-0.9947,-1.0102,-1.0308,-1.0308,-0.9947,-0.962,-0.9744,-0.9493,-0.9166,-0.8904,-0.8956,-0.8941,-0.8546,-0.8527,-0.8473,-0.8311,-0.8256,-0.8148,-0.7767,-0.7749,-0.7644,-0.7421,-0.7365,-0.7365,-0.7365,-0.7365,-0.7435,-0.7522,-0.7451,-0.7322,-0.723,-0.723,-0.7182,-0.7085,-0.6977,-0.6977,-0.7085,-0.6923,-0.6869,-0.6869,-0.6544,-0.6327,-0.6277,-0.6213,-0.61,-0.5932,-0.555,-0.5222,-0.4897,-0.4125,-0.3685,-0.3463,-0.297,-0.2772,-0.2752,-1.7666,-1.7585,-1.7201,-1.6355,-1.5768,-1.5257,-1.4789,-1.4681,-1.4669,-1.4631,-1.5008,-1.5254,-1.5242,-1.4327,-1.374,-1.3784,-1.3284,-1.3119,-1.3589,-1.3621,-1.361,-1.3563,-1.3563,-1.381,-1.428,-1.381,-1.3515,-1.3362,-1.3515,-1.3515,-1.3362,-1.3467,-1.3515,-1.3467,-1.3314,-1.3266,-1.3218,-1.3112,-1.2764,-1.2316,-1.2316,-1.2061,-1.1616,-1.1864,-1.1765,-1.1566,-1.1814,-1.1484,-1.0905,-1.0897,-1.0446,-0.9999,-1.0308,-1.0205,-1.0058,-1.0347,-1.02,-0.9941,-1.003,-0.9792,-0.9449,-0.9148,-0.9463,-0.9874,-0.9851,-0.9375,-0.9044,-0.9282,-0.9004,-0.867,-0.8695,-0.8858,-0.8951,-0.8683,-0.8639,-0.8471,-0.814,-0.8084,-0.792,-0.7483,-0.7672,-0.7801,-0.7801,-0.7801,-0.7817,-0.786,-0.7822,-0.7817,-0.78,-0.7763,-0.7645,-0.7374,-0.7369,-0.7263,-0.7095,-0.6817,-0.6807,-0.7063,-0.6688,-0.648,-0.6444,-0.605,-0.5826,-0.5826,-0.5973,-0.5854,-0.5525,-0.5462,-0.5069,-0.4353,-0.3922,-0.3641,-0.336,-0.2867,-0.2756,-0.2828,-1.6446,-1.6157,-1.582,-1.5656,-1.5215,-1.4872,-1.4855,-1.4525,-1.4291,-1.4165,-1.4261,-1.4233,-1.4025,-1.3461,-1.3244,-1.3611,-1.3502,-1.3507,-1.361,-1.3621,-1.3563,-1.3467,-1.342,-1.3467,-1.3457,-1.3467,-1.3362,-1.3266,-1.3266,-1.3266,-1.3218,-1.2861,-1.2667,-1.2667,-1.2209,-1.2012,-1.1963,-1.1963,-1.1864,-1.1765,-1.1765,-1.1715,-1.1616,-1.1665,-1.1484,-1.115,-1.1191,-1.0795,-1.0198,-0.9976,-0.9821,-0.9718,-0.9769,-0.9718,-0.9777,-1.0089,-0.9894,-0.9679,-1.0316,-0.9688,-0.8961,-0.9309,-0.9193,-0.8956,-0.8785,-0.8633,-0.8605,-0.8828,-0.8775,-0.867,-0.8491,-0.8522,-0.8428,-0.8077,-0.8008,-0.7949,-0.7896,-0.7891,-0.7837,-0.772,-0.7768,-0.7801,-0.7801,-0.7801,-0.7951,-0.8334,-0.8011,-0.7841,-0.7947,-0.7629,-0.724,-0.6963,-0.6904,-0.6939,-0.689,-0.6832,-0.6861,-0.6915,-0.6633,-0.6372,-0.6112,-0.5754,-0.5336,-0.497,-0.4745,-0.4714,-0.48,-0.4586,-0.4219,-0.3802,-0.3623,-0.3493,-0.3368,-0.2943,-0.2811,-0.2836,-1.5776,-1.5555,-1.5254,-1.5017,-1.4561,-1.4147,-1.3969,-1.3749,-1.354,-1.3499,-1.3684,-1.3763,-1.3621,-1.301,-1.271,-1.2948,-1.3165,-1.3336,-1.3494,-1.3266,-1.3064,-1.2919,-1.2667,-1.2463,-1.2365,-1.2414,-1.2521,-1.2735,-1.2521,-1.2414,-1.2365,-1.211,-1.2012,-1.2012,-1.1665,-1.1516,-1.1516,-1.1434,-1.1283,-1.1032,-1.1032,-1.0872,-1.0661,-1.0779,-1.074,-1.0564,-1.051,-1.0298,-1.0037,-1.0078,-1.0075,-1.0075,-1.0075,-0.9972,-0.9824,-0.9843,-0.9514,-0.9302,-0.9596,-0.922,-0.8751,-0.8953,-0.8757,-0.8563,-0.8574,-0.8447,-0.8452,-0.8713,-0.8592,-0.8457,-0.8303,-0.8365,-0.8343,-0.8044,-0.7968,-0.7968,-0.7968,-0.7968,-0.7968,-0.7968,-0.8167,-0.835,-0.8458,-0.8468,-0.8511,-0.856,-0.8285,-0.8118,-0.8015,-0.7652,-0.737,-0.7091,-0.7078,-0.6978,-0.6791,-0.6736,-0.6727,-0.6763,-0.6493,-0.6202,-0.5751,-0.5449,-0.5022,-0.4527,-0.442,-0.4324,-0.4228,-0.4114,-0.374,-0.3332,-0.3297,-0.3212,-0.3173,-0.299,-0.2915,-0.2964,-1.5336,-1.5176,-1.4892,-1.4411,-1.3902,-1.3452,-1.3076,-1.2934,-1.2913,-1.3031,-1.3279,-1.3515,-1.3515,-1.2756,-1.2189,-1.2108,-1.2458,-1.2816,-1.3092,-1.2667,-1.2365,-1.2209,-1.1814,-1.1516,-1.1366,-1.1275,-1.1484,-1.2008,-1.1683,-1.1466,-1.1366,-1.1366,-1.1366,-1.1366,-1.1166,-1.1116,-1.1065,-1.099,-1.0643,-1.0241,-1.0241,-0.9984,-0.9621,-0.9896,-1.0037,-1.0129,-1.0083,-1.0126,-1.0228,-1.0499,-1.0587,-1.0587,-1.0473,-1.0284,-0.9971,-0.9596,-0.9274,-0.8969,-0.8915,-0.8783,-0.8573,-0.851,-0.845,-0.8392,-0.8573,-0.8433,-0.8397,-0.865,-0.8488,-0.8283,-0.8327,-0.8468,-0.8565,-0.8424,-0.8392,-0.8392,-0.8392,-0.8392,-0.8392,-0.8392,-0.8744,-0.8996,-0.919,-0.9136,-0.8941,-0.8705,-0.8528,-0.8306,-0.7985,-0.7799,-0.755,-0.7318,-0.725,-0.7072,-0.6816,-0.6701,-0.6586,-0.6471,-0.6325,-0.5968,-0.5475,-0.5105,-0.4671,-0.4111,-0.4287,-0.4134,-0.3719,-0.3763,-0.3439,-0.3009,-0.3003,-0.303,-0.3018,-0.3034,-0.3034,-0.3128,-1.507,-1.4398,-1.38,-1.3752,-1.3319,-1.3107,-1.3465,-1.3186,-1.3072,-1.3465,-1.3273,-1.3064,-1.3064,-1.2464,-1.1814,-1.123,-1.1556,-1.1809,-1.1855,-1.1765,-1.1665,-1.1566,-1.1466,-1.1375,-1.125,-1.0744,-1.0795,-1.1351,-1.1301,-1.1242,-1.12,-1.0744,-1.0549,-1.0541,-1.0079,-0.9865,-0.9865,-0.9821,-0.9769,-0.9718,-0.9718,-0.9666,-0.9643,-0.9982,-1.0068,-1.0133,-1.0431,-1.0541,-1.0528,-1.0572,-1.0587,-1.053,-1.0064,-0.9863,-0.9826,-0.9628,-0.9246,-0.8962,-0.9656,-0.9063,-0.8365,-0.8766,-0.8527,-0.8214,-0.8243,-0.804,-0.7985,-0.8225,-0.8381,-0.8528,-0.8793,-0.8958,-0.9104,-0.9066,-0.906,-0.906,-0.906,-0.906,-0.906,-0.906,-0.912,-0.9168,-0.92,-0.8855,-0.873,-0.8917,-0.8394,-0.8013,-0.7828,-0.7659,-0.7403,-0.7095,-0.6898,-0.6865,-0.6945,-0.6813,-0.6482,-0.6068,-0.605,-0.5827,-0.5367,-0.4701,-0.4043,-0.3321,-0.3377,-0.3374,-0.3302,-0.3147,-0.3174,-0.3193,-0.3105,-0.3024,-0.3026,-0.3044,-0.313,-0.3222,-1.4253,-1.3888,-1.3515,-1.3314,-1.3104,-1.2939,-1.2967,-1.2829,-1.2675,-1.2686,-1.256,-1.2365,-1.2209,-1.1963,-1.1563,-1.1036,-1.1394,-1.1566,-1.1516,-1.1216,-1.0973,-1.0838,-1.0568,-1.0372,-1.0328,-1.0079,-1.0079,-1.0328,-1.0328,-1.0328,-1.0277,-1.0079,-0.9932,-0.9925,-0.9718,-0.9614,-0.9614,-0.9614,-0.9614,-0.9614,-0.9614,-0.9614,-0.965,-0.9972,-1.0214,-1.0384,-1.0649,-1.0594,-1.0474,-1.065,-1.0707,-1.0646,-1.0404,-1.0227,-0.9933,-0.9413,-0.8914,-0.8667,-0.8912,-0.8595,-0.8302,-0.857,-0.835,-0.8127,-0.8262,-0.8016,-0.7871,-0.8297,-0.8544,-0.8743,-0.8912,-0.905,-0.9206,-0.9206,-0.8996,-0.8855,-0.8855,-0.8639,-0.8619,-0.8749,-0.8764,-0.8809,-0.893,-0.8798,-0.8615,-0.8487,-0.8184,-0.7952,-0.766,-0.7421,-0.7252,-0.7106,-0.6989,-0.6932,-0.7023,-0.694,-0.6583,-0.6022,-0.5663,-0.5306,-0.4769,-0.4418,-0.3911,-0.3322,-0.3256,-0.3226,-0.3222,-0.3105,-0.3179,-0.3222,-0.3183,-0.3173,-0.3249,-0.3171,-0.3256,-0.3307]},{"header":{"parameterUnit":"m.s-1","parameterCategory":1,"la1":30.6,"la2":28.766,"lo1":-90.7593,"lo2":-88.6598,"dy":0.0162,"dx":0.0183,"nx":116,"ny":114,"refTime":"2023-09-22T18:00:00:Z","depth":0,"parameterNumber":3,"parameterNumberName":"V-component_of_WINDS"},"data":[0.0,0.0,0.0,0.0,0.0,0.0,0.0,0.0,0.0,0.0,0.0,0.0,0.0,0.0,0.0,0.0,0.0,0.0,0.0,0.0,0.0,0.0,0.0,0.0,0.0,0.0,0.0,0.0,0.0,0.0,0.0,0.0,0.0,0.0,0.0,0.0,0.0,0.0,0.0,0.0,0.0,0.0,0.0,0.0,0.0,0.0,0.0,0.0,0.0,0.0,0.0,0.0,0.0,0.0,0.0,0.0,0.0,0.0,0.0,0.0,0.0,0.0,0.0,0.0,0.0,0.0,0.0,0.0,0.0,0.0,0.0,0.0,0.0,0.0,0.0,0.0,0.0,0.0,0.0,0.0,0.0,0.0,0.0,0.0,0.0,0.0,0.0,0.0,0.0,0.0,0.0,0.0,0.0,0.0,0.0,0.0,0.0,0.0,0.0,0.0,0.0,0.0,0.0,0.0,0.0,0.0,0.0,0.0,0.0,0.0,0.0,0.0,0.0,0.0,0.0,0.0,0.0,0.0,0.0,0.0,0.0,0.0,0.0,0.0,0.0,0.0,0.0,0.0,0.0,0.0,0.0,0.0,0.0,0.0,0.0,0.0,0.0,0.0,0.0,0.0,0.0,0.0,0.0,0.0,0.0,0.0,0.0,0.0,0.0,0.0,0.0,0.0,0.0,0.0,0.0,0.0,0.0,0.0,0.0,0.0,0.0,0.0,0.0,0.0,0.0,0.0,0.0,0.0,0.0,0.0,0.0,0.0,0.0,0.0,0.0,0.0,0.0,0.0,0.0,0.0,0.0,0.0,0.0,0.0,0.0,0.0,0.0,0.0,0.0,0.0,0.0,0.0,0.0,0.0,0.0,0.0,0.0,0.0,0.0,0.0,0.0,0.0,0.0,0.0,0.0,0.0,0.0,0.0,0.0,0.0,0.0,0.0,0.0,0.0,0.0,0.0,0.0,0.0,0.0,0.0,0.0,0.0,0.0,0.0,0.0,0.0,0.0,0.0,0.0,0.0,0.0,0.0,0.0,0.0,0.0,0.0,0.0,0.0,0.0,0.0,0.0,0.0,0.0,0.0,0.0,0.0,0.0,0.0,0.0,0.0,0.0,0.0,0.0,0.0,0.0,0.0,0.0,0.0,0.0,0.0,0.0,0.0,0.0,0.0,0.0,0.0,0.0,0.0,0.0,0.0,0.0,0.0,0.0,0.0,0.0,0.0,0.0,0.0,0.0,0.0,0.0,0.0,0.0,0.0,0.0,0.0,0.0,0.0,0.0,0.0,0.0,0.0,0.0,0.0,0.0,0.0,0.0,0.0,0.0,0.0,0.0,0.0,0.0,0.0,0.0,0.0,0.0,0.0,0.0,0.0,0.0,0.0,0.0,0.0,0.0,0.0,0.0,0.0,0.0,0.0,0.0,0.0,0.0,0.0,0.0,0.0,0.0,0.0,0.0,0.0,0.0,0.0,0.0,0.0,0.0,0.0,0.0,0.0,0.0,0.0,0.0,0.0,0.0,0.0,0.0,0.0,0.0,0.0,0.0,0.0,0.0,0.0,0.0,0.0,0.0,0.0,0.0,0.0,0.0,0.0,0.0,0.0,0.0,0.0,0.0,0.0,0.0,0.0,0.0,0.0,0.0,0.0,0.0,0.0,0.0,0.0,0.0,0.0,0.0,0.0,0.0,0.0,0.0,0.0,0.0,0.0,0.0,0.0,0.0,0.0,0.0,0.0,0.0,0.0,0.0,0.0,0.0,0.0,0.0,0.0,0.0,0.0,0.0,0.0,0.0,0.0,0.0,0.0,0.0,0.0,0.0,0.0,0.0,0.0,0.0,0.0,0.0,0.0,0.0,0.0,0.0,0.0,0.0,0.0,0.0,0.0,0.0,0.0,0.0,0.0,0.0,0.0,0.0,0.0,0.0,0.0,0.0,0.0,0.0,0.0,0.0,0.0,0.0,0.0,0.0,0.0,0.0,0.0,0.0,0.0,0.0,0.0,0.0,0.0,0.0,0.0,0.0,0.0,0.0,0.0,0.0,0.0,0.0,0.0,0.0,0.0,0.0,0.0,0.0,0.0,0.0,0.0,0.0,0.0,0.0,0.0,0.0,0.0,0.0,0.0,0.0,0.0,0.0,0.0,0.0,0.0,0.0,0.0,0.0,0.0,0.0,0.0,0.0,0.0,0.0,0.0,0.0,0.0,0.0,0.0,0.0,0.0,0.0,0.0,0.0,0.0,0.0,0.0,0.0,0.0,0.0,0.0,0.0,0.0,0.0,0.0,0.0,0.0,0.0,0.0,0.0,0.0,0.0,0.0,0.0,0.0,0.0,0.0,0.0,0.0,0.0,0.0,0.0,0.0,0.0,0.0,0.0,0.0,0.0,0.0,0.0,0.0,0.0,0.0,0.0,0.0,0.0,0.0,0.0,0.0,0.0,0.0,0.0,0.0,0.0,0.0,0.0,0.0,0.0,0.0,0.0,0.0,0.0,0.0,0.0,0.0,0.0,0.0,0.0,0.0,0.0,0.0,0.0,0.0,0.0,0.0,0.0,0.0,0.0,0.0,0.0,0.0,0.0,0.0,0.0,0.0,0.0,0.0,0.0,0.0,0.0,0.0,0.0,0.0,0.0,0.0,0.0,0.0,0.0,0.0,0.0,0.0,0.0,0.0,0.0,0.0,0.0,0.0,0.0,0.0,0.0,0.0,0.0,0.0,0.0,0.0,0.0,0.0,0.0,0.0,0.0,0.0,0.0,0.0,0.0,0.0,0.0,0.0,0.0,0.0,0.0,0.0,0.0,0.0,0.0,0.0,0.0,0.0,0.0,0.0,0.0,0.0,0.0,0.0,0.0,0.0,0.0,0.0,0.0,0.0,0.0,0.0,0.0,0.0,0.0,0.0,0.0,0.0,0.0,0.0,0.0,0.0,0.0,0.0,0.0,0.0,0.0,0.0,0.0,0.0,0.0,0.0,0.0,0.0,0.0,0.0,0.0,0.0,0.0,0.0,0.0,0.0,0.0,0.0,0.0,0.0,0.0,0.0,0.0,0.0,0.0,0.0,0.0,0.0,0.0,0.0,0.0,0.0,0.0,0.0,0.0,0.0,0.0,0.0,0.0,0.0,0.0,0.0,0.0,0.0,0.0,0.0,0.0,0.0,0.0,0.0,0.0,0.0,0.0,0.0,0.0,0.0,0.0,0.0,0.0,0.0,0.0,0.0,0.0,0.0,0.0,0.0,0.0,0.0,0.0,0.0,0.0,0.0,0.0,0.0,0.0,0.0,0.0,0.0,0.0,0.0,0.0,0.0,0.0,0.0,0.0,0.0,0.0,0.0,0.0,0.0,0.0,0.0,0.0,0.0,0.0,0.0,0.0,0.0,0.0,0.0,0.0,0.0,0.0,0.0,0.0,0.0,0.0,0.0,0.0,0.0,0.0,0.0,0.0,0.0,0.0,0.0,0.0,0.0,0.0,0.0,0.0,0.0,0.0,0.0,0.0,0.0,0.0,0.0,0.0,0.0,0.0,0.0,0.0,0.0,0.0,0.0,0.0,0.0,0.0,0.0,0.0,0.0,0.0,0.0,0.0,0.0,0.0,0.0,0.0,0.0,0.0,0.0,0.0,0.0,0.0,0.0,0.0,0.0,0.0,0.0,0.0,0.0,0.0,0.0,0.0,0.0,0.0,0.0,0.0,0.0,0.0,0.0,0.0,0.0,0.0,0.0,0.0,0.0,0.0,0.0,0.0,0.0,0.0,0.0,0.0,0.0,0.0,0.0,0.0,0.0,0.0,0.0,0.0,0.0,0.0,0.0,0.0,0.0,0.0,0.0,0.0,0.0,0.0,0.0,0.0,0.0,0.0,0.0,0.0,0.0,0.0,0.0,0.0,0.0,0.0,0.0,0.0,0.0,0.0,0.0,0.0,0.0,0.0,0.0,0.0,0.0,0.0,0.0,0.0,0.0,0.0,0.0,0.0,0.0,0.0,0.0,0.0,0.0,0.0,0.0,0.0,0.0,0.0,0.0,0.0,0.0,0.0,0.0,0.0,0.0,0.0,0.0,0.0,0.0,0.0,0.0,0.0,0.0,0.0,0.0,0.0,0.0,0.0,0.0,0.0,0.0,0.0,0.0,0.0,0.0,0.0,0.0,0.0,0.0,0.0,0.0,0.0,0.0,0.0,0.0,0.0,0.0,0.0,0.0,0.0,0.0,0.0,0.0,0.0,0.0,0.0,0.0,0.0,0.0,0.0,0.0,0.0,0.0,0.0,0.0,0.0,0.0,0.0,0.0,0.0,0.0,0.0,0.0,0.0,0.0,0.0,0.0,0.0,0.0,0.0,0.0,0.0,0.0,0.0,0.0,0.0,0.0,0.0,0.0,0.0,0.0,0.0,0.0,0.0,0.0,0.0,0.0,0.0,0.0,0.0,0.0,0.0,0.0,0.0,0.0,0.0,0.0,0.0,0.0,0.0,0.0,0.0,0.0,0.0,0.0,0.0,0.0,0.0,0.0,0.0,0.0,0.0,0.0,0.0,0.0,0.0,0.0,0.0,0.0,0.0,0.0,0.0,0.0,0.0,0.0,0.0,0.0,0.0,0.0,0.0,0.0,0.0,0.0,0.0,0.0,0.0,0.0,0.0,0.0,0.0,0.0,0.0,0.0,0.0,0.0,0.0,0.0,0.0,0.0,0.0,0.0,0.0,0.0,0.0,0.0,0.0,0.0,0.0,0.0,0.0,0.0,0.0,0.0,0.0,0.0,0.0,0.0,0.0,0.0,0.0,0.0,0.0,0.0,0.0,0.0,0.0,0.0,0.0,0.0,0.0,0.0,0.0,0.0,0.0,0.0,0.0,0.0,0.0,0.0,0.0,0.0,0.0,0.0,0.0,0.0,0.0,0.0,0.0,0.0,0.0,0.0,0.0,0.0,0.0,0.0,0.0,0.0,0.0,0.0,0.0,0.0,0.0,0.0,0.0,0.0,0.0,0.0,0.0,0.0,0.0,0.0,0.0,0.0,0.0,0.0,0.0,0.0,0.0,0.0,0.0,0.0,0.0,0.0,0.0,0.0,0.0,0.0,0.0,0.0,0.0,0.0,0.0,0.0,0.0,0.0,0.0,0.0,0.0,0.0,0.0,0.0,0.0,0.0,0.0,0.0,0.0,0.0,0.0,0.0,0.0,0.0,0.0,0.0,0.0,0.0,0.0,0.0,0.0,0.0,0.0,0.0,0.0,0.0,0.0,0.0,0.0,0.0,0.0,0.0,0.0,0.0,0.0,0.0,0.0,0.0,0.0,0.0,0.0,0.0,0.0,0.0,0.0,0.0,0.0,0.0,0.0,0.0,0.0,0.0,0.0,0.0,0.0,0.0,0.0,0.0,0.0,0.0,0.0,0.0,0.0,0.0,0.0,0.0,0.0,0.0,0.0,0.0,0.0,0.0,0.0,0.0,0.0,0.0,0.0,0.0,0.0,0.0,0.0,0.0,0.0,0.0,0.0,0.0,0.0,0.0,0.0,0.0,0.0,0.0,0.0,0.0,0.0,0.0,0.0,0.0,0.0,0.0,0.0,0.0,0.0,0.0,0.0,0.0,0.0,0.0,0.0,0.0,0.0,0.0,0.0,0.0,0.0,0.0,0.0,0.0,0.0,0.0,0.0,0.0,0.0,0.0,0.0,0.0,0.0,0.0,0.0,0.0,0.0,0.0,0.0,0.0,0.0,0.0,0.0,0.0,0.0,0.0,0.0,0.0,0.0,0.0,0.0,0.0,0.0,0.0,0.0,0.0,0.0,0.0,0.0,0.0,0.0,0.0,0.0,0.0,0.0,0.0,0.0,0.0,0.0,0.0,0.0,0.0,0.0,0.0,0.0,0.0,0.0,0.0,0.0,0.0,0.0,0.0,0.0,0.0,0.0,0.0,0.0,0.0,0.0,0.0,0.0,0.0,0.0,0.0,0.0,0.0,0.0,0.0,0.0,0.0,0.0,0.0,0.0,0.0,0.0,0.0,0.0,0.0,0.0,0.0,0.0,0.0,0.0,0.0,0.0,0.0,0.0,0.0,0.0,0.0,0.0,0.0,0.0,0.0,0.0,0.0,0.0,0.0,-1.2361,-0.7447,0.0,0.0,0.0,0.0,0.0,0.0,0.0,0.0,0.0,0.0,0.0,0.0,0.0,0.0,0.0,0.0,0.0,0.0,0.0,0.0,0.0,0.0,0.0,0.0,0.0,0.0,0.0,0.0,0.0,0.0,0.0,0.0,0.0,0.0,0.0,0.0,0.0,0.0,-0.6243,-0.7968,-1.008,-0.8993,-0.8279,-0.7812,0.0,0.0,0.0,0.0,0.0,0.0,0.0,0.0,0.0,0.0,0.0,0.0,0.0,0.0,0.0,0.0,0.0,0.0,0.0,0.0,0.0,0.0,0.0,0.0,0.0,0.0,0.0,0.0,0.0,0.0,0.0,0.0,0.0,0.0,0.0,0.0,0.0,0.0,0.0,0.0,0.0,0.0,0.0,0.0,0.0,0.0,0.0,0.0,0.0,0.0,0.0,0.0,0.0,0.0,0.0,0.0,0.0,0.0,0.0,0.0,0.0,0.0,0.0,0.0,0.0,0.0,0.0,0.0,0.0,0.0,-1.4897,-1.1568,0.0,0.0,0.0,0.0,0.0,0.0,0.0,0.0,0.0,0.0,0.0,0.0,0.0,0.0,0.0,0.0,0.0,0.0,0.0,0.0,0.0,0.0,0.0,-0.295,-0.293,-0.2882,-0.2935,-0.2987,0.0,0.0,0.0,0.0,0.0,0.0,0.0,-0.4456,-0.5094,-0.6176,-0.7564,-1.003,-1.3416,-1.2788,-1.1924,-1.0764,-0.772,0.0,0.0,0.0,0.0,0.0,0.0,0.0,0.0,0.0,0.0,0.0,0.0,0.0,0.0,0.0,0.0,0.0,0.0,0.0,0.0,0.0,0.0,0.0,0.0,0.0,0.0,0.0,0.0,0.0,0.0,0.0,0.0,0.0,0.0,0.0,0.0,0.0,0.0,0.0,0.0,0.0,0.0,0.0,0.0,0.0,0.0,0.0,0.0,0.0,0.0,0.0,0.0,0.0,0.0,0.0,0.0,0.0,0.0,0.0,0.0,0.0,0.0,0.0,-1.8859,-1.8711,-1.9606,-1.9679,-2.0977,-2.2864,-1.8005,-1.6789,-1.7973,-1.3739,0.0,0.0,0.0,0.0,0.0,0.0,0.0,0.0,0.0,0.0,0.0,0.0,0.0,0.0,0.0,0.0,0.0,0.0,0.0,0.0,0.0,-0.3162,-0.3162,-0.3142,-0.3212,-0.3203,-0.31,0.0,0.0,0.0,0.0,0.0,-0.5372,-0.585,-0.6599,-0.7631,-1.134,-1.4357,-1.6686,-1.6883,-1.7023,-1.6978,-1.203,-1.0975,-1.2704,0.0,0.0,0.0,0.0,0.0,0.0,0.0,0.0,0.0,0.0,0.0,0.0,0.0,0.0,0.0,0.0,0.0,0.0,0.0,0.0,0.0,0.0,0.0,0.0,0.0,0.0,0.0,0.0,0.0,0.0,0.0,0.0,0.0,0.0,0.0,0.0,0.0,0.0,0.0,0.0,0.0,-1.1949,-1.1798,0.0,0.0,0.0,0.0,0.0,0.0,0.0,0.0,0.0,0.0,0.0,0.0,0.0,-1.8996,-1.777,-1.925,-2.1054,-2.3112,-2.6316,-2.7046,-2.5573,-2.6234,-2.6353,-2.6098,-2.5302,0.0,-1.9816,-1.8493,0.0,0.0,0.0,0.0,0.0,0.0,0.0,0.0,0.0,0.0,0.0,0.0,0.0,0.0,0.0,0.0,0.0,0.0,0.0,0.0,0.0,-0.4723,-0.5469,-0.55,-0.7191,-0.7695,-0.6393,-0.6244,0.0,0.0,0.0,-0.5765,-0.5884,-0.7143,-0.9142,-1.1885,-1.4814,-1.7334,-1.943,-1.9747,-2.03,-2.0965,-1.7565,-1.5452,-1.4346,-1.2562,0.0,0.0,0.0,0.0,0.0,0.0,0.0,0.0,0.0,0.0,0.0,0.0,0.0,0.0,0.0,0.0,0.0,0.0,0.0,0.0,0.0,0.0,0.0,0.0,0.0,0.0,0.0,0.0,0.0,0.0,0.0,0.0,0.0,0.0,0.0,0.0,0.0,0.0,0.0,-1.0497,-1.1182,-1.111,-1.0773,-1.0072,0.0,0.0,0.0,0.0,0.0,0.0,0.0,0.0,0.0,-1.9943,-2.2821,-2.4631,-2.5294,-2.5829,-2.6707,-2.7895,-2.9265,-2.9685,-2.9228,-2.9567,-2.9533,-2.9211,-2.8789,-2.7284,-2.4921,-2.1739,-1.8961,-1.6517,0.0,0.0,0.0,0.0,-1.3908,-1.3675,0.0,0.0,0.0,0.0,0.0,0.0,0.0,0.0,0.0,0.0,0.0,0.0,-0.5041,-0.6715,-0.792,-0.8204,-1.0367,-1.0891,-0.9048,-0.8705,-0.7923,0.0,-0.6787,-0.7009,-0.6998,-0.9216,-1.2232,-1.5958,-1.78,-1.9791,-2.1814,-2.2443,-2.3096,-2.3692,-2.2621,-2.0237,-1.6815,-1.5892,-1.4213,-1.2021,0.0,0.0,0.0,0.0,0.0,0.0,0.0,0.0,0.0,0.0,0.0,0.0,0.0,0.0,0.0,0.0,0.0,0.0,0.0,0.0,0.0,0.0,0.0,0.0,0.0,0.0,0.0,0.0,0.0,0.0,0.0,0.0,0.0,0.0,0.0,0.0,0.0,-1.1651,-1.2378,-1.1707,-1.2966,-1.2953,0.0,0.0,0.0,0.0,0.0,0.0,-1.8562,-2.0254,-2.2737,-2.607,-2.7724,-2.957,-3.1651,-3.1567,-3.1698,-3.2036,-3.1681,-3.1613,-3.1765,-3.1952,-3.1935,-3.1732,-3.119,-3.0437,-2.9282,-2.491,-2.241,-2.112,-1.9253,-1.7684,-1.6663,-1.8027,-1.791,-1.7471,0.0,0.0,0.0,0.0,0.0,0.0,0.0,0.0,0.0,0.0,0.0,-0.6651,-0.7856,-0.8875,-0.98,-1.0647,-1.0623,-1.021,-0.9339,-0.9144,-0.8652,-0.7753,-0.8691,-0.9297,-0.9412,-1.2692,-1.5799,-1.8597,-2.0189,-2.1916,-2.3803,-2.5384,-2.5804,-2.516,-2.6453,-2.5289,-2.2124,-1.8782,-1.7543,-1.7527,-1.3497,0.0,0.0,0.0,0.0,0.0,0.0,0.0,0.0,0.0,0.0,0.0,0.0,0.0,0.0,0.0,0.0,0.0,0.0,0.0,0.0,0.0,0.0,0.0,0.0,0.0,0.0,0.0,0.0,0.0,0.0,0.0,0.0,0.0,0.0,0.0,0.0,0.0,0.0,-1.6027,-1.835,0.0,0.0,0.0,0.0,-1.8748,-2.0338,-2.2754,-2.6156,-2.6495,-2.839,-3.2221,-3.2832,-3.3607,-3.4758,-3.5154,-3.4996,-3.4336,-3.503,-3.4624,-3.3322,-3.4015,-3.3947,-3.3288,-3.3254,-3.253,-3.1156,-2.8555,-2.5997,-2.3781,-2.4329,-2.2933,-2.0909,-2.3586,-2.3736,-2.2904,0.0,0.0,0.0,0.0,0.0,0.0,0.0,0.0,-0.4218,-0.4671,-0.6589,-0.8172,-0.8829,-1.1248,-1.3009,-1.3438,-1.422,-1.4077,-1.2737,-1.2273,-1.1397,-0.9924,-0.9927,-1.1011,-1.3211,-1.5139,-1.7705,-2.0914,-2.1875,-2.3156,-2.4822,-2.5611,-2.6249,-2.6636,-2.6232,-2.5577,-2.4638,-2.2222,-2.0459,-1.9027,-1.6395,-1.3913,0.0,0.0,0.0,0.0,0.0,0.0,0.0,0.0,0.0,0.0,0.0,0.0,0.0,0.0,0.0,0.0,0.0,0.0,0.0,0.0,0.0,0.0,0.0,0.0,0.0,0.0,0.0,0.0,0.0,0.0,0.0,0.0,0.0,0.0,0.0,0.0,0.0,-1.8807,-2.1897,0.0,-2.0218,-2.1826,-2.3437,-2.4351,-2.6504,-2.8745,-3.0963,-3.1998,-3.3413,-3.5334,-3.6366,-3.7081,-3.7568,-3.7621,-3.7573,-3.7381,-3.6688,-3.6096,-3.5571,-3.4985,-3.4466,-3.41,-3.3717,-3.3255,-3.2647,-3.1408,-2.9204,-2.6622,-2.623,-2.551,-2.4741,-2.5723,-2.5774,-2.5425,0.0,0.0,0.0,0.0,0.0,0.0,0.0,0.0,-0.472,-0.5712,-0.8068,-1.0045,-1.1112,-1.3778,-1.5714,-1.6157,-1.6764,-1.657,-1.5201,-1.4537,-1.3421,-1.168,-1.1584,-1.3104,-1.6378,-1.7406,-1.9515,-2.27,-2.3413,-2.4386,-2.5588,-2.5995,-2.6542,-2.7198,-2.637,-2.6171,-2.6382,-2.5022,-2.312,-2.0958,-1.8793,-1.6991,-1.5276,0.0,0.0,0.0,0.0,0.0,0.0,0.0,0.0,0.0,0.0,0.0,0.0,0.0,0.0,0.0,0.0,0.0,0.0,0.0,0.0,0.0,0.0,0.0,0.0,0.0,0.0,0.0,0.0,0.0,0.0,0.0,0.0,0.0,0.0,-1.9337,-2.2207,-2.0986,-2.5139,-2.6909,-2.388,-2.654,-2.88,-2.9712,-3.1597,-3.3457,-3.5199,-3.5994,-3.6738,-3.7499,-3.8383,-3.8788,-3.8633,-3.8486,-3.8351,-3.8244,-3.7246,-3.6544,-3.6118,-3.5207,-3.4615,-3.4289,-3.3947,-3.362,-3.3313,-3.2883,-3.1426,-2.9453,-2.8638,-2.8031,-2.7664,-2.8076,-2.7973,-2.7461,0.0,0.0,0.0,0.0,0.0,0.0,0.0,-0.4485,-0.5524,-0.7779,-0.9957,-1.2262,-1.4701,-1.6382,-1.7707,-1.8703,-1.7912,-1.7073,-1.6375,-1.56,-1.4459,-1.2894,-1.3699,-1.5623,-1.8654,-1.9625,-2.1319,-2.3804,-2.4815,-2.5588,-2.6142,-2.6695,-2.6971,-2.6956,-2.7269,-2.7418,-2.7442,-2.6936,-2.5686,-2.3692,-2.0762,-2.0285,-2.0725,0.0,0.0,0.0,0.0,0.0,0.0,0.0,0.0,0.0,0.0,0.0,0.0,0.0,0.0,0.0,0.0,0.0,0.0,0.0,0.0,0.0,0.0,0.0,0.0,0.0,0.0,0.0,0.0,0.0,0.0,0.0,0.0,0.0,-1.8329,-2.2619,-2.5037,-2.2893,-2.8215,-3.0637,-2.691,-3.0887,-3.3997,-3.4706,-3.5308,-3.6641,-3.8903,-3.8314,-3.8294,-3.9005,-3.9022,-3.8684,-3.799,-3.7795,-3.7424,-3.684,-3.6649,-3.5978,-3.4866,-3.4785,-3.448,-3.4036,-3.3986,-3.3665,-3.3187,-3.3028,-3.259,-3.2045,-3.1655,-3.0667,-2.9566,-3.0723,-3.0409,-2.9088,0.0,0.0,0.0,0.0,0.0,0.0,0.0,-0.4587,-0.5763,-0.7312,-0.9934,-1.2348,-1.4072,-1.6118,-1.7795,-1.885,-1.749,-1.6701,-1.703,-1.4931,-1.3638,-1.3541,-1.5278,-1.7222,-1.9291,-2.0726,-2.2443,-2.4377,-2.4998,-2.5793,-2.6719,-2.7248,-2.7909,-2.8619,-2.7589,-2.7584,-2.8233,-2.6709,-2.6155,-2.6335,-2.4186,-2.261,-2.1212,0.0,0.0,0.0,0.0,0.0,0.0,0.0,0.0,0.0,0.0,0.0,0.0,0.0,0.0,0.0,0.0,0.0,0.0,0.0,0.0,0.0,0.0,0.0,0.0,0.0,0.0,0.0,0.0,0.0,0.0,0.0,-2.04,-2.348,-2.3557,-2.6769,-2.9407,-3.0239,-3.2767,-3.3803,-3.2407,-3.419,-3.5538,-3.5886,-3.6474,-3.7439,-3.9068,-3.8935,-3.9142,-3.9766,-3.9682,-3.9548,-3.9345,-3.8773,-3.8354,-3.8086,-3.6637,-3.5972,-3.5869,-3.4246,-3.3885,-3.448,-3.3732,-3.3563,-3.3751,-3.3288,-3.2716,-3.2111,-3.132,-3.0754,-3.0424,-3.0228,-2.9328,-2.8135,0.0,0.0,0.0,0.0,0.0,0.0,0.0,-0.5465,-0.6667,-0.8073,-1.0444,-1.2695,-1.4475,-1.63,-1.7615,-1.8226,-1.717,-1.6379,-1.6258,-1.4684,-1.4342,-1.5578,-1.7027,-1.869,-2.055,-2.2018,-2.3364,-2.4529,-2.5501,-2.619,-2.6598,-2.7368,-2.7975,-2.8447,-2.7589,-2.762,-2.8093,-2.6943,-2.6713,-2.7046,-2.6372,-2.5244,-2.3691,-2.1287,-2.0256,-1.9848,-1.755,-1.6705,-1.6346,-1.3896,0.0,0.0,0.0,0.0,0.0,0.0,0.0,0.0,0.0,0.0,0.0,0.0,0.0,0.0,0.0,0.0,0.0,0.0,0.0,0.0,0.0,0.0,0.0,0.0,-2.4567,-2.7567,-2.9549,-3.1133,-3.2659,-3.4106,-3.5155,-3.5708,-3.5382,-3.6143,-3.6701,-3.6843,-3.6958,-3.7643,-3.9049,-3.8731,-3.8847,-3.9463,-3.9379,-3.9194,-3.8891,-3.7853,-3.7469,-3.7716,-3.5675,-3.4933,-3.5277,-3.3725,-3.3266,-3.3594,-3.3108,-3.3055,-3.3319,-3.3002,-3.2623,-3.2191,0.0,0.0,0.0,0.0,-2.8838,-2.7843,0.0,0.0,0.0,0.0,0.0,0.0,0.0,-0.6405,-0.7489,-0.9143,-1.0886,-1.2808,-1.502,-1.6332,-1.7075,-1.7098,-1.6638,-1.586,-1.4814,-1.4773,-1.5801,-1.81,-1.8712,-1.9986,-2.2083,-2.3244,-2.4097,-2.4602,-2.6166,-2.6647,-2.6117,-2.7272,-2.7645,-2.7477,-2.7489,-2.7537,-2.7603,-2.7464,-2.7105,-2.6622,-2.7359,-2.7472,-2.6773,-2.2493,-2.2249,-2.3797,-2.0744,-1.9184,-1.833,-1.7075,0.0,0.0,0.0,0.0,0.0,0.0,0.0,0.0,0.0,0.0,0.0,0.0,0.0,0.0,0.0,0.0,0.0,0.0,0.0,0.0,0.0,0.0,0.0,0.0,-2.8734,-3.114,-3.5019,-3.5063,-3.497,-3.5645,-3.6245,-3.6599,-3.6599,-3.7062,-3.7317,-3.7238,-3.6959,-3.7375,-3.8707,-3.8063,0.0,0.0,0.0,-3.8422,-3.7736,-3.6205,-3.5785,-3.6421,-3.4322,-3.3461,-3.3732,-3.3177,-3.2594,-3.218,-3.2312,-3.2351,-3.2275,-3.2367,-3.2305,-3.2114,-3.1346,-3.0588,-2.9832,-2.9311,-2.8584,-2.7769,0.0,0.0,0.0,0.0,0.0,0.0,0.0,-0.4982,-0.5634,-0.7567,-0.9107,-1.081,-1.2806,-1.4181,-1.5194,-1.5784,-1.5121,-1.4607,-1.4492,-1.513,-1.6284,-1.805,-1.9506,-2.1039,-2.2756,-2.3851,-2.4638,-2.5155,-2.6346,-2.6647,-2.6129,-2.7645,-2.8275,-2.8024,-2.7888,-2.7929,-2.8103,-2.7544,-2.7162,-2.7047,-2.685,-2.6453,-2.6001,-2.6013,-2.5328,-2.4292,-2.3766,-2.3607,-2.3199,-2.0707,-2.0088,-1.9725,-1.6295,-1.4007,0.0,0.0,0.0,0.0,0.0,0.0,0.0,0.0,0.0,0.0,0.0,0.0,0.0,0.0,0.0,0.0,0.0,0.0,0.0,-2.8779,-3.1538,-3.3777,-3.5518,-3.5974,-3.6413,-3.7029,-3.723,-3.7228,-3.7085,-3.7198,-3.6967,-3.632,-3.6198,-3.6538,-3.7294,-3.7578,-3.8051,-3.8673,-3.9218,-3.9358,-3.9137,-3.7261,-3.6326,-3.6247,-3.3862,0.0,-3.3282,-3.2554,-3.2105,-3.1902,-3.2261,-3.2074,-3.1628,-3.2167,-3.1767,-3.0782,-3.0608,-2.9809,-2.8759,-2.9014,-2.8074,-2.6758,0.0,0.0,0.0,0.0,0.0,0.0,0.0,-0.4713,-0.5332,-0.681,-0.8082,-0.9482,-1.1184,-1.2259,-1.3126,-1.3792,-1.3385,-1.3591,-1.4816,-1.5629,-1.696,-1.888,-2.0439,-2.1956,-2.3352,-2.4066,-2.4725,-2.5312,-2.5983,-2.6103,-2.5601,-2.7126,-2.7565,-2.7117,-2.7554,-2.7685,-2.7741,-2.7334,-2.7231,-2.7208,-2.6944,-2.6691,-2.6461,-2.6554,-2.6118,-2.5322,-2.5045,-2.4846,-2.4343,-2.2235,-2.1871,-2.1802,-1.8809,-1.6504,-1.4651,0.0,0.0,0.0,0.0,0.0,0.0,0.0,0.0,0.0,0.0,0.0,0.0,0.0,0.0,-2.1114,-2.3433,0.0,-2.864,-3.2421,-3.3897,-3.5154,-3.6951,-3.6873,-3.6733,-3.7075,-3.7057,-3.7044,-3.7174,-3.6899,-3.6514,-3.6067,-3.5894,-3.598,-3.6286,-3.6823,-3.7255,-3.756,-3.8212,-3.8535,-3.8423,-3.6469,-3.5594,-3.5758,-3.3224,-3.2344,-3.2803,-3.2231,-3.1952,-3.1905,-3.2244,-3.2198,-3.1921,-3.2204,-3.1574,-3.0376,-3.0308,-2.9531,-2.8396,-2.8605,-2.7643,-2.6319,0.0,0.0,0.0,0.0,0.0,0.0,0.0,-0.4533,-0.519,-0.6224,-0.7204,-0.8327,-0.9769,-1.052,-1.1192,-1.1939,-1.1878,-1.2845,-1.5371,-1.6131,-1.7515,-1.9817,-2.12,-2.2488,-2.367,-2.4074,-2.4587,-2.5182,-2.567,-2.5645,-2.523,-2.6571,-2.6886,-2.6209,-2.7115,-2.7371,-2.7231,-2.7231,-2.7231,-2.7231,-2.7231,-2.7231,-2.7128,-2.6209,-2.5978,-2.6127,-2.5744,-2.5052,-2.4094,-2.268,-2.2329,-2.215,-2.0381,-1.8524,-1.6735,-1.5459,-1.4215,0.0,0.0,0.0,0.0,0.0,0.0,0.0,0.0,-1.7243,-1.8175,-2.098,-2.2995,-2.5159,-2.8097,-2.9643,-3.1725,-3.5569,-3.5755,-3.6099,-3.8017,-3.733,-3.667,-3.6682,-3.6789,-3.6967,-3.7174,-3.6774,-3.6374,-3.594,-3.5782,-3.5652,-3.566,-3.6138,-3.6414,-3.6373,-3.6943,-3.7223,-3.7223,-3.5198,-3.4519,-3.5027,-3.2611,-3.175,-3.2302,-3.201,-3.1834,-3.1723,-3.1894,-3.2035,-3.2087,-3.1992,-3.1343,-3.0345,-3.0051,-2.9322,-2.8348,-2.8235,-2.7422,-2.6306,0.0,0.0,0.0,0.0,0.0,0.0,0.0,0.0,-0.3927,-0.5347,-0.6006,-0.6918,-0.8448,-0.9103,-0.9955,-1.1196,-1.1139,-1.2414,-1.571,-1.6305,-1.7613,-2.0118,-2.1451,-2.2488,-2.3258,-2.3925,-2.4459,-2.4861,-2.5816,-2.5953,-2.5483,-2.7058,-2.7425,-2.6618,-2.7267,-2.7371,-2.7231,-2.7231,-2.7231,-2.7231,-2.7231,-2.7231,-2.7162,-2.66,-2.6138,-2.5893,-2.6725,-2.5747,-2.3989,-2.2615,-2.2223,-2.2016,-2.0715,-1.9517,-1.8037,-1.4955,-1.3357,-1.2115,-0.9983,-1.1289,-1.4093,-1.7712,-1.8324,-1.9686,0.0,-2.6146,-2.6,-2.8672,-3.0334,-3.173,-3.3185,-3.4029,-3.5088,-3.6668,-3.6789,-3.6897,-3.7141,-3.6877,-3.6689,-3.6676,-3.7613,-3.7947,-3.7086,-3.7496,-3.7198,-3.5644,-3.5569,-3.5524,-3.5514,-3.6102,-3.6384,-3.6369,-3.6503,-3.6511,-3.6511,-3.4587,-3.3624,-3.3686,-3.2189,-3.1511,-3.1586,-3.1569,-3.1219,-3.0658,-3.0388,-3.0608,-3.1156,-3.1156,-3.0769,-3.0127,-2.9392,-2.8758,-2.8235,-2.8186,-2.7679,-2.6805,0.0,0.0,0.0,0.0,0.0,0.0,0.0,0.0,0.0,-0.478,-0.5145,-0.576,-0.7038,-0.7835,-0.8527,-0.9166,-1.0221,-1.1969,-1.4664,-1.5525,-1.7284,-2.0327,-2.0522,-2.1203,-2.2627,-2.2573,-2.3055,-2.407,-2.4641,-2.5119,-2.5319,-2.6511,-2.6908,-2.6644,-2.7071,-2.7301,-2.7231,-2.7231,-2.7231,-2.7231,-2.7231,-2.7047,-2.6691,-2.5876,-2.4728,-2.3672,-2.539,-2.4877,0.0,-2.0618,-1.9424,-1.8965,-1.9057,-1.8294,-1.7046,-1.5255,-1.4098,-1.366,-1.4645,-1.5994,-1.7844,-2.0655,-2.26,-2.4538,-2.7338,-2.8095,-2.8885,-3.1551,-3.3143,-3.4267,-3.5138,-3.5503,-3.5967,-3.6838,-3.6683,-3.6589,-3.6979,-3.6487,-3.6132,-3.6105,-3.6405,-3.6517,-3.6447,-3.6292,-3.6042,-3.5519,-3.5504,-3.5504,-3.5504,-3.5733,-3.5728,-3.5319,-3.5324,-3.5094,-3.471,-3.3541,-3.291,-3.2894,-3.1955,-3.1482,-3.1524,-3.1249,-3.0759,-3.0182,-3.0054,-3.013,-3.0388,-3.0349,-2.997,-2.9438,-2.9061,-2.8531,-2.7989,-2.7989,-2.7516,-2.6814,0.0,0.0,0.0,0.0,0.0,0.0,0.0,0.0,0.0,0.0,-0.4562,-0.5118,-0.6222,-0.6901,-0.7425,-0.7772,-0.9133,-1.0986,-1.3398,-1.4367,-1.6227,-1.9392,-1.9214,-1.9866,-2.1572,-2.1165,-2.1615,-2.301,-2.3296,-2.3851,-2.4773,-2.5586,-2.6086,-2.6278,-2.6541,-2.6594,-2.6606,-2.6741,-2.6625,-2.6326,-2.6594,-2.6211,-2.5394,-2.4078,-2.2624,-2.1563,-2.4059,-2.3189,-2.038,-1.6979,-1.5614,-1.5532,-1.6706,-1.6455,-1.5608,-1.4814,-1.3982,-1.4036,-1.7352,-1.9003,-2.0395,-2.3102,-2.5891,-2.8122,-2.8632,-2.9907,-3.149,-3.3424,-3.4674,-3.5433,-3.5545,-3.5559,-3.5714,-3.615,-3.5855,-3.5897,-3.6907,-3.6108,-3.5547,-3.5859,-3.5138,-3.4805,-3.5366,-3.5273,-3.5208,-3.519,-3.54,-3.5579,-3.5774,-3.5609,-3.528,-3.4771,-3.4397,-3.3888,-3.323,-3.2572,-3.2243,-3.2243,-3.1706,-3.1482,-3.1509,-3.0889,-3.0277,-2.9675,-2.9811,-2.9751,-2.9599,-2.9493,-2.9275,-2.8925,-2.8574,-2.8212,-2.779,-2.774,-2.744,-2.6988,0.0,0.0,0.0,0.0,0.0,0.0,0.0,0.0,0.0,0.0,0.0,0.0,0.0,-0.649,-0.6878,-0.7724,-0.7843,-0.9192,-1.2241,-1.2881,-1.4272,-1.6713,-1.7785,-1.8828,-1.9844,-2.0002,-2.0603,-2.1832,-2.1918,-2.2605,-2.3766,-2.4259,-2.4993,-2.5684,-2.5358,-2.5164,-2.5196,-2.5633,-2.5131,-2.4054,-2.4897,-2.439,-2.2914,-2.0951,-1.9957,-1.9912,-2.311,-2.0839,-1.5745,-1.156,-1.099,-1.2341,-1.3982,-1.4453,-1.4155,-1.316,-1.2111,-1.2133,-1.5922,-1.8027,-2.0269,-2.5035,-2.7721,-2.97,-3.1575,-3.3581,-3.5057,-3.5156,-3.5677,-3.5686,-3.4506,-3.4295,-3.4223,-3.4251,-3.4309,-3.4921,-3.6704,-3.5604,-3.5104,-3.6261,-3.4438,-3.3258,-3.3819,-3.5042,-3.5446,-3.461,-3.513,-3.5789,-3.6417,-3.5848,-3.5489,-3.5474,-3.4203,-3.3215,-3.2557,-3.1898,-3.1497,-3.1497,-3.1482,-3.1482,-3.1437,-3.0627,-2.9759,-2.8966,-2.9385,-2.922,-2.8622,-2.8622,-2.8711,-2.8725,-2.7961,-2.769,-2.779,-2.7625,-2.761,-2.7505,0.0,0.0,0.0,0.0,0.0,0.0,0.0,0.0,0.0,0.0,0.0,0.0,0.0,0.0,0.0,0.0,-0.7416,-0.873,-1.0927,-1.163,-1.3184,-1.5901,-1.6151,-1.6717,-1.789,-1.7958,-1.8389,-1.9384,-1.9686,-2.0504,-2.169,-2.2232,-2.2767,-2.333,-2.3428,-2.3472,-2.3504,-2.396,-2.3724,-2.3092,-2.2871,-2.2103,-2.0893,-1.9211,-1.7645,-1.6418,0.0,-1.6036,-1.3968,-1.1589,-1.1003,-1.1497,-1.247,-1.2214,-1.1479,-1.1376,-1.265,-1.4689,-1.7393,-2.0422,-2.3696,-2.7182,-2.9587,-3.1619,-3.3455,-3.4394,-3.4906,-3.5148,-3.4014,-3.2803,-3.1918,-3.1464,-3.1464,-3.2277,-3.3185,-3.4001,-3.4671,-3.4311,-3.3886,-3.3594,-3.2643,-3.2154,-3.2477,-3.3231,-3.3953,-3.449,-3.5115,-3.5968,-3.7045,-3.6492,-3.6148,-3.6148,-3.4427,-3.3185,-3.2527,-3.1869,-3.1482,-3.1482,-3.1482,-3.13,-3.0821,-3.0118,-2.94,-2.8682,-2.8382,-2.8113,-2.7919,-2.7919,-2.7955,-2.7991,-2.7715,-2.7357,-2.7049,-2.6997,-2.6774,-2.6505,0.0,0.0,0.0,0.0,0.0,0.0,0.0,0.0,0.0,0.0,0.0,0.0,0.0,0.0,0.0,0.0,0.0,-0.7635,-0.9317,-0.9809,-1.1136,-1.3607,-1.3303,-1.3758,-1.5125,-1.4817,-1.5223,-1.6348,-1.6641,-1.7466,-1.8843,-1.9235,-1.9829,-2.0428,-2.0545,-2.0792,-2.11,-2.1388,-2.1244,-2.0844,-2.0502,-1.9727,-1.849,-1.7017,-1.5531,0.0,-1.3038,-1.2697,-1.2566,-1.1386,-1.0784,-1.0596,-1.1042,-1.099,-1.0942,-1.1947,-1.4101,-1.6834,-2.0086,-2.2789,-2.5528,-2.8807,-3.0813,-3.2384,-3.3661,-3.4187,-3.4249,-3.3954,-3.227,-3.0381,-2.9028,-2.8353,-2.8341,-2.9319,-3.0248,-3.1316,-3.2485,-3.2398,-3.2309,-3.2574,-3.2364,-3.2357,-3.2642,-3.332,-3.3742,-3.3769,-3.5265,-3.6447,-3.7045,-3.6701,-3.6492,-3.6492,-3.4547,-3.3185,-3.2527,-3.1869,-3.1482,-3.1482,-3.1482,-3.1243,-3.0851,-3.0462,-2.9804,-2.8921,-2.8487,-2.8023,-2.7625,-2.7625,-2.7458,-2.7255,-2.7255,-2.693,-2.6404,-2.6404,-2.6122,-2.5918,0.0,0.0,0.0,0.0,0.0,0.0,0.0,0.0,0.0,0.0,0.0,0.0,0.0,0.0,0.0,0.0,0.0,0.0,-0.7514,-0.758,-0.8325,-1.0008,-0.9652,-1.0124,-1.1759,-1.0965,-1.1379,-1.3058,-1.2842,-1.3675,-1.5301,-1.5425,-1.6165,-1.726,-1.688,-1.7165,-1.7915,-1.8078,-1.781,-1.7332,-1.792,-1.7179,-1.5672,-1.4364,-1.3643,-1.307,-1.133,-1.1096,-1.1505,-1.0812,-1.0226,-0.9815,-0.9909,-1.0937,-1.2535,-1.4731,-1.6309,-1.8502,-2.359,-2.4863,-2.5802,-2.9862,-3.1348,-3.1943,-3.2486,-3.3076,-3.3125,-3.1688,-3.0248,-2.8469,-2.585,-2.5121,-2.5082,-2.5713,-2.6009,-2.7341,-3.0606,-3.0315,-3.0702,-3.3173,-3.3476,-3.3665,-3.4163,-3.506,-3.4771,-3.2766,-3.5594,-3.7165,-3.6611,-3.6582,-3.6567,-3.6537,-3.4622,-3.3275,-3.2617,-3.1928,-3.1526,-3.1526,-3.1497,-3.1482,-3.1482,-3.1437,-3.0791,-2.9579,-2.9579,-2.8816,-2.7575,-2.7554,-2.7196,-2.6727,-2.6683,-2.6297,-2.5784,-2.5742,-2.5742,-2.5699,0.0,0.0,0.0,0.0,0.0,0.0,0.0,0.0,0.0,0.0,0.0,0.0,0.0,0.0,0.0,0.0,0.0,0.0,-0.6291,-0.6667,-0.7404,-0.8641,-0.9067,-0.9507,-1.0039,-0.9965,-1.024,-1.0883,-1.1035,-1.1666,-1.2725,-1.2986,-1.3531,-1.4277,-1.4516,-1.4774,-1.5093,-1.5381,-1.5134,-1.447,-1.445,-1.3852,-1.2929,-1.2561,-1.223,-1.191,-1.1984,-1.187,-1.1489,-1.0383,-1.0539,-1.1409,-1.267,-1.3932,-1.5311,-1.7137,-1.9317,-2.1628,-2.3957,-2.6098,-2.7964,-2.9391,-3.0019,-3.0675,-3.2098,-3.0983,-2.9652,-2.9826,-2.6937,-2.3726,-2.1624,-2.243,-2.361,-2.4182,-2.6983,-2.9742,-3.1571,-3.1897,-3.2146,-3.2915,-3.3573,-3.3972,-3.4182,-3.5857,-3.6103,-3.4128,-3.6103,-3.7554,-3.7883,-3.7913,-3.7689,-3.7195,-3.5759,-3.4666,-3.3978,-3.2841,-3.2273,-3.2258,-3.1764,-3.1482,-3.1452,-3.1001,-3.0328,-2.9579,-2.9042,-2.813,-2.6922,-2.6946,-2.6859,-2.665,-2.6198,-2.5953,-2.5734,-2.5367,-2.4935,-2.4513,0.0,0.0,0.0,0.0,0.0,0.0,0.0,0.0,0.0,0.0,0.0,0.0,0.0,0.0,0.0,0.0,0.0,0.0,0.0,-0.5404,-0.5971,-0.6938,-0.7008,-0.7308,-0.7939,-0.7714,-0.788,-0.8478,-0.874,-0.9239,-0.9904,-1.0198,-1.0597,-1.1145,-1.1396,-1.1759,-1.2209,-1.2552,-1.2621,0.0,0.0,-1.1938,-1.1463,-1.1273,-1.0965,-1.0764,-1.1516,-1.1769,-1.1804,-1.217,-1.2677,-1.3493,-1.5477,-1.671,-1.785,-2.0153,-2.2237,-2.4121,-2.5851,-2.7499,-2.8844,-2.9409,-2.9351,-2.9272,-2.9529,-2.8318,-2.6751,-2.5588,-2.315,-2.0628,-1.8663,-1.9538,-2.0996,-2.2269,-2.5003,-2.7853,-3.0221,-3.0949,-3.1648,-3.2635,-3.4046,-3.5074,-3.5367,-3.7107,-3.7838,-3.6731,-3.7659,-3.8078,-3.7584,-3.8093,-3.8078,-3.7434,-3.6163,-3.504,-3.4053,-3.3021,-3.2512,-3.2497,-3.1795,-3.1482,-3.1467,-3.0819,-3.0172,-2.9525,-2.8857,-2.7854,-2.674,-2.699,-2.6775,-2.6295,-2.624,-2.5908,-2.5421,-2.5114,-2.4556,-2.4015,0.0,0.0,0.0,0.0,0.0,0.0,0.0,0.0,0.0,0.0,0.0,0.0,0.0,0.0,0.0,0.0,0.0,0.0,0.0,0.0,0.0,-0.5194,-0.4647,-0.4819,-0.5869,-0.519,-0.5255,-0.6111,-0.6369,-0.6792,-0.731,-0.7599,-0.7944,-0.8399,-0.847,-0.8942,-0.9671,-0.9825,-1.0244,-1.0747,-1.0599,-1.0508,-1.0462,0.0,-0.9853,-0.9732,-1.036,-1.0959,0.0,0.0,-1.5312,-1.5815,-1.8257,-1.9497,-2.0536,-2.3401,-2.4879,-2.6115,-2.8263,-2.8746,-2.889,-2.9514,-2.8893,-2.7735,-2.6358,-2.5456,-2.3983,-2.07,-1.9467,-1.8416,-1.6422,-1.6895,-1.8312,-2.0586,-2.2164,-2.4468,-2.838,-2.9317,-3.0405,-3.2568,-3.4785,-3.6324,-3.6824,-3.8383,-3.9379,-3.929,-3.9364,-3.8676,-3.6971,-3.7928,-3.8182,-3.7434,-3.6252,-3.504,-3.3784,-3.3095,-3.2781,-3.2766,-3.199,-3.1559,-3.147,-3.0775,-3.0069,-2.9333,-2.875,-2.7851,-2.6762,-2.7287,-2.6864,-2.5953,-2.6412,-2.6041,-2.5171,-2.5027,-2.4541,-2.3981,0.0,0.0,0.0,0.0,0.0,0.0,0.0,0.0,0.0,0.0,-0.2393,-0.2393,0.0,0.0,0.0,0.0,0.0,0.0,0.0,0.0,0.0,0.0,-0.4764,-0.489,-0.478,-0.4536,-0.4461,-0.4589,-0.4861,-0.5463,-0.6355,-0.6619,-0.7168,-0.7921,-0.7933,-0.8121,-0.8393,-0.7979,-0.7702,-0.7504,-0.7541,-0.7669,-0.7893,-0.8273,0.0,0.0,-0.9089,0.0,0.0,0.0,-1.5404,-1.7847,-2.0979,-2.2826,-2.4294,-2.6086,-2.6769,-2.7221,-2.8873,-2.9033,-2.8723,-2.8902,-2.7842,-2.6534,-2.5555,-2.328,-2.0833,-1.8788,-1.7425,-1.5998,-1.399,-1.5699,-1.8268,-2.0798,-2.2876,-2.5716,-3.0106,-3.0699,-3.1404,-3.3262,-3.5045,-3.6324,-3.6824,-3.8383,-3.9185,-3.8616,-3.9095,-3.9275,-3.8931,-3.9125,-3.8676,-3.7449,-3.6701,-3.5938,-3.516,-3.4487,-3.4128,-3.4128,-3.2882,-3.197,-3.1492,-3.0748,-2.9812,-2.8679,-2.8532,-2.783,-2.672,-2.6836,-2.6707,-2.6512,-2.608,-2.6172,-2.6269,-2.5166,-2.4689,-2.4486,0.0,0.0,0.0,0.0,0.0,0.0,0.0,0.0,-0.2717,-0.2905,-0.2953,-0.2772,-0.2253,-0.2191,0.0,0.0,0.0,0.0,0.0,0.0,0.0,0.0,0.0,0.0,-0.4395,-0.402,-0.395,-0.4198,0.0,-0.4723,-0.5366,-0.5653,-0.6147,-0.6823,-0.6851,-0.6943,-0.7055,-0.7154,-0.6976,-0.6624,-0.6984,-0.6898,-0.6638,0.0,0.0,0.0,0.0,0.0,0.0,0.0,-1.3686,-1.6649,-2.0665,-2.3021,-2.459,-2.6091,-2.7062,-2.7897,-2.916,-2.9102,-2.8643,-2.839,-2.6795,-2.4728,-2.2543,-2.0566,-1.8362,-1.5297,-1.4483,-1.3943,-1.2622,-1.4074,-1.6296,-1.8751,-2.0854,-2.3699,-2.8001,-2.9767,-3.1231,-3.3034,-3.5607,-3.7171,-3.7039,-3.8502,-3.929,-3.8945,-3.923,-3.926,-3.8901,-3.8886,-3.8586,-3.7943,-3.6985,-3.6342,-3.6013,-3.4658,-3.377,-3.3416,-3.206,-3.1033,-3.0468,-2.9728,-2.9091,-2.8491,-2.8153,-2.7482,-2.6738,-2.7013,-2.6935,-2.6674,-2.67,-2.6635,-2.6492,-2.5793,-2.5279,-2.4796,0.0,0.0,0.0,0.0,0.0,0.0,0.0,-0.2833,-0.3077,-0.347,-0.3547,-0.3279,-0.2544,-0.1972,-0.1798,0.0,0.0,0.0,0.0,0.0,0.0,0.0,0.0,0.0,0.0,0.0,0.0,-0.3812,-0.3656,0.0,0.0,0.0,0.0,0.0,-0.5909,-0.6009,-0.6098,-0.6519,-0.6523,0.0,0.0,-0.644,0.0,0.0,0.0,0.0,0.0,0.0,0.0,0.0,-1.1113,-1.364,-1.7771,-2.0775,-2.3062,-2.4623,-2.6015,-2.7323,-2.8608,-2.8774,-2.8459,-2.8069,-2.5991,-2.3187,-2.0062,-1.85,-1.6495,-1.2246,-1.2026,-1.2322,-1.1448,-1.2394,-1.4108,-1.6561,-1.832,-2.0862,-2.5191,-2.7787,-3.0019,-3.2273,-3.5489,-3.7457,-3.7197,-3.8487,-3.9424,-3.9424,-3.9424,-3.9185,-3.8631,-3.8601,-3.8542,-3.8392,-3.7285,-3.6544,-3.6261,-3.4464,-3.3202,-3.2486,-3.1157,-3.0202,-2.9463,-2.8787,-2.8408,-2.8222,-2.7723,-2.7209,-2.6831,-2.7274,-2.7196,-2.6844,-2.722,-2.7063,-2.653,-2.6348,-2.5818,-2.514,0.0,0.0,0.0,0.0,0.0,0.0,0.0,-0.2871,-0.3214,-0.3555,-0.3698,-0.3741,-0.3661,-0.1573,-0.071,0.0,0.0,0.0,0.0,0.0,0.0,0.0,0.0,0.0,0.0,0.0,0.0,-0.2565,-0.1895,0.0,0.0,0.0,0.0,0.0,0.0,-0.5936,-0.5975,-0.5563,0.0,0.0,0.0,0.0,0.0,0.0,0.0,0.0,0.0,-0.5185,-0.545,-0.7113,-0.7988,-0.8825,-1.1315,-1.5584,-1.9934,-2.1581,-2.3055,-2.4526,-2.6496,-2.7561,-2.8035,-2.8,-2.5727,-2.2849,-2.0489,-1.8143,-1.5379,-1.1497,-1.1334,-1.1432,-0.9903,-1.0962,-1.2943,-1.5664,-1.6638,-1.8783,-2.3834,-2.5418,-2.7337,-3.0742,-3.3716,-3.5868,-3.6852,-3.8428,-3.9424,-3.9424,-3.9424,-3.9394,-3.9334,-3.9334,-3.9035,-3.8407,-3.7704,-3.6728,-3.5409,-3.4641,-3.3638,-3.2419,-3.1544,-3.0569,-2.9479,-2.8758,-2.802,-2.7403,-2.7469,-2.743,-2.7258,-2.7323,-2.731,-2.7258,-2.7134,-2.6985,-2.687,-2.6212,-2.5917,-2.5673,0.0,0.0,0.0,0.0,0.0,0.0,-0.2247,-0.2687,-0.312,-0.3708,-0.3768,-0.3766,-0.3797,-0.2531,-0.1463,0.0,0.0,0.0,0.0,0.0,0.0,0.0,0.0,0.0,0.0,0.0,-0.1481,-0.0958,-0.1715,0.0,0.0,0.0,0.0,0.0,0.0,-0.5111,-0.5382,-0.5172,0.0,0.0,0.0,0.0,0.0,0.0,0.0,0.0,0.0,0.0,-0.4947,-0.5608,-0.65,-0.7421,-0.8115,-1.0223,0.0,-1.7429,-1.9922,-2.1915,-2.4422,-2.5906,-2.6819,-2.6724,-2.434,-2.1653,-1.9875,-1.6771,-1.353,-1.0952,-1.0415,-1.0222,-0.9524,-1.047,-1.186,-1.3404,-1.4724,-1.6722,-2.0,-2.25,-2.535,-2.9104,-3.2687,-3.5296,-3.6178,-3.7717,-3.8486,-3.7919,-3.7904,-3.7904,-3.7904,-3.8471,-3.8448,-3.7737,-3.6707,-3.5671,-3.464,-3.3508,-3.2471,-3.1472,-3.0432,-2.9412,-2.847,-2.7816,-2.742,-2.7146,-2.7268,-2.7268,-2.7146,-2.7268,-2.7074,-2.667,-2.6883,-2.6739,-2.6327,-2.6044,-2.581,-2.563,0.0,0.0,0.0,0.0,0.0,-0.1318,-0.2112,-0.2506,-0.2942,-0.3574,-0.3621,-0.3554,-0.3508,-0.3018,-0.2091,-0.0603,0.0,0.0,0.0,0.0,0.0,0.0,0.0,0.0,0.0,0.0,-0.0869,-0.0771,-0.1484,-0.1519,0.0,0.0,-0.3063,-0.377,0.0,0.0,0.0,0.0,0.0,0.0,0.0,0.0,0.0,0.0,0.0,0.0,0.0,0.0,0.0,0.0,0.0,0.0,0.0,0.0,0.0,0.0,-1.6377,-1.866,-2.1324,-2.3434,-2.4908,-2.4989,-2.2784,-2.0246,-1.8882,-1.5661,-1.2332,-1.0148,-0.962,-0.939,-0.893,-1.0015,-1.1191,-1.1776,-1.3326,-1.5184,-1.7214,-1.9818,-2.276,-2.6222,-2.9695,-3.2474,-3.42,-3.6733,-3.7872,-3.6972,-3.7127,-3.7204,-3.688,-3.7199,-3.7229,-3.6981,-3.5583,-3.447,-3.3587,-3.2436,-3.1253,-2.9989,-2.9282,-2.8434,-2.7562,-2.7191,-2.6943,-2.6943,-2.7146,-2.7079,-2.6943,-2.7066,-2.6732,-2.6164,-2.6659,-2.6362,-2.5595,-2.5548,-2.5299,-2.4942,0.0,0.0,0.0,0.0,0.0,0.0,0.0,-0.2417,-0.2648,-0.3059,-0.3215,-0.3181,-0.2842,-0.2576,-0.2181,-0.1634,0.0,0.0,0.0,0.0,0.0,0.0,0.0,0.0,0.0,0.0,-0.085,-0.2568,-0.0859,-0.002,-0.0049,-0.1787,-0.2647,-0.2755,0.0,0.0,0.0,0.0,0.0,0.0,0.0,0.0,0.0,0.0,0.0,0.0,0.0,0.0,0.0,0.0,0.0,0.0,0.0,0.0,0.0,0.0,-1.2127,-1.4392,-1.687,-1.9785,-2.2317,-2.2927,-2.1186,-1.8907,-1.7688,-1.5122,-1.211,-0.8971,-0.9005,-0.9165,-0.778,-0.9426,-1.1079,-1.1269,-1.2664,-1.4382,-1.6257,-1.7535,-1.9165,-2.1643,-2.3743,-2.6507,-3.0377,-3.5249,-3.7872,-3.6972,-3.7706,-3.7796,-3.6972,-3.5563,-3.5199,-3.6071,-3.4713,-3.3284,-3.2069,-3.1676,-3.029,-2.794,-2.8433,-2.81,-2.7024,-2.7024,-2.6875,-2.6714,-2.6943,-2.6875,-2.6714,-2.6726,-2.6396,-2.594,-2.6375,-2.5787,-2.4831,-2.4664,-2.4249,-2.364,0.0,0.0,0.0,0.0,0.0,0.0,0.0,-0.1524,-0.1506,-0.1768,-0.1836,-0.19,-0.1974,-0.2027,-0.197,-0.1762,0.0,0.0,0.0,0.0,0.0,0.0,0.0,0.0,0.0,0.0,-0.1465,-0.082,-0.1465,-0.147,-0.0915,-0.2156,-0.2723,-0.2734,-0.3539,-0.3496,0.0,0.0,0.0,0.0,0.0,0.0,-0.5689,0.0,0.0,0.0,0.0,0.0,0.0,0.0,0.0,0.0,0.0,0.0,0.0,-0.7106,-0.8919,-1.0819,-1.2755,-1.4655,-1.6341,-1.7275,-1.6118,-1.4767,-1.4837,-1.2513,-1.0103,-0.929,-0.857,-0.7983,-0.7627,-0.8815,-1.0017,-1.0587,-1.2198,-1.3707,-1.471,-1.7531,-2.0326,-2.2585,-2.7597,-3.1582,-3.3363,-3.4767,-3.5507,-3.5169,-3.5345,-3.509,-3.4446,-3.3476,-3.3367,-3.4366,-3.2983,-3.1837,-3.0885,-3.042,-2.9658,-2.8753,-2.8239,-2.771,-2.7227,-2.6848,-2.6602,-2.6589,-2.6726,-2.6726,-2.6564,-2.624,-2.5482,-2.4467,-2.4627,-2.3917,-2.2835,-2.2803,-2.2624,-2.2414,0.0,0.0,0.0,0.0,0.0,0.0,0.0,-0.1136,-0.102,-0.1046,-0.1046,-0.1177,-0.1526,-0.1632,-0.1721,-0.1825,0.0,0.0,0.0,0.0,0.0,0.0,0.0,0.0,0.0,-0.2549,-0.2123,-0.1202,-0.2947,-0.336,-0.2517,-0.3094,-0.3374,-0.3385,-0.3471,-0.3343,0.0,0.0,0.0,0.0,0.0,0.0,-0.5108,0.0,0.0,0.0,0.0,0.0,0.0,0.0,0.0,0.0,0.0,0.0,0.0,0.0,-0.6185,-0.7548,0.0,-1.1644,-1.3028,-1.4022,-1.3085,-1.214,-1.3,-1.087,-0.8785,-0.9,-0.8402,-0.7726,-0.734,-0.8612,-0.9799,-1.0049,-1.1837,-1.346,-1.4219,-1.7155,-2.0101,-2.2498,-2.805,-3.1904,-3.2391,-3.3884,-3.462,-3.4314,-3.4188,-3.3832,-3.3152,-3.2175,-3.1885,-3.2541,-3.1494,-3.0618,-2.996,-2.9478,-2.9022,-2.8505,-2.7809,-2.7309,-2.6967,-2.6615,-2.6533,-2.6533,-2.6589,-2.6327,0.0,-2.548,-2.4475,-2.3084,-2.3364,-2.2772,-2.1858,-2.1572,-2.1451,-2.1318,0.0,0.0,0.0,0.0,0.0,0.0,0.0,0.0,0.0,-0.0851,-0.0807,-0.0979,-0.1419,-0.1366,-0.145,-0.1848,0.0,0.0,0.0,0.0,0.0,0.0,0.0,0.0,-0.25,-0.2519,-0.2742,-0.319,-0.4866,-0.5305,-0.4553,-0.4361,-0.4361,-0.4519,-0.3678,-0.3869,-0.476,-0.4442,-0.4041,-0.3661,-0.4248,-0.4453,0.0,0.0,0.0,0.0,0.0,0.0,0.0,0.0,0.0,0.0,0.0,0.0,0.0,0.0,0.0,0.0,0.0,-1.0026,-1.146,-1.2418,-1.1388,-1.0492,-1.1715,0.0,0.0,-0.8251,-0.8375,-0.81,-0.7004,-0.8697,-1.0105,-0.967,-1.1579,-1.3507,-1.4609,-1.6816,-1.9311,-2.204,-2.6188,-2.8748,-2.8628,-3.257,-3.4791,-3.403,-3.3989,-3.3646,-3.2764,-3.1538,-3.0899,-3.0849,-3.0354,-2.9796,-2.9212,-2.9001,-2.8398,-2.7344,-2.7344,-2.7055,-2.6584,-2.6584,-2.6571,-2.6533,-2.6533,-2.5809,-2.4623,-2.455,-2.351,-2.1927,-2.2419,-2.2159,-2.1429,-2.0751,-2.0414,-2.0236,0.0,0.0,0.0,0.0,0.0,0.0,0.0,0.0,0.0,0.0,-0.0906,-0.0961,-0.1169,-0.1168,-0.1312,0.0,0.0,0.0,0.0,0.0,0.0,0.0,0.0,0.0,-0.25,-0.2655,-0.2863,-0.3121,-0.4042,-0.4735,-0.518,-0.4374,-0.4358,-0.5007,-0.4605,-0.4506,-0.459,-0.3697,-0.3461,-0.3718,-0.4219,-0.4422,0.0,0.0,0.0,0.0,-0.4908,-0.487,0.0,0.0,0.0,0.0,0.0,0.0,0.0,0.0,-0.4311,-0.4644,-0.5761,0.0,-0.58,-0.6945,-0.6654,-0.6397,0.0,0.0,0.0,0.0,0.0,-0.7089,-0.7657,-0.8293,-0.8902,-0.9504,-1.115,-1.3061,-1.5084,-1.999,-2.4205,-2.6449,-2.9146,-3.0246,-2.885,-3.1203,-3.2743,-3.2594,-3.2465,-3.2047,-3.1398,-3.0905,-3.0498,-3.007,-2.9932,-2.9592,-2.9013,-2.8925,-2.8586,-2.7908,-2.7908,-2.762,-2.708,-2.708,-2.6866,-2.6533,-2.6533,-2.5951,-2.5059,-2.4309,-2.3068,-2.1572,-2.0808,-1.9751,-1.866,-1.8951,-1.867,-1.8154,0.0,0.0,0.0,0.0,0.0,0.0,0.0,0.0,0.0,0.0,0.0,0.0,0.0,0.0,0.0,0.0,0.0,0.0,0.0,0.0,0.0,0.0,0.0,-0.246,-0.25,-0.2732,-0.3113,-0.3654,-0.4413,-0.5216,-0.6035,-0.5488,-0.5483,-0.5914,-0.5353,-0.495,-0.4572,-0.3436,-0.3126,-0.3394,-0.3629,0.0,0.0,0.0,0.0,0.0,-0.4113,-0.3822,0.0,-0.3044,-0.3221,-0.3616,0.0,0.0,0.0,0.0,-0.3823,-0.3973,-0.432,-0.459,-0.4963,-0.5729,-0.574,-0.5751,-0.6392,0.0,0.0,0.0,0.0,-0.7154,-0.749,-0.8658,-0.96,-0.9682,-1.2057,-1.4767,-1.7277,-2.0991,-2.4383,-2.6803,-2.8967,-3.0134,-2.9854,-3.1161,-3.1966,-3.1966,-3.1508,-3.1082,-3.0779,-3.0448,-3.0093,-2.9804,-2.9792,-2.9641,-2.9327,-2.9063,-2.8775,-2.8473,-2.7971,-2.7426,-2.6756,-2.6876,-2.6297,-2.5276,-2.5734,-2.5097,-2.3752,-2.3283,-2.2159,-2.0546,-1.953,-1.8664,-1.7827,-1.7489,-1.725,-1.7162,0.0,0.0,0.0,0.0,0.0,0.0,0.0,0.0,0.0,0.0,0.0,0.0,0.0,0.0,0.0,0.0,0.0,0.0,0.0,0.0,0.0,0.0,0.0,-0.252,-0.2539,-0.2808,-0.3437,-0.4423,-0.5163,-0.6005,-0.6878,-0.6789,-0.6707,-0.6633,-0.5967,-0.5229,-0.4387,-0.3337,-0.2932,-0.2985,-0.2917,0.0,0.0,0.0,0.0,0.0,0.0,0.0,0.0,-0.2745,-0.2935,-0.2935,-0.2942,0.0,0.0,0.0,0.0,0.0,-0.3699,-0.4881,-0.6131,-0.6575,-0.6611,-0.6553,-0.6682,0.0,0.0,0.0,0.0,0.0,-0.755,-0.9507,-1.0937,-1.0331,-1.3728,-1.7434,-2.0294,-2.1702,-2.33,-2.5688,-2.7598,-2.9268,-3.0501,-3.1148,-3.1483,-3.1483,-3.0826,-3.0495,-3.0495,-3.0043,-2.9792,-2.9792,-2.9792,-2.9754,-2.9666,-2.9176,-2.885,-2.8662,-2.7663,-2.6915,-2.6227,-2.6218,-2.536,-2.3963,-2.4707,-2.3773,-2.1814,-2.1883,-2.0849,-1.9054,-1.8315,-1.7854,-1.7463,-1.6342,-1.6139,-1.6373,0.0,0.0,0.0,0.0,0.0,0.0,0.0,0.0,0.0,0.0,0.0,0.0,0.0,0.0,0.0,0.0,0.0,0.0,0.0,0.0,0.0,-0.2578,-0.2588,-0.2636,-0.275,-0.3008,-0.3754,-0.497,-0.5163,-0.5969,-0.73,-0.6726,-0.6311,-0.605,-0.6365,-0.5333,-0.3315,-0.2966,-0.2863,-0.2917,-0.2902,0.0,0.0,0.0,0.0,0.0,0.0,0.0,0.0,-0.2985,-0.3073,-0.3082,-0.3133,0.0,0.0,0.0,0.0,0.0,-0.4455,-0.4891,-0.5559,-0.7132,-0.6842,-0.6289,-0.669,0.0,0.0,0.0,0.0,0.0,0.0,-1.0585,-1.1094,-1.2089,-1.5744,-1.973,-2.3372,-2.5221,-2.6237,-2.6534,-2.8066,-2.8781,-2.7978,-2.9228,-3.0121,-3.0121,-2.9967,-2.9917,-2.9917,-2.9842,-2.9792,-2.9792,-2.9792,-2.9553,-2.9063,-2.8976,-2.8461,-2.7544,-2.7127,-2.6956,-2.6816,-2.5548,-2.4838,-2.4564,-2.4036,-2.2641,-2.078,-2.039,-1.9157,-1.7288,-1.6643,-1.5955,-1.5396,-1.5692,-1.5417,-1.5031,0.0,0.0,0.0,0.0,0.0,0.0,0.0,0.0,0.0,0.0,0.0,0.0,0.0,0.0,0.0,0.0,0.0,0.0,0.0,0.0,0.0,-0.2597,-0.2701,-0.2806,-0.29,-0.3422,-0.4276,-0.5476,-0.5727,-0.656,-0.7884,-0.768,-0.6913,-0.5665,-0.5223,-0.4488,-0.3561,-0.3096,-0.2919,-0.2955,0.0,0.0,0.0,0.0,0.0,0.0,0.0,0.0,0.0,0.0,-0.3154,-0.322,-0.3289,0.0,0.0,0.0,0.0,0.0,-0.3476,-0.4773,-0.6519,-0.7933,-0.8297,-0.8321,-0.8299,-0.8274,0.0,0.0,0.0,0.0,0.0,-1.1424,-1.3529,-1.6916,-1.8777,-2.0691,-2.3237,-2.3982,-2.4667,-2.5755,-2.692,-2.7945,-2.8617,-2.9312,-2.9792,-2.9792,-2.9792,-2.9792,-2.9792,-2.9503,-2.9162,-2.8753,-2.8304,-2.7572,-2.6665,-2.6292,-2.6332,-2.6944,-2.6071,-2.5319,-2.4599,-2.4232,-2.3372,-2.225,-2.2008,-2.1376,-2.0282,-1.9145,-1.8152,-1.7306,-1.6258,-1.5121,-1.4227,-1.3947,-1.3818,-1.3897,0.0,0.0,0.0,0.0,0.0,0.0,0.0,0.0,0.0,0.0,0.0,0.0,0.0,0.0,0.0,0.0,0.0,0.0,0.0,0.0,-0.2529,-0.2597,-0.2786,-0.3,-0.3203,-0.3847,-0.4815,-0.6127,-0.6463,-0.715,-0.8144,-0.8197,-0.733,-0.5634,-0.4419,-0.3833,-0.3729,-0.3191,-0.2957,-0.2967,0.0,0.0,0.0,0.0,0.0,0.0,0.0,0.0,0.0,0.0,0.0,0.0,0.0,0.0,0.0,-0.365,-0.3795,-0.3769,-0.3093,-0.5125,-0.7663,-0.8485,0.0,-0.9937,-1.0207,-1.027,-1.0214,0.0,0.0,0.0,0.0,-1.3069,-1.6322,-2.0637,-2.1296,-2.1857,-2.3365,-2.3335,-2.3839,-2.5667,-2.6525,-2.7735,-2.9656,-2.9666,-2.9591,-2.9591,-2.9299,-2.9224,-2.9402,-2.8585,-2.8022,-2.7794,-2.6828,-2.5838,-2.4889,-2.4044,-2.4334,-2.5745,-2.4443,-2.3338,-2.2388,-2.2524,-2.1671,-2.0044,-2.0014,-1.9658,-1.8966,-1.7582,-1.6887,-1.6554,-1.5495,-1.4356,-1.3323,-1.2178,-1.2198,-1.2795,0.0,0.0,0.0,0.0,0.0,0.0,0.0,0.0,0.0,0.0,0.0,0.0,0.0,0.0,0.0,0.0,0.0,0.0,0.0,0.0,-0.2529,-0.2597,-0.2786,-0.3197,-0.3819,-0.419,-0.5271,-0.7098,-0.7254,-0.7435,-0.7644,-0.7292,-0.6802,-0.621,-0.5176,-0.4104,-0.307,-0.2883,-0.2855,-0.2894,-0.2826,0.0,0.0,0.0,0.0,0.0,0.0,0.0,0.0,0.0,0.0,0.0,0.0,0.0,-0.3705,-0.3839,-0.3928,-0.4134,-0.4812,-0.6573,-0.8241,-0.8385,-0.8669,-0.9485,-1.1696,-1.1678,0.0,-1.3262,0.0,-1.3846,-1.4485,-1.6456,-1.8611,-2.0555,-2.2278,-2.4048,-2.5968,-2.6595,-2.7183,-2.7826,-2.8407,-2.8975,-2.9716,-2.9302,-2.8988,-2.8988,-2.7789,-2.7421,-2.8149,-2.6645,-2.6394,-2.7767,-2.6183,-2.5318,-2.5409,-2.4004,-2.3198,-2.3168,-2.198,-2.1599,-2.1985,-2.0575,-1.97,-1.9423,-1.872,-1.7326,-1.5675,-1.5502,-1.4655,-1.3379,-1.3404,-1.3035,-1.2395,-1.0929,-1.0791,-1.1357,0.0,0.0,0.0,0.0,0.0,0.0,0.0,0.0,0.0,0.0,0.0,0.0,0.0,0.0,0.0,0.0,0.0,0.0,0.0,-0.1847,-0.1895,-0.251,-0.2731,-0.3169,-0.3886,-0.4468,-0.5332,-0.6458,-0.7054,-0.6936,-0.6172,-0.6485,-0.5797,-0.4312,-0.4263,-0.3781,-0.2999,-0.2908,-0.29,-0.2969,-0.2974,-0.3073,0.0,0.0,0.0,0.0,0.0,0.0,0.0,0.0,-0.283,-0.3605,-0.3732,-0.3817,-0.3898,-0.3949,-0.4012,-0.4152,-0.459,-0.6287,-0.7996,-0.8254,-0.9073,0.0,0.0,-1.3066,-1.3423,-1.3179,-1.4533,-1.5804,-1.602,-1.7811,-1.9764,-2.1282,-2.3067,-2.4859,-2.6703,-2.6854,-2.6951,-2.7287,-2.7494,-2.7551,-2.7311,-2.7365,-2.7305,-2.6971,-2.6844,-2.6725,-2.6486,-2.5878,-2.5315,-2.4915,-2.3776,-2.2864,-2.2168,-2.1236,-2.0573,-2.0234,-2.0421,-2.0319,-1.9846,-1.9068,-1.854,-1.814,-1.6902,-1.6243,-1.5846,-1.4328,-1.342,-1.281,-1.1262,-1.0756,-1.081,-0.9743,-0.9526,-0.976,0.0,0.0,0.0,0.0,0.0,0.0,0.0,0.0,0.0,0.0,0.0,0.0,0.0,0.0,0.0,0.0,0.0,0.0,-0.1858,-0.1643,-0.1804,-0.2471,-0.2674,-0.3024,-0.3573,-0.4291,-0.5201,-0.6314,-0.7239,-0.6942,-0.5515,-0.5646,-0.4756,-0.305,-0.3389,-0.3305,-0.2904,-0.2861,-0.29,-0.3003,-0.3082,-0.3206,0.0,0.0,0.0,0.0,0.0,0.0,0.0,0.0,-0.2003,-0.3304,-0.3759,-0.3956,-0.4041,-0.4062,-0.423,-0.4548,-0.5129,-0.6463,-0.7887,-0.8669,0.0,0.0,-1.2894,-1.3894,-1.439,-1.4444,-1.5915,-1.7337,-1.7832,-1.8995,-2.0342,-2.1912,-2.3662,-2.5232,-2.647,-2.6552,-2.6652,-2.6944,-2.698,-2.6745,-2.6235,-2.6193,-2.6023,-2.5286,-2.5177,-2.4941,-2.4471,-2.3909,-2.3423,-2.2841,-2.1701,-2.0879,-2.029,-1.9424,-1.8846,-1.8643,-1.9073,-1.8904,-1.8088,-1.7875,-1.7343,-1.6499,-1.5495,-1.5138,-1.5129,-1.3241,-1.2213,-1.17,-0.949,-0.9081,-0.9559,-0.8528,-0.817,-0.8264,0.0,0.0,0.0,0.0,0.0,0.0,0.0,0.0,0.0,0.0,0.0,0.0,0.0,0.0,0.0,0.0,0.0,0.0,-0.1155,-0.1906,-0.2412,-0.2481,-0.2617,-0.2749,-0.2887,-0.3565,-0.4921,-0.6984,-0.7973,-0.7618,-0.5948,-0.4746,-0.3724,-0.2887,-0.282,-0.2755,-0.27,-0.2703,-0.2818,-0.3013,-0.3074,-0.326,-0.3508,0.0,0.0,0.0,0.0,0.0,0.0,0.0,-0.0972,-0.243,-0.3705,-0.4102,-0.4109,-0.4178,-0.4625,-0.5391,-0.6796,-0.7449,-0.8095,-0.9678,0.0,0.0,-1.3905,-1.3978,-1.4458,-1.7724,-1.8228,-1.8626,-2.0296,-2.0245,-2.0547,-2.2182,-2.4089,-2.53,-2.5324,-2.5955,-2.6653,-2.7205,-2.7281,-2.717,-2.6829,-2.6175,-2.5224,-2.4082,-2.256,-2.1865,-2.2149,-2.0542,-2.0339,-2.1943,-2.0196,-1.9703,-2.0471,-1.8966,-1.8328,-1.8553,-1.7844,-1.7266,-1.6932,-1.6862,-1.6018,-1.4601,-1.4601,-1.3922,-1.2734,-1.1992,-1.0891,-0.9552,-0.8205,-0.8164,-0.87,-0.7214,-0.6736,-0.6781,0.0,0.0,0.0,0.0,0.0,0.0,0.0,0.0,0.0,0.0,0.0,0.0,0.0,0.0,0.0,0.0,0.0,0.0,-0.1874,-0.1139,-0.0992,-0.1634,-0.1691,-0.2019,-0.2674,-0.3481,-0.4438,-0.552,-0.5302,-0.492,-0.4353,-0.3386,-0.2766,-0.2471,-0.2363,-0.2423,-0.2625,-0.2626,-0.2861,-0.322,-0.3285,-0.3477,-0.372,0.0,0.0,0.0,0.0,0.0,0.0,0.0,0.0,0.0,-0.386,-0.4273,-0.4246,-0.4265,-0.4438,-0.4713,-0.5234,-0.6986,0.0,-0.8525,0.0,0.0,0.0,-1.435,0.0,-1.8736,-1.853,-1.8115,-1.9167,-2.0153,-2.0878,-2.1112,-2.279,-2.4284,-2.502,-2.4942,-2.4611,-2.4169,-2.4118,-2.3526,-2.211,-2.2092,-2.1871,-2.1197,-2.1111,-2.0831,-2.041,-2.0267,-2.0196,-2.0124,-1.9568,-1.8986,-1.8381,-1.7959,-1.725,-1.6291,-1.6085,-1.6303,-1.6862,-1.6298,-1.5525,-1.4609,-1.4049,-1.3143,-1.1895,-1.0014,-0.8837,-0.8021,-0.6705,-0.6366,-0.6477,-0.5677,-0.5145,-0.4766,0.0,0.0,0.0,0.0,0.0,0.0,0.0,0.0,0.0,0.0,0.0,0.0,0.0,0.0,0.0,0.0,0.0,0.0,0.0,-0.1205,-0.0941,-0.1176,-0.1485,-0.1931,-0.251,-0.3084,-0.3605,-0.4066,-0.395,-0.3857,-0.38,-0.2764,-0.2266,-0.2253,-0.2262,-0.2392,-0.2607,-0.2682,-0.296,-0.3344,-0.3444,-0.3597,-0.3773,0.0,0.0,0.0,0.0,0.0,0.0,0.0,0.0,0.0,-0.4145,-0.4397,-0.4377,-0.4535,-0.4514,-0.4734,-0.6128,-0.7744,0.0,-0.9357,-1.14,-1.3553,-1.4222,-1.5561,-1.7184,-1.9096,-1.8783,-1.8612,-1.9696,-2.0109,-2.0456,-2.092,-2.1981,-2.2942,-2.3458,-2.3333,-2.3013,-2.2634,-2.2347,-2.1728,-2.0512,-2.035,-2.0083,-1.9284,-1.9534,-1.9393,-1.8745,-1.9233,-1.9104,-1.8155,-1.8155,-1.7596,-1.6426,-1.6148,-1.5704,-1.51,-1.4774,-1.4951,-1.5488,-1.5009,-1.4477,-1.3828,-1.2727,-1.153,-1.0206,-0.8581,-0.7432,-0.6666,-0.5877,-0.5415,-0.5017,-0.4478,-0.3813,-0.3161,0.0,0.0,0.0,0.0,0.0,0.0,0.0,0.0,0.0,0.0,0.0,0.0,0.0,0.0,0.0,0.0,0.0,0.0,0.0,0.0,-0.1793,-0.11,-0.179,-0.2245,-0.2374,-0.251,-0.2655,-0.2779,-0.3474,-0.3833,-0.3845,-0.2622,-0.2102,-0.2205,-0.2392,-0.2529,-0.2636,-0.2823,-0.3103,-0.3411,-0.3533,-0.3651,-0.3758,-0.3934,0.0,0.0,0.0,0.0,0.0,0.0,0.0,0.0,-0.4488,-0.446,-0.447,-0.4731,-0.4695,-0.5228,-0.8243,-0.8993,-0.9349,-1.1221,-1.2574,-1.3795,-1.5393,-1.7063,-1.8375,-1.8665,-1.8924,-1.9494,-2.0939,-2.0137,-1.9655,-2.1069,-2.145,-2.1392,-2.1161,-2.134,-2.1542,-2.1811,-2.1397,-2.1017,-2.0813,-2.0144,-1.9365,-1.8247,-1.7948,-1.7658,-1.7268,-1.7542,-1.7293,-1.6287,-1.6269,-1.5764,-1.4698,-1.4057,-1.3974,-1.4507,-1.3868,-1.3404,-1.3165,-1.3263,-1.3059,-1.2438,-1.0818,-0.9376,-0.8145,-0.7541,-0.6601,-0.555,-0.5415,-0.4815,-0.4018,-0.3411,-0.2674,-0.1879,0.0,0.0,0.0,0.0,0.0,0.0,0.0,0.0,0.0,0.0,0.0,0.0,0.0,0.0,0.0,0.0,0.0,0.0,0.0,0.0,-0.1956,-0.1635,-0.1951,-0.2152,-0.2245,-0.2422,-0.2529,-0.2559,-0.2481,-0.256,-0.2807,-0.2009,-0.1827,-0.2205,-0.2245,-0.2452,-0.2759,-0.2909,-0.3142,-0.3403,-0.3427,-0.3675,-0.4005,-0.3998,-0.333,0.0,0.0,0.0,0.0,0.0,0.0,0.0,-0.4551,-0.4526,-0.4338,-0.3637,-0.4206,-0.529,-0.6366,-0.7713,0.0,-1.0024,-1.2242,-1.4508,-1.5878,-1.6663,-1.7169,-1.7368,-1.8209,-1.8787,-1.8456,-1.9323,-1.9927,-1.9307,-2.0043,-2.0413,-1.9813,-1.9799,-1.9634,-1.9172,-1.9059,-1.8771,-1.8272,-1.771,-1.7293,-1.7076,-1.6596,-1.6225,-1.6141,-1.5751,-1.5358,-1.5138,-1.5138,-1.4775,-1.3924,-1.38,-1.3259,-1.2458,-1.2269,-1.1803,-1.1195,-1.2143,-1.188,-1.0514,-0.923,-0.8503,-0.8078,-0.6606,-0.5679,-0.5087,-0.3811,-0.3009,-0.2474,-0.1472,-0.1004,-0.0737,0.0,0.0,0.0,0.0,0.0,0.0,0.0,0.0,0.0,0.0,0.0,0.0,0.0,0.0,0.0,0.0,0.0,0.0,0.0,0.0,-0.1963,-0.1851,-0.1973,-0.2066,-0.2104,-0.2242,-0.2342,-0.2402,-0.1808,-0.1791,-0.2297,-0.1879,-0.1823,-0.2058,-0.2031,-0.2304,-0.2816,-0.2974,-0.3203,-0.3452,-0.3485,-0.3667,-0.3934,-0.4113,-0.364,-0.2703,-0.148,0.0,0.0,0.0,0.0,0.0,0.0,0.0,-0.4468,-0.404,-0.4387,-0.5137,-0.611,0.0,0.0,-1.0747,0.0,-1.3617,-1.481,-1.5129,-1.5225,-1.5488,-1.6908,-1.7958,-1.749,-1.839,-1.892,-1.8096,-1.8654,-1.8859,-1.7858,-1.7705,-1.7417,-1.6722,-1.6627,-1.6486,-1.6216,-1.5753,-1.5449,-1.5449,-1.5187,-1.4988,-1.4988,-1.4845,-1.4547,-1.4053,-1.4045,-1.3575,-1.2713,-1.2577,-1.2228,-1.1553,-1.1162,-1.016,-0.8849,-0.994,-0.9866,-0.871,-0.7573,-0.6931,-0.6597,-0.5169,-0.4209,-0.3542,-0.2473,-0.1673,-0.0938,0.0201,0.0736,0.1005,0.0,0.0,0.0,0.0,0.0,0.0,0.0,0.0,0.0,0.0,0.0,0.0,0.0,0.0,0.0,0.0,0.0,0.0,0.0,0.0,0.0,-0.1872,-0.1939,-0.1963,-0.1979,-0.2059,-0.2161,-0.2302,-0.1428,-0.1374,-0.2096,-0.1865,-0.1778,-0.1812,-0.1759,-0.2138,-0.2824,-0.3001,-0.3229,-0.3493,-0.3557,-0.3651,-0.3796,-0.4179,-0.3991,-0.3283,-0.1424,-0.0433,0.0,0.0,0.0,0.0,0.0,0.0,-0.4616,-0.4792,-0.475,-0.4924,-0.6153,0.0,-0.8978,-1.1649,-1.2166,-1.2281,-1.331,-1.334,-1.3277,-1.3615,-1.5379,-1.6857,-1.6857,-1.7339,-1.754,-1.7171,-1.7266,-1.7047,-1.5998,-1.5761,-1.5414,-1.4693,-1.4616,-1.4634,-1.4629,-1.4208,-1.4027,-1.4027,-1.3893,-1.3831,-1.3831,-1.4064,-1.3841,-1.2925,-1.2854,-1.2374,-1.1418,-1.1105,-1.0946,-1.0891,-0.9869,-0.8424,-0.6733,-0.7343,-0.7423,-0.6994,-0.6059,-0.5335,-0.4749,-0.3675,-0.2741,-0.1805,-0.1069,-0.0268,0.0537,0.1873,0.2542,0.308,0.0,0.0,0.0,0.0,0.0,0.0,0.0,0.0,0.0,0.0,0.0,0.0,0.0,0.0,0.0,0.0,0.0,0.0,0.001,0.0,0.0,-0.1771,-0.182,-0.1851,-0.1911,-0.2035,-0.2161,-0.2302,-0.1428,-0.1383,0.0,-0.148,-0.1301,-0.147,-0.1454,-0.1994,-0.2878,-0.2917,-0.3121,-0.3419,-0.3485,-0.3698,-0.397,-0.4026,-0.3365,-0.253,-0.3471,-0.2165,0.0,0.0,-0.013,0.0,0.0,0.0,-0.4516,-0.4547,-0.4705,-0.4869,-0.49,0.0,-0.9484,0.0,-1.1169,-1.1794,-1.2396,-1.2363,-1.2389,-1.2837,-1.4144,-1.5172,-1.5053,-1.6013,-1.6733,-1.6343,-1.5813,-1.538,-1.521,-1.4702,-1.4204,-1.3874,-1.4063,-1.4132,-1.3865,-1.3674,-1.3579,-1.3579,-1.3014,-1.2699,-1.2699,-1.2274,-1.1851,-1.1556,-1.1348,-1.1066,-1.0721,-0.9959,-0.9525,-0.9355,-0.762,-0.6441,-0.5844,-0.4913,-0.4721,-0.5147,-0.468,-0.4212,-0.3609,-0.2674,-0.174,-0.0803,0.0802,0.1741,0.2214,0.3482,0.4408,0.4929,0.0,0.0,0.0,0.0,0.0,0.0,0.0,0.0,0.0,0.0,0.0,0.0,0.0,0.0,0.0,-0.0309,-0.0697,-0.0658,0.0044,0.0033,-0.0239,-0.0766,-0.1401,-0.1795,-0.19,-0.2035,-0.2161,-0.2302,-0.1047,0.0,0.0,-0.2119,-0.2182,-0.1915,-0.2257,-0.2695,-0.3191,-0.3213,-0.334,-0.3525,-0.3628,-0.371,-0.3795,-0.3942,-0.3393,-0.2488,-0.2081,-0.1099,0.0,0.0,-0.1176,-0.2727,-0.3205,0.0,0.0,0.0,-0.4617,-0.4742,-0.5031,-0.6633,-0.8415,0.0,-0.9925,-1.0438,-1.0798,-1.0899,-1.1016,-1.1442,-1.2163,-1.2902,-1.3405,-1.415,-1.4584,-1.4169,-1.4064,-1.3832,-1.321,-1.289,-1.2537,-1.2022,-1.2075,-1.2186,-1.2234,-1.2,-1.1968,-1.2166,-1.1696,-1.1411,-1.1352,-1.1071,-1.0713,-1.022,-1.0091,-0.9846,-0.9432,-0.864,-0.7929,-0.7101,-0.6027,-0.4982,-0.412,-0.3118,-0.3193,-0.401,-0.328,-0.2339,-0.1266,-0.0267,0.0734,0.1737,0.2808,0.3542,0.4138,0.5134,0.5917,0.6563,0.0,0.0,0.0,0.0,0.0,0.0,0.0,0.0,0.0,0.0,0.0,0.0,0.0,0.0,0.0,0.0,-0.0518,-0.0461,-0.003,0.0,0.0,0.0,-0.0813,-0.1445,-0.182,-0.1662,-0.161,-0.1708,0.0,0.0,-0.1328,-0.2556,-0.2911,0.0,-0.2969,-0.3238,-0.3407,-0.3493,-0.3581,-0.3656,-0.3718,-0.3689,-0.3606,-0.3703,-0.3433,-0.2841,-0.1587,-0.0914,-0.0613,-0.0613,-0.2165,-0.399,-0.3218,-0.37,0.0,0.0,0.0,-0.416,0.0,0.0,-0.7204,-0.8157,-0.8721,-0.9096,-0.9372,-0.9517,-0.9649,-0.9889,-1.0202,-1.0647,-1.1434,-1.2355,-1.2933,-1.2581,-1.2668,-1.2535,-1.1712,-1.1447,-1.1069,-1.0421,-1.0429,-1.048,-1.0521,-1.0451,-1.0523,-1.082,-1.0668,-1.0415,-1.0186,-1.0128,-0.9768,-0.9059,-0.8932,-0.867,-0.8091,-0.7259,-0.6236,-0.5019,-0.4417,-0.36,-0.2548,-0.1614,-0.1592,-0.2158,-0.1463,-0.0468,0.08,0.187,0.2937,0.4005,0.461,0.5266,0.5975,0.6828,0.7668,0.8366,0.0,0.0,0.0,0.0,0.0,0.0,0.0,0.0,0.0,0.0,0.0,0.0,-0.0695,-0.0479,-0.05,-0.0918,-0.0167,0.0235,0.0015,0.0,0.0,0.0,-0.0058,0.0,-0.159,-0.0628,-0.0115,-0.0123,0.0,0.0,-0.1323,-0.2213,-0.286,-0.3243,-0.3082,-0.3157,-0.3413,0.0,0.0,0.0,-0.3656,-0.3605,-0.3559,-0.3186,-0.325,-0.3612,-0.4101,-0.3415,-0.2272,-0.2272,-0.2378,-0.2756,-0.4135,-0.4594,-0.4577,0.0,0.0,0.0,0.0,-0.5431,0.0,-0.6996,-0.7599,-0.8062,-0.8388,-0.8474,-0.848,-0.8493,-0.8546,-0.8659,-0.9102,-1.1042,-1.25,-1.2483,-1.2064,-1.164,-1.1624,-1.1043,-1.0364,-0.9632,-0.9854,-0.9751,-0.8963,-0.9583,-1.0041,-1.0054,-1.0264,-1.0186,-0.9601,-0.9414,-0.9001,-0.8305,-0.8023,-0.7553,-0.6919,-0.5652,-0.4525,-0.3485,-0.2693,-0.211,-0.1708,-0.0411,0.0598,0.1236,0.1044,0.1269,0.1871,0.3008,0.4135,0.5259,0.5986,0.6698,0.7469,0.8837,0.985,1.06,0.0,0.0,0.0,0.0,0.0,0.0,0.0,0.0,0.0,0.0,0.0,0.0,0.0,-0.0665,-0.0783,-0.1042,-0.0321,0.0102,0.0006,0.0,0.0,0.0,0.0,-0.0182,-0.0565,-0.0194,-0.0447,0.0,0.0,-0.2001,-0.2079,-0.2522,-0.2917,-0.3238,-0.3203,-0.3315,-0.3547,-0.3811,0.0,-0.4046,-0.3914,-0.377,-0.3662,-0.3607,-0.3539,-0.3479,-0.357,-0.3662,-0.378,-0.4002,-0.3976,-0.3999,-0.4678,-0.4786,-0.4439,-0.3352,-0.3423,0.0,0.0,0.0,0.0,-0.6342,-0.6978,-0.7432,-0.751,-0.7996,-0.8421,-0.8421,-0.8421,-0.8427,-0.8586,-0.9486,-1.0333,-1.0592,-1.044,-1.0341,-1.0341,-1.0126,-0.9707,-0.9012,-0.9153,-0.9084,-0.8373,-0.8484,-0.8675,-0.8739,-0.8583,-0.8428,-0.8104,-0.7755,-0.7245,-0.6473,-0.6119,-0.5528,-0.4643,-0.3635,-0.2841,-0.2237,-0.1059,-0.028,0.0284,0.1671,0.2634,0.3332,0.4195,0.4571,0.4662,0.5548,0.6514,0.7548,0.8366,0.9128,0.9832,1.0788,1.1549,1.2243,0.0,0.0,0.0,0.0,0.0,0.0,0.0,0.0,0.0,0.0,0.0,0.0,0.0,0.0,-0.1012,-0.1276,-0.0793,-0.0337,-0.0024,0.0,0.0,0.0,0.0,0.0,0.0,0.0,-0.0653,-0.1997,-0.1984,0.0,0.0,-0.2617,-0.2861,-0.318,-0.3264,-0.3427,0.0,-0.3976,-0.4137,-0.4185,-0.3883,-0.393,-0.4149,-0.4022,-0.4073,-0.4171,-0.3747,-0.4025,-0.4596,-0.4572,-0.4474,-0.4412,-0.4676,-0.4771,-0.4555,-0.3456,0.0,0.0,-0.3113,0.0,0.0,-0.5579,-0.5675,-0.5841,-0.6873,-0.7568,-0.7943,-0.7943,-0.7883,-0.783,-0.7824,-0.809,-0.8521,-0.9093,-0.9093,-0.9033,-0.9033,-0.8974,-0.8659,-0.8084,-0.8196,-0.8051,-0.745,-0.7486,-0.7566,-0.7621,-0.7481,-0.7224,-0.6843,-0.646,-0.5864,-0.4999,-0.4615,-0.3953,-0.3019,-0.2345,-0.1618,-0.0893,0.0223,0.1223,0.1998,0.3391,0.4339,0.5042,0.6578,0.6861,0.6335,0.7434,0.8426,0.9361,1.0309,1.121,1.2081,1.2753,1.3434,1.41,0.0,0.0,0.0,0.0,0.0,0.0,0.0,0.0,0.0,-0.0784,0.0,0.0,0.0,0.0,0.0,-0.1649,-0.1521,-0.1035,-0.0133,-0.0023,0.0006,0.0006,0.0002,0.0,0.0,0.0,-0.0575,-0.1744,-0.1982,-0.2161,-0.2312,-0.2441,-0.2722,-0.3109,-0.3246,-0.3482,-0.3809,-0.4013,-0.4149,-0.4197,-0.3564,-0.4031,-0.503,-0.4332,-0.4751,-0.5631,-0.4831,-0.4654,-0.4652,-0.3925,-0.3695,-0.3811,-0.4194,-0.4586,-0.4897,-0.4924,0.0,0.0,0.0,0.0,0.0,-0.4675,-0.3643,-0.3345,-0.6246,-0.6977,-0.7074,-0.7079,-0.6858,-0.6632,-0.6563,-0.6735,-0.7176,-0.815,-0.8037,-0.7871,-0.7871,-0.7652,-0.7331,-0.6907,-0.6853,-0.6691,-0.6209,-0.6529,-0.6853,-0.6853,-0.7074,-0.6794,-0.586,-0.5592,-0.4999,-0.3965,-0.3524,-0.2961,-0.2119,-0.1732,-0.0837,0.05,0.1336,0.2273,0.3416,0.4805,0.5747,0.6401,0.8119,0.8019,0.678,0.862,0.9766,1.0481,1.1631,1.2849,1.3996,1.4662,1.5418,1.6162,0.0,0.0,0.0,0.0,0.0,0.0,0.0,0.0,-0.0851,0.0,0.0,0.0,-0.0829,-0.0958,-0.1205,-0.1598,-0.1667,-0.1744,-0.1866,-0.0605,0.0145,0.0145,0.0052,0.0,0.0,0.0,-0.0164,-0.0499,-0.1479,-0.2122,-0.2443,-0.2539,-0.2814,-0.3246,-0.3328,-0.3531,-0.3809,-0.4013,-0.4592,-0.5244,-0.4004,-0.4106,-0.4853,-0.3894,-0.3622,-0.3755,-0.3644,-0.3845,-0.4154,-0.3594,-0.39,-0.452,-0.4622,-0.48,0.0,-0.355,-0.3399,0.0,-0.0668,0.0,0.0,0.0,0.0,0.0,-0.2035,-0.3991,-0.5906,-0.6,-0.5659,-0.5341,-0.5362,-0.5441,-0.555,-0.5819,-0.6568,-0.6988,-0.6709,-0.6602,-0.6333,-0.5692,-0.5742,-0.5534,-0.4677,-0.4952,-0.5226,-0.5285,-0.5395,-0.5449,-0.5454,-0.4791,-0.3735,-0.2291,-0.2179,-0.1506,-0.0334,0.039,0.1332,0.2538,0.3704,0.4645,0.5458,0.7084,0.7947,0.8305,0.9959,1.0506,1.0256,1.1003,1.1439,1.1704,1.3295,1.3912,1.4069,1.5495,1.632,1.6893,0.0,0.0,0.0,0.0,0.0,0.0,0.0,-0.0951,-0.1061,0.0,0.0,0.0,-0.0666,-0.0962,-0.1297,-0.1582,-0.1748,-0.1906,-0.2047,-0.0901,-0.0089,0.0188,0.0203,0.0144,0.0004,0.0,0.0,-0.0,-0.0741,-0.1568,-0.2462,-0.2645,-0.2915,-0.3264,0.0,0.0,0.0,-0.4012,-0.4525,-0.5071,-0.3892,-0.3727,-0.4141,-0.3699,-0.3793,-0.4131,-0.3768,-0.3809,-0.3967,-0.3302,-0.3599,-0.4216,-0.3996,-0.4397,-0.4668,-0.316,-0.2811,0.0,0.0,0.0,0.0,-0.2235,0.0,0.0,-0.0348,-0.2583,-0.5065,-0.4931,-0.4811,-0.4624,-0.4494,-0.4515,-0.4405,-0.4018,-0.4776,-0.542,-0.5475,-0.5366,-0.5152,-0.4718,-0.4772,-0.4666,-0.4076,-0.4187,-0.4298,-0.4411,-0.4298,-0.4242,-0.4294,-0.3347,-0.2402,-0.1621,-0.106,-0.0223,0.089,0.1831,0.2932,0.4139,0.519,0.6234,0.7315,0.8619,0.9496,1.0061,1.1513,1.2241,1.258,1.3057,1.3084,1.2965,1.4467,1.5029,1.5133,1.6359,1.7031,1.7478,0.0,0.0,0.0,0.0,0.0,0.0,0.0,-0.1022,-0.1206,0.0,-0.114,-0.0971,-0.0557,-0.1096,-0.1488,-0.1481,-0.173,-0.1689,-0.121,-0.0883,-0.0438,0.0188,0.0392,0.035,0.0061,0.0019,0.0,0.0,0.0,-0.0779,-0.2274,-0.2705,-0.3014,-0.322,0.0,0.0,0.0,-0.4017,-0.416,-0.4194,-0.3628,-0.3384,-0.3393,-0.3796,-0.456,-0.53,-0.4329,-0.4043,-0.3914,-0.2975,-0.2876,-0.3099,-0.2749,-0.3427,-0.4209,-0.3403,-0.19,0.0,0.0,0.0,0.0,-0.0029,-0.2013,0.0,-0.0743,-0.2178,-0.4026,-0.3903,-0.4094,-0.4149,-0.3738,-0.3799,-0.358,-0.2802,-0.2968,-0.3466,-0.4187,-0.4021,-0.3855,-0.3855,-0.3855,-0.3849,-0.3837,-0.3834,-0.3825,-0.3868,-0.36,-0.3272,-0.272,-0.1615,-0.1061,-0.1229,0.0,0.1056,0.2003,0.3039,0.4191,0.5584,0.6234,0.7362,0.9026,0.968,1.058,1.1661,1.2802,1.3543,1.4071,1.4767,1.4711,1.4278,1.5282,1.6009,1.6523,1.7143,1.7601,1.8024,0.0,0.0,0.0,0.0,0.0,0.0,0.0,0.0,-0.0918,-0.143,-0.141,-0.1305,-0.1218,-0.2074,-0.2137,-0.0831,-0.1386,-0.1415,-0.0478,-0.0254,-0.0021,0.0267,0.0369,0.0413,0.0404,0.0138,0.0,0.0,0.0,-0.0491,-0.1452,-0.2498,-0.3079,-0.3294,-0.3547,0.0,0.0,-0.4055,-0.3992,-0.3878,-0.449,-0.4533,-0.4235,-0.4173,-0.3711,-0.309,-0.2863,-0.2961,-0.3128,-0.2582,-0.1845,-0.1283,-0.1929,-0.1669,-0.1507,-0.3532,-0.3921,-0.3152,-0.067,-0.0742,-0.128,-0.0262,-0.044,0.0,-0.3144,-0.1809,-0.0692,-0.2552,-0.289,-0.2826,-0.2883,-0.2912,-0.2914,-0.2747,-0.2238,-0.2125,-0.2968,-0.2968,-0.2968,-0.2968,-0.2968,-0.2938,-0.2855,-0.2683,-0.2651,-0.2929,-0.2733,-0.2294,-0.1549,-0.0821,0.0056,0.0947,0.1724,0.2885,0.4539,0.4812,0.5738,0.7379,0.8106,0.9089,1.0281,1.1382,1.226,1.3012,1.4064,1.4824,1.5285,1.5808,1.568,1.5211,1.5894,1.6167,1.6272,1.7186,1.7816,1.8323,0.0,0.0,0.0,0.0,0.0,0.0,0.0,0.0,-0.0636,-0.1574,-0.1115,-0.0705,-0.0705,-0.1663,-0.2169,-0.1822,-0.1798,-0.1518,-0.0836,-0.0386,-0.0033,0.0233,0.0349,0.0495,0.0693,0.0533,0.0448,0.0448,0.0146,-0.0531,-0.1574,-0.241,-0.2778,-0.2781,-0.3375,-0.3518,-0.3348,-0.395,-0.3704,-0.2945,-0.3416,-0.3489,-0.3356,-0.3232,-0.2885,-0.2384,-0.2382,-0.2335,-0.2188,-0.1232,-0.0818,-0.0636,0.0108,0.1144,0.1475,-0.1684,-0.3465,-0.4073,-0.2516,-0.2161,-0.2187,-0.196,-0.2156,0.0,0.0,-0.1417,-0.0735,-0.1089,-0.154,-0.1871,-0.2003,-0.2019,-0.2019,-0.2019,-0.1173,-0.0802,-0.1701,-0.1821,-0.1803,-0.1803,-0.183,-0.185,-0.1816,-0.1605,-0.1489,-0.146,-0.1121,-0.0725,-0.0211,0.0697,0.1581,0.2435,0.3379,0.4484,0.5747,0.6396,0.7309,0.8435,0.9452,1.0477,1.1539,1.2706,1.3648,1.4391,1.5219,1.5908,1.6398,1.6539,1.6612,1.6629,1.6625,1.6552,1.6602,1.7333,1.7691,1.7978,-0.0559,0.0,0.0,0.0,0.0,0.0,0.0,0.0,-0.0349,-0.132,-0.0204,0.0688,0.0688,-0.0334,-0.1308,-0.2025,-0.1639,-0.1235,-0.0951,-0.044,-0.0012,0.0296,0.0333,0.0484,0.0801,0.0922,0.0965,0.0943,0.0268,-0.0651,-0.1799,-0.2415,-0.2574,-0.2393,-0.3271,-0.3372,0.0,-0.3854,-0.3365,-0.1986,-0.2034,-0.211,-0.2237,-0.2512,-0.2406,-0.2067,-0.1973,-0.1685,-0.1143,0.005,0.0104,0.0,0.1816,0.3655,0.4628,0.1859,-0.0754,-0.2977,-0.3993,-0.3564,-0.3024,-0.3851,-0.4335,-0.3796,0.0,0.0,0.0,0.004,-0.0407,-0.1041,-0.1041,-0.1041,-0.1096,-0.1262,-0.0278,0.0418,0.0155,-0.0354,-0.0692,-0.089,-0.0873,-0.0855,-0.0851,-0.0793,-0.0444,0.0246,0.054,0.095,0.1406,0.2473,0.3321,0.3851,0.5027,0.6018,0.6714,0.7741,0.8692,0.9504,1.062,1.172,1.287,1.3788,1.4767,1.5708,1.6256,1.6795,1.7282,1.7199,1.7516,1.8016,1.7282,1.7044,1.7138,1.7609,1.7692,1.7774,-0.0796,-0.0773,0.0,0.0,0.0,0.0,0.0,0.0,-0.0048,-0.0185,0.1772,0.3171,0.3171,0.1909,0.1218,0.1555,0.0777,0.0369,0.0712,0.0523,0.0505,0.0723,0.0351,0.0238,0.0449,0.098,0.1193,0.1075,0.0172,-0.0643,-0.1396,-0.2524,-0.2992,-0.2944,-0.3585,-0.3883,-0.3938,-0.4003,-0.3072,-0.1581,-0.1767,-0.1965,-0.2341,-0.3705,-0.303,-0.1263,-0.0856,-0.0324,0.0144,0.0145,0.0957,0.185,0.1293,0.4261,0.7907,0.7759,0.5211,0.1421,-0.3273,-0.4116,-0.3868,-0.4741,-0.4435,-0.3224,-0.0593,0.0,-0.0196,0.0006,0.0,-0.0147,-0.0147,0.0,0.0,-0.1164,-0.0278,0.1262,0.3426,0.1708,-0.0072,-0.0885,-0.0504,-0.0249,-0.0292,-0.042,0.0181,0.1896,0.1718,0.2193,0.3649,0.4401,0.5133,0.5842,0.6524,0.7486,0.8678,0.8835,0.9703,1.1314,1.2064,1.306,1.4358,1.4607,1.5454,1.6735,1.6989,1.731,1.7679,1.7881,1.8302,1.8703,1.7707,1.7529,1.7842,1.823,1.8453,1.8553,-0.0991,-0.0969,0.0,0.0,0.0,0.0,0.0,0.0,0.0,0.0,0.0878,0.1128,0.0119,0.0213,0.0387,0.0498,-0.0373,-0.056,0.0368,0.0261,0.012,0.0051,0.0123,0.0979,0.2746,0.1918,0.1545,0.1682,0.0622,-0.0216,-0.0858,-0.2115,-0.2386,-0.1877,-0.2677,-0.2156,-0.0732,-0.1682,-0.2414,-0.277,-0.0798,-0.0037,-0.0266,-0.1651,-0.1385,-0.0268,-0.0045,0.0595,0.1379,0.1756,0.1586,0.1569,0.3777,0.4041,0.3917,0.5887,0.5264,0.2827,-0.2286,-0.2347,-0.1466,-0.3592,-0.3606,-0.2556,-0.0483,0.0,0.0,0.0,0.0,0.0,0.0,0.0,0.0,0.0,-0.0117,0.1157,0.3914,0.2613,0.1305,0.1107,0.0569,0.0447,0.109,0.1323,0.19,0.292,0.3202,0.376,0.4785,0.5585,0.6354,0.716,0.7939,0.8849,1.001,1.041,1.1297,1.258,1.328,1.3996,1.4733,1.5398,1.617,1.7073,1.7352,1.7828,1.8355,1.8496,1.8902,1.9346,1.875,1.8574,1.8741,1.8893,1.8855,1.8831,-0.1216,0.0,0.0,0.0,0.0,0.0,0.0,-0.0719,-0.0582,-0.0212,-0.0419,-0.0977,-0.1976,-0.0868,-0.0108,-0.0274,-0.0599,-0.037,0.0634,0.0381,0.0359,0.0778,0.0373,0.122,0.3525,0.2792,0.2253,0.196,0.1091,0.036,-0.0277,-0.1497,-0.1827,-0.1421,-0.2422,-0.0769,0.2668,0.1273,-0.0255,-0.1517,0.0487,0.1498,0.1654,0.0626,0.049,0.0845,0.0978,0.1553,0.2381,0.3131,0.2521,0.2004,0.5308,0.4538,0.269,0.4244,0.4969,0.427,-0.0393,-0.064,-0.0269,-0.315,-0.2875,-0.1561,-0.0293,0.0,0.0,0.0,0.0,0.0,0.0,0.0,0.0,0.0,0.0,0.0865,0.3342,0.2432,0.1754,0.2387,0.1189,0.0808,0.2096,0.2705,0.3314,0.4006,0.4564,0.5136,0.5713,0.6332,0.7279,0.8538,0.9358,1.0281,1.1273,1.1769,1.259,1.3742,1.4321,1.4846,1.5287,1.6213,1.6993,1.7585,1.7988,1.8472,1.9043,1.9192,1.9507,1.9934,1.9793,1.9793,1.9849,1.9656,1.9477,1.9368,-0.1475,-0.1281,0.0,0.0,-0.1309,-0.15,-0.1549,-0.2105,-0.2046,-0.0749,-0.1484,-0.1785,-0.0853,0.02,0.0825,0.0754,0.1691,0.2317,0.2493,0.1491,0.1815,0.3964,0.1448,0.0383,0.1192,0.3319,0.3496,0.1611,0.1448,0.1023,0.0344,-0.0737,-0.1632,-0.2404,-0.3546,-0.0612,0.514,0.4445,0.4139,0.3985,0.2059,0.186,0.2627,0.2186,0.2004,0.1999,0.2448,0.2746,0.2968,0.3717,0.4036,0.4124,0.4405,0.6301,0.7882,0.5212,0.5883,0.6639,0.2805,0.0243,-0.1919,-0.442,-0.2551,-0.0078,-0.002,0.0,0.0,0.0,0.0,0.0,0.0,0.0,0.0,0.0,0.0,0.0,0.0,0.0955,0.0574,0.1953,0.0872,0.0661,0.2333,0.3033,0.3962,0.5342,0.5628,0.6044,0.6643,0.6822,0.7943,1.0265,1.0981,1.172,1.2522,1.2503,1.3223,1.4778,1.5241,1.5796,1.6466,1.7214,1.7908,1.8592,1.9058,1.9406,1.9675,1.996,2.0204,2.041,2.0646,2.0958,2.1183,2.0567,2.0403,2.052,0.0,0.0,0.0,0.0,-0.1443,-0.1641,-0.1837,-0.2061,-0.1649,-0.0076,-0.0457,-0.0614,0.0085,-0.0098,-0.0035,0.0605,0.0828,0.1584,0.3149,0.1333,0.1244,0.364,0.4305,0.4487,0.4145,0.2423,0.1686,0.1995,0.1329,0.0822,0.0454,-0.0224,-0.0849,-0.1442,-0.2269,-0.0335,0.3594,0.3744,0.4036,0.4239,0.3065,0.2526,0.2394,0.2447,0.2716,0.307,0.3249,0.3569,0.4098,0.4886,0.5379,0.5863,0.6493,0.764,0.8591,0.7609,0.8467,0.9578,0.907,0.8383,0.6322,-0.0119,0.1145,0.3274,0.0609,0.1758,0.2734,0.0469,0.0,0.0,0.0,0.0,0.0,0.0,0.0,0.0167,0.0,0.0302,0.0175,0.0652,0.029,0.0221,0.0788,0.1873,0.3558,0.6041,0.6681,0.7155,0.7723,0.8107,0.8669,0.9454,1.0624,1.1944,1.3385,1.4114,1.4993,1.6039,1.6634,1.7164,1.7626,1.8171,1.8736,1.9398,1.9515,1.9711,1.996,2.0204,2.0444,2.0679,2.0761,2.099,2.1277,2.1118,2.1274,2.1595,-0.1367,-0.1241,-0.1248,-0.1437,-0.154,-0.1694,-0.1958,-0.2188,-0.1734,-0.0071,-0.0351,-0.0406,0.0395,0.0033,0.0,0.0604,0.0968,0.1607,0.2686,0.1773,0.1838,0.3262,0.5401,0.6163,0.536,0.1832,0.0471,0.1412,0.0811,0.0452,0.0317,0.0014,-0.0291,-0.0554,0.0062,0.1449,0.3347,0.4183,0.4611,0.4724,0.3969,0.3398,0.3063,0.3507,0.3443,0.3187,0.3673,0.425,0.4896,0.5524,0.6121,0.6797,0.7935,0.8554,0.8935,0.9406,1.0269,1.1233,1.195,1.255,1.1687,0.6413,0.5877,0.5501,0.1017,0.1699,0.3866,0.5938,0.2971,0.0648,0.2769,0.1432,0.0,0.0,0.0,0.0,0.0,0.0,0.0,0.0,0.0,0.0967,0.3418,0.2261,0.3141,0.7496,0.8036,0.8387,0.8882,0.9477,1.0,1.0346,1.196,1.3215,1.3982,1.544,1.6275,1.638,1.7422,1.8352,1.9111,1.9037,1.939,2.0043,2.0124,2.0345,2.0714,2.0845,2.0991,2.1135,2.0893,2.1103,2.157,2.1554,2.1882,2.2298,-0.0958,-0.0834,-0.0997,-0.1513,-0.1604,-0.1694,-0.1958,-0.2404,-0.2159,-0.0589,-0.0992,-0.095,0.0294,0.0772,0.0957,0.0881,0.2129,0.2445,0.1348,0.2792,0.3533,0.3097,0.4639,0.5301,0.4785,0.1866,0.0232,0.0,0.0,0.0,0.0,0.0,0.0,0.0127,0.2993,0.4275,0.4349,0.5756,0.6083,0.5639,0.4739,0.4414,0.455,0.5222,0.4128,0.2484,0.3906,0.4853,0.5502,0.5726,0.6287,0.7115,0.8547,0.8999,0.9259,1.0399,1.1133,1.1551,1.1534,1.253,1.3705,1.4212,1.125,0.6923,0.1919,0.0689,0.3817,1.5114,0.8477,0.2417,0.8271,0.47,0.0692,0.0095,0.0,0.0,0.0,0.0,0.0,0.0,0.0421,0.3104,0.9205,0.4229,0.3182,0.9375,0.9619,0.9695,1.0108,1.0923,1.1892,1.2964,1.4809,1.5367,1.4433,1.6464,1.698,1.5925,1.7679,1.9332,2.0728,1.9793,1.9783,2.052,2.083,2.1291,2.1797,2.1797,2.1797,2.1721,2.1103,2.1339,2.2073,2.1899,2.2231,2.2712,-0.1304,-0.1355,-0.1453,-0.1641,-0.1719,-0.1803,-0.1979,-0.0947,0.0197,0.1162,0.1067,0.1278,0.2291,0.214,0.1943,0.1778,0.2486,0.2857,0.2544,0.2402,0.2908,0.428,0.3489,0.3892,0.571,0.5394,0.3486,0.0,0.0,0.0,0.0,0.0,0.0,0.0074,0.1724,0.2461,0.2722,0.6533,0.7288,0.5991,0.5733,0.5019,0.4284,0.5682,0.5217,0.4017,0.542,0.6071,0.6299,0.695,0.7389,0.779,0.8684,0.9093,0.9295,1.0012,1.0669,1.1225,1.1625,1.2618,1.3752,1.4468,1.382,1.2789,1.1937,1.0378,0.9523,1.0915,1.0307,1.0755,1.482,1.4327,1.0366,0.1452,0.0,0.0,0.0,0.0,0.0,0.0,0.6295,0.8524,0.3158,0.677,0.8818,0.7358,0.9562,1.1303,1.2123,1.2468,1.3633,1.5793,1.5811,1.5957,1.6238,1.7269,1.7557,1.7105,1.8444,1.95,2.02,2.0361,2.053,2.0747,2.1323,2.1661,2.1797,2.1797,2.1797,2.1781,2.1601,2.1781,2.213,2.2371,2.2588,2.2764,-0.1596,-0.149,-0.1651,-0.2512,-0.092,0.0225,-0.0537,-0.07,-0.0063,0.1776,0.1533,0.1592,0.2641,0.2919,0.3004,0.2912,0.3211,0.3175,0.2734,0.2946,0.3397,0.4033,0.3808,0.4446,0.6149,0.6465,0.4935,0.1534,0.0505,0.0,0.0,0.0,0.0,0.0027,0.0711,0.1582,0.2809,0.684,0.7814,0.6579,0.6282,0.5782,0.0,0.6666,0.6753,0.6287,0.7328,0.7449,0.7179,0.7647,0.8082,0.8615,0.9548,0.9917,1.0167,1.1032,1.1543,1.194,1.2472,1.3246,1.4071,1.4755,1.5085,1.5355,1.5691,1.4771,1.3632,1.2851,1.4269,1.6177,1.8012,1.5958,1.0895,0.152,0.0,0.0,0.0,0.0,0.0,0.0,0.5906,0.7596,0.1503,0.6342,0.883,0.6348,0.9784,1.1453,1.0308,1.2718,1.4768,1.6173,1.6011,1.6363,1.7337,1.7339,1.7913,1.8948,1.914,1.9609,2.0373,2.1229,2.1628,2.1628,2.2044,2.2186,2.2186,2.2186,2.2186,2.2186,2.2186,2.2243,2.2398,2.2632,2.2799,2.2917,-0.1833,-0.1434,-0.164,-0.3307,0.0076,0.2643,0.1467,-0.0316,-0.0612,0.1976,0.1578,0.1426,0.2427,0.3475,0.4079,0.4012,0.4056,0.3723,0.2777,0.411,0.4491,0.3468,0.4954,0.5953,0.6289,0.6252,0.5474,0.3964,0.1301,0.0,0.0,0.0,0.0,0.0,0.0,0.138,0.3878,0.6517,0.7613,0.7567,0.6924,0.6853,0.7255,0.8128,0.8557,0.8784,0.9256,0.8875,0.8151,0.8151,0.8724,0.9614,1.0669,1.1015,1.1275,1.251,1.2871,1.3017,1.3573,1.4025,1.4536,1.496,1.5424,1.5792,1.5836,1.5869,1.6219,1.7338,1.8387,1.9112,1.9014,1.3653,0.7528,0.2341,0.1261,0.1187,0.1461,0.1486,0.1124,0.0121,0.3695,0.0,0.2433,0.4625,0.6123,0.594,0.9354,1.0301,0.7702,1.132,1.4175,1.567,1.61,1.6731,1.7651,1.736,1.844,2.0794,1.9803,1.9929,2.1103,2.2215,2.2712,2.2712,2.2712,2.2712,2.2712,2.2712,2.2712,2.2712,2.2738,2.2764,2.2764,2.2764,2.2943,2.3159,-0.1915,-0.151,-0.1352,-0.1904,-0.0235,0.143,0.2142,0.3601,0.419,0.3001,0.3776,0.4268,0.383,0.4657,0.502,0.4499,0.4923,0.5134,0.4964,0.5327,0.5466,0.5241,0.5874,0.6246,0.6289,0.6634,0.6698,0.6374,0.2092,0.0,0.0,0.0,0.0,0.0,0.0,0.1795,0.48,0.4582,0.6357,0.9244,0.8807,0.9073,0.9787,1.0184,1.0351,1.0407,1.0517,1.012,0.9621,0.9621,1.0112,1.0712,1.0914,1.1082,1.1392,1.2482,1.2822,1.3016,1.392,1.4536,1.496,1.5062,1.5424,1.5836,1.5957,1.625,1.671,1.7229,1.7744,1.8404,1.9459,1.4884,1.0629,0.9577,0.7961,0.7449,0.9159,0.9403,0.707,0.0743,0.9493,1.2465,0.3382,0.4802,0.6072,0.5546,0.5403,0.7197,1.1432,0.5983,0.7378,1.756,1.7879,1.7419,1.643,1.8867,2.0329,2.0794,2.0579,2.115,2.2381,2.2588,2.2712,2.2712,2.2712,2.2712,2.2712,2.2712,2.2712,2.2712,2.2927,2.3045,2.3045,2.3045,2.3236,2.3522,-0.1058,-0.1126,-0.0826,0.0677,0.1088,0.1784,0.344,0.5619,0.6319,0.4144,0.4474,0.4682,0.4106,0.499,0.5468,0.5188,0.5443,0.5615,0.5615,0.5867,0.5996,0.5996,0.6422,0.6761,0.7007,0.7314,0.7321,0.6979,0.3513,0.1195,0.0,0.0,0.0,0.0044,0.0,0.3849,0.7705,0.6323,0.7374,0.9985,0.9897,1.0184,1.0632,1.0897,1.099,1.099,1.099,1.104,1.104,1.0669,1.0771,1.1141,1.1493,1.1792,1.2178,1.2967,1.3399,1.3721,1.449,1.4915,1.5198,1.5513,1.5901,1.6293,1.6367,1.6782,1.7229,1.772,1.8166,1.8912,2.034,1.5249,1.2244,1.6557,1.643,1.5741,1.5708,1.6607,1.5607,1.111,1.3734,1.3425,0.7106,0.5492,0.4765,0.453,0.511,0.6441,0.8683,1.0079,1.3266,1.8714,1.9053,1.884,1.8288,1.8135,1.8982,2.0794,2.1477,2.2113,2.2712,2.2712,2.2712,2.2712,2.2712,2.2712,2.2712,2.2868,2.2919,2.2919,2.3045,2.3095,2.3095,2.3095,2.3513,2.4019,0.0251,-0.0151,0.0214,0.3246,0.3142,0.3174,0.4823,0.6778,0.7339,0.5338,0.5055,0.4888,0.4426,0.5332,0.5953,0.5825,0.591,0.5996,0.5996,0.6374,0.6561,0.6498,0.7022,0.7446,0.7743,0.7949,0.7863,0.7474,0.4809,0.2304,0.0,0.0,0.0977,0.2804,0.4342,0.712,1.0546,0.8994,0.9259,1.0701,1.076,1.1063,1.1426,1.1545,1.1701,1.1832,1.1742,1.2098,1.2491,1.1953,1.1674,1.166,1.2264,1.2686,1.315,1.3789,1.4212,1.4674,1.5187,1.5334,1.5468,1.6032,1.6454,1.6765,1.6964,1.7353,1.7801,1.8266,1.8864,1.9552,2.0386,1.6269,1.4674,2.0569,2.2014,2.1858,2.0329,2.1275,2.1756,2.0704,1.7239,1.3669,1.047,0.7084,0.4561,0.3279,0.6248,0.7426,0.5895,1.5327,2.0447,1.9656,1.9908,2.0187,2.0424,1.8022,1.8312,2.1214,2.2226,2.2712,2.2712,2.2712,2.2712,2.2712,2.2712,2.285,2.3116,2.3307,2.3394,2.3394,2.3394,2.3394,2.3394,2.3394,2.3858,2.4429,0.1859,0.1808,0.2258,0.4938,0.5519,0.5681,0.5868,0.7521,0.8139,0.6475,0.6618,0.6516,0.5636,0.6331,0.6719,0.6289,0.6634,0.6894,0.6894,0.7308,0.7421,0.7133,0.7933,0.8246,0.7958,0.839,0.8748,0.8973,0.5299,0.2304,0.0,0.0,0.418,1.168,1.189,1.1939,1.1791,1.1075,1.1241,1.1991,1.1631,1.2243,1.3263,1.29,1.3276,1.3967,1.3552,1.3695,1.4107,1.4168,1.3532,1.2822,1.3286,1.3552,1.3909,1.4846,1.5209,1.5389,1.5969,1.61,1.6188,1.6637,1.6752,1.6921,1.7503,1.7948,1.8266,1.8461,1.9273,1.9487,1.8054,1.9401,2.0068,1.8029,1.9751,2.1369,2.1404,2.0781,2.0534,2.1042,2.0201,1.7152,1.096,1.0327,0.7869,0.1965,0.7861,1.0579,0.797,1.6072,2.0763,2.0748,2.0714,2.0764,2.0847,2.1075,2.1645,2.2535,2.2659,2.2712,2.2712,2.2712,2.2712,2.2712,2.2712,2.3335,2.4321,2.4375,2.4375,2.4375,2.4375,2.4375,2.4375,2.4375,2.4411,2.45,0.2381,0.3899,0.562,0.723,0.7975,0.8318,0.8167,0.8818,0.9031,0.8296,0.7855,0.7412,0.694,0.7217,0.7433,0.7516,0.7765,0.7897,0.7897,0.8144,0.8245,0.8095,0.8432,0.869,0.8776,0.9041,0.9359,0.9755,0.8301,0.8229,0.9473,0.9473,0.9626,0.995,1.0992,1.2092,1.314,1.2027,1.2152,1.3094,1.3171,1.3528,1.3978,1.38,1.3978,1.4305,1.4201,1.4283,1.4422,1.456,1.4283,1.392,1.4201,1.4468,1.4835,1.5254,1.5623,1.5913,1.6144,1.6392,1.6637,1.6879,1.7325,1.7774,1.8108,1.8616,1.9035,1.9109,1.9696,2.0186,2.008,1.8974,1.86,2.0235,1.8388,1.785,2.0967,2.0808,2.0336,2.0362,2.0236,1.8913,1.5809,1.7688,1.7216,1.2623,1.1781,1.226,1.4076,1.9111,2.1598,2.0861,1.4144,1.4259,2.2029,2.2347,2.2571,2.2756,2.2738,2.2712,2.2712,2.2712,2.3091,2.3777,2.3777,2.4058,2.45,2.45,2.45,2.45,2.45,2.45,2.45,2.45,2.45,2.45,0.3712,0.5487,0.7456,0.8704,0.9425,0.9821,0.9666,0.9814,0.9826,0.9524,0.8889,0.8278,0.7923,0.7931,0.8054,0.8316,0.848,0.8561,0.8561,0.8756,0.8827,0.8717,0.8979,0.9187,0.9385,0.9621,1.0018,1.0577,1.0735,1.1833,1.3749,1.5119,1.3712,0.998,1.1296,1.2692,1.4068,1.3132,1.3211,1.4016,1.4301,1.4479,1.4617,1.4479,1.4617,1.4858,1.4789,1.488,1.5017,1.5164,1.5152,1.505,1.4926,1.5242,1.5688,1.582,1.6225,1.6693,1.6693,1.6892,1.7173,1.7366,1.7961,1.8525,1.8731,1.9236,1.9675,1.9732,2.0085,2.0697,2.1631,1.9343,1.8426,2.1842,1.9042,1.7587,2.0975,2.0795,2.0008,1.9119,1.8781,1.8843,1.938,2.1927,2.2439,1.9787,1.6261,1.5654,1.8944,2.002,2.0772,2.1352,1.3503,1.3652,2.2738,2.2919,2.2902,2.2782,2.291,2.291,2.2842,2.3116,2.3696,2.45,2.45,2.45,2.45,2.45,2.45,2.45,2.45,2.45,2.45,2.45,2.45,2.45,0.6357,0.6415,0.6859,0.8857,0.9514,0.9814,0.9814,1.0364,1.0508,0.9785,0.9694,0.9335,0.8395,0.8398,0.848,0.848,0.8635,0.8675,0.8675,0.9079,0.9142,0.8827,0.9619,0.9925,0.9612,1.0059,1.0754,1.1661,1.1969,1.0938,0.89,1.3592,1.5421,1.4744,1.4937,1.4858,1.4492,1.463,1.4675,1.4698,1.4698,1.4983,1.5344,1.488,1.5311,1.61,1.5579,1.5712,1.6188,1.6306,1.6392,1.6262,1.5611,1.5808,1.6391,1.6854,1.7366,1.7787,1.7787,1.7787,1.7908,1.8383,1.8679,1.9006,1.9406,1.9762,2.0061,2.0342,2.041,2.0697,2.1631,2.1535,2.142,2.1686,2.2228,2.2418,2.1868,2.0697,1.9219,1.7345,1.5972,1.6616,2.0314,2.1021,2.0786,1.9676,2.1009,2.1686,2.1276,1.7524,1.7619,2.253,2.2539,2.2539,2.2712,2.297,2.2952,2.2712,2.3312,2.3422,2.3126,2.4057,2.4482,2.45,2.45,2.45,2.45,2.45,2.45,2.45,2.45,2.45,2.45,2.45,2.45,2.45,0.9031,0.9514,0.9866,0.9874,1.0502,1.104,1.104,1.1191,1.1212,1.0804,1.074,1.0397,0.9537,0.9208,0.9159,0.9487,0.9607,0.9637,0.9637,0.9843,0.9934,0.9849,1.0089,1.0312,1.0498,1.0994,1.1521,1.209,1.2953,1.3529,1.3763,1.4858,1.5514,1.5756,1.5452,1.5444,1.568,1.568,1.5724,1.5724,1.5724,1.5812,1.5913,1.578,1.5913,1.6188,1.6132,1.6163,1.6405,1.682,1.6947,1.6934,1.7034,1.6993,1.7005,1.7407,1.7666,1.7787,1.7787,1.8173,1.8588,1.8755,1.8834,1.9071,1.9692,2.008,2.0357,2.0628,2.0679,2.0909,2.1721,2.1781,2.1874,2.2436,2.277,2.2541,2.1278,2.0416,1.977,1.947,1.8961,1.9559,2.1885,2.2224,2.2012,2.1291,2.1718,2.243,2.3436,2.088,2.0486,2.2908,2.2952,2.2952,2.2952,2.307,2.307,2.2995,2.3157,2.3535,2.4058,2.4375,2.45,2.45,2.45,2.45,2.45,2.45,2.45,2.45,2.45,2.45,2.45,2.45,2.4549,2.4647,1.0771,1.088,1.0931,1.0517,1.0872,1.1323,1.1607,1.1637,1.1556,1.1357,1.119,1.0878,1.04,1.0069,0.9991,1.0235,1.0351,1.0457,1.0611,1.0687,1.0736,1.0736,1.0928,1.1192,1.1419,1.1961,1.2516,1.315,1.427,1.5274,1.6156,1.5763,1.5788,1.6188,1.5886,1.5954,1.6275,1.6318,1.6405,1.6577,1.6577,1.665,1.682,1.682,1.682,1.6808,1.6892,1.6934,1.6976,1.731,1.7434,1.7516,1.7908,1.7868,1.776,1.7988,1.8187,1.8305,1.8305,1.8446,1.8708,1.9037,1.9045,1.9174,2.01,2.0494,2.0712,2.0893,2.1007,2.1276,2.1882,2.1669,2.1758,2.2755,2.3045,2.2505,2.0732,1.9847,1.925,1.8878,1.8848,1.9292,2.0396,2.1119,2.1921,2.2866,2.0066,2.0136,2.4276,2.2628,2.205,2.3067,2.3095,2.3095,2.3095,2.3095,2.3095,2.3102,2.3463,2.3919,2.45,2.45,2.45,2.45,2.4549,2.4549,2.4551,2.4532,2.4532,2.4551,2.4551,2.4551,2.4551,2.4532,2.458,2.4676,1.1792,1.0922,1.0509,1.0822,1.0805,1.1001,1.1688,1.1759,1.1669,1.162,1.1246,1.0985,1.093,1.0954,1.0926,1.0881,1.0888,1.1105,1.1479,1.1516,1.1527,1.156,1.2026,1.234,1.2406,1.2929,1.3701,1.4716,1.5714,1.62,1.62,1.6244,1.6231,1.6275,1.6405,1.6479,1.6479,1.6552,1.685,1.724,1.724,1.7475,1.7787,1.7787,1.7787,1.7787,1.7787,1.7787,1.7787,1.7828,1.7868,1.7948,1.8422,1.8592,1.8592,1.8539,1.8822,1.9139,1.9139,1.8768,1.8534,1.9345,1.9351,1.9421,2.0508,2.0926,2.1119,2.1119,2.1401,2.1731,2.2068,2.1475,2.131,2.2579,2.2982,2.2341,2.0201,1.9102,1.802,1.6586,1.6671,1.6966,1.7212,1.8782,2.1076,2.4256,1.7386,1.6402,2.4091,2.3015,2.2502,2.317,2.3126,2.3126,2.3199,2.3199,2.3199,2.3199,2.4077,2.45,2.45,2.45,2.45,2.4534,2.4629,2.466,2.4615,2.4613,2.4596,2.4599,2.4615,2.4615,2.4615,2.4613,2.4594,2.4629,1.2569,1.2412,1.2134,1.1799,1.2063,1.2263,1.2004,1.2293,1.2343,1.1871,1.1807,1.168,1.1373,1.1367,1.1621,1.2339,1.1762,1.1404,1.1479,1.1516,1.168,1.208,1.2279,1.2729,1.3515,1.4086,1.4879,1.5818,1.617,1.6362,1.6362,1.6392,1.6607,1.6947,1.6989,1.7186,1.7462,1.7503,1.7557,1.7679,1.7679,1.772,1.7787,1.7787,1.7787,1.7787,1.7787,1.7787,1.7828,1.8226,1.8447,1.8703,1.9132,1.9457,1.9545,1.9087,1.9161,1.942,1.942,1.9626,1.9936,2.0124,2.0286,2.0349,2.021,2.078,2.1355,2.1462,2.1718,2.201,2.2341,2.2153,2.1669,2.083,2.206,2.2119,1.9257,1.8876,1.9021,1.9417,2.0057,2.1037,2.2511,2.3042,2.3638,2.4444,2.2696,2.2436,2.4407,2.4128,2.3986,2.4154,2.3468,2.3445,2.4154,2.4173,2.4173,2.4173,2.4393,2.45,2.45,2.45,2.4549,2.4645,2.4629,2.4613,2.4613,2.4596,2.4615,2.4615,2.4719,2.4689,2.4613,2.4594,2.4626,2.4692,1.2968,1.3162,1.3243,1.2909,1.2892,1.2882,1.2768,1.2328,1.2036,1.198,1.2047,1.2028,1.1833,1.1884,1.2272,1.3219,1.2571,1.2363,1.2819,1.2831,1.2996,1.3325,1.3626,1.4012,1.4584,1.5332,1.6069,1.6837,1.6964,1.706,1.7047,1.7102,1.7214,1.7475,1.7475,1.7598,1.7787,1.7787,1.7908,1.8108,1.8108,1.8226,1.8383,1.8383,1.8383,1.8422,1.8525,1.864,1.8765,1.9155,1.9434,1.9687,1.9879,2.0085,2.017,1.9839,1.9732,1.9726,1.9726,1.9802,1.9929,2.0111,2.059,2.0991,2.0791,2.1185,2.1675,2.1849,2.2124,2.2419,2.259,2.2074,2.1569,2.1441,2.1188,2.0416,1.8731,1.8659,1.9237,2.0499,2.1479,2.237,2.3137,2.4001,2.4332,2.3944,2.4276,2.45,2.45,2.45,2.4446,2.4321,2.3939,2.3919,2.4266,2.4411,2.45,2.45,2.45,2.45,2.45,2.4515,2.4582,2.4645,2.4645,2.4645,2.466,2.4645,2.4692,2.4749,2.4818,2.4847,2.4828,2.4828,2.4818,2.4794,1.3478,1.3668,1.392,1.3893,1.3531,1.3227,1.327,1.2283,1.173,1.2141,1.2218,1.2246,1.2318,1.2508,1.2962,1.3852,1.3533,1.3607,1.4371,1.4362,1.4438,1.47,1.5138,1.5504,1.5624,1.651,1.716,1.7626,1.7733,1.7787,1.7787,1.7787,1.7828,1.7908,1.7908,1.7948,1.7988,1.8028,1.8266,1.8655,1.8655,1.8898,1.925,1.9273,1.9273,1.931,1.9551,1.9752,1.9929,2.0174,2.0379,2.0548,2.0548,2.0581,2.0614,2.0614,2.041,2.02,2.0166,1.9857,1.9687,2.0018,2.0731,2.1386,2.1598,2.1807,2.2039,2.2265,2.2598,2.2842,2.2842,2.1808,2.1264,2.2113,2.0262,1.8505,1.7911,1.8265,1.9162,2.0732,2.1879,2.2445,2.2148,2.356,2.4202,2.3444,2.4074,2.45,2.4517,2.4517,2.4393,2.4192,2.4393,2.4357,2.4096,2.4357,2.4517,2.4517,2.45,2.45,2.4517,2.4566,2.4615,2.4631,2.4676,2.4707,2.4707,2.4704,2.4808,2.4902,2.4936,2.5031,2.5096,2.5096,2.5012,2.4915,1.5379,1.4766,1.4128,1.3782,1.4305,1.4095,1.2124,1.2837,1.341,1.2866,1.2769,1.2791,1.2791,1.3252,1.3827,1.4406,1.4792,1.489,1.4602,1.416,1.4307,1.5229,1.5348,1.5801,1.6725,1.7327,1.7707,1.7787,1.7787,1.7787,1.7787,1.7787,1.7988,1.8383,1.8383,1.8592,1.8898,1.9026,1.9161,1.9332,1.9457,1.9654,1.9884,1.998,2.0035,2.007,2.0277,2.0379,2.0413,2.0447,2.0614,2.0828,2.0828,2.0991,2.1183,2.1183,2.1151,2.1055,2.0828,2.0862,2.1006,2.1084,2.1319,2.1598,2.1794,2.2136,2.2466,2.2651,2.2902,2.3052,2.3052,2.2358,2.1027,1.8662,1.9114,1.8581,1.5182,1.7147,1.9542,2.1189,2.2204,2.3112,2.3982,2.4334,2.4444,2.4314,2.4425,2.4498,2.4495,2.4495,2.4513,2.4513,2.4498,2.4482,2.4411,2.453,2.4582,2.4569,2.4535,2.4535,2.4569,2.4601,2.4629,2.4692,2.4692,2.4707,2.4707,2.4818,2.4888,2.4929,2.5149,2.5171,2.5096,2.5096,2.5056,2.4961,1.6132,1.568,1.5241,1.5139,1.5199,1.4886,1.3764,1.3869,1.4026,1.384,1.4063,1.4138,1.389,1.4399,1.4929,1.5516,1.5982,1.627,1.6309,1.5825,1.5767,1.6328,1.6572,1.7062,1.7801,1.8054,1.8266,1.85,1.85,1.85,1.85,1.85,1.8769,1.9207,1.9207,1.9317,1.9536,1.9823,1.9859,1.9737,2.0035,2.0189,2.0273,2.0345,2.0379,2.0413,2.0614,2.078,2.0862,2.1023,2.1214,2.137,2.137,2.1479,2.1587,2.1587,2.1433,2.1309,2.1277,2.1388,2.1495,2.1691,2.1807,2.1953,2.2326,2.2527,2.2712,2.2927,2.3045,2.3095,2.3095,2.2136,2.0969,1.9841,1.8021,1.6989,1.7577,1.8271,1.972,2.2419,2.3308,2.3942,2.4497,2.4552,2.4551,2.4549,2.4549,2.4549,2.4547,2.4564,2.4564,2.4599,2.4566,2.4549,2.4547,2.458,2.4599,2.4601,2.4584,2.4584,2.4601,2.4615,2.4647,2.4695,2.4692,2.4707,2.4745,2.5269,2.5513,2.5565,2.5679,2.6063,2.6439,2.5463,2.5378,2.5672,1.6392,1.6318,1.6156,1.6231,1.6014,1.5811,1.5881,1.5232,1.4891,1.5159,1.544,1.544,1.5095,1.5527,1.603,1.6493,1.6926,1.7353,1.776,1.753,1.7338,1.7365,1.776,1.8187,1.8669,1.8769,1.8921,1.9176,1.9236,1.9236,1.9176,1.9176,1.9347,1.9696,1.9788,1.9844,1.9934,2.033,2.0364,2.0143,2.0499,2.0648,2.0681,2.0763,2.0747,2.078,2.1023,2.1166,2.1306,2.1556,2.1708,2.1797,2.1797,2.1797,2.1797,2.1797,2.1617,2.1433,2.1603,2.1694,2.1797,2.2056,2.2181,2.2364,2.2721,2.2842,2.2902,2.307,2.3095,2.3095,2.3095,2.1996,2.104,2.0925,1.7932,1.6657,1.9631,1.9606,2.0218,2.2797,2.3896,2.4498,2.462,2.4603,2.4584,2.4599,2.4599,2.4615,2.4615,2.4615,2.4631,2.4613,2.4631,2.4615,2.4613,2.4613,2.4631,2.4615,2.4615,2.4631,2.4613,2.4613,2.4647,2.4698,2.4917,2.5008,2.5064,2.5957,2.6254,2.6143,2.6184,2.6727,2.7311,2.5729,2.5562,2.606,1.6392,1.6318,1.62,1.6113,1.6625,1.712,1.7328,1.7022,1.6845,1.7006,1.6491,1.6127,1.61,1.659,1.6905,1.6946,1.7448,1.7747,1.7787,1.8187,1.8187,1.7747,1.8187,1.8707,1.9228,1.9551,1.9588,1.9376,1.9681,1.9681,1.9376,1.9376,1.9413,1.945,1.9737,1.9899,1.9934,2.0413,2.0681,2.0812,2.0942,2.1087,2.1246,2.145,2.1511,2.1542,2.1678,2.1751,2.1751,2.1797,2.1797,2.1797,2.1797,2.1797,2.1797,2.1797,2.1781,2.1768,2.1781,2.1911,2.2068,2.2096,2.2419,2.2764,2.279,2.2927,2.3095,2.3095,2.3095,2.3095,2.3095,2.2452,2.1225,1.9163,1.9767,1.9856,1.8102,1.9985,2.1401,2.1066,2.2972,2.4408,2.4676,2.4647,2.4599,2.4599,2.4599,2.4615,2.4701,2.4682,2.4698,2.4692,2.4698,2.4666,2.4615,2.466,2.4695,2.4682,2.4682,2.4698,2.4692,2.4698,2.4698,2.4729,2.5552,2.5906,2.5979,2.6896,2.6911,2.6301,2.642,2.6532,2.6484,2.5621,2.5322,2.537,1.6479,1.6436,1.6479,1.6748,1.6989,1.731,1.7625,1.7598,1.7514,1.7589,1.7374,1.7202,1.7202,1.7625,1.7932,1.7932,1.8335,1.863,1.8707,1.8898,1.8898,1.8745,1.8898,1.9101,1.9376,1.9681,1.9808,1.9717,2.0089,2.0193,2.0085,2.0085,2.0208,2.0449,2.0601,2.0682,2.078,2.1166,2.1293,2.1183,2.1401,2.1524,2.1617,2.1678,2.1708,2.1738,2.1797,2.1797,2.1797,2.1797,2.1797,2.1797,2.1797,2.1797,2.1811,2.194,2.1998,2.2027,2.2203,2.2186,2.2181,2.2446,2.2668,2.2842,2.297,2.3119,2.3217,2.3217,2.3289,2.3336,2.3336,2.2721,2.2074,2.1697,2.1358,2.1161,2.1261,2.167,2.2111,2.2442,2.3555,2.4409,2.4676,2.4676,2.466,2.466,2.466,2.466,2.4695,2.4695,2.4711,2.4707,2.4711,2.4695,2.466,2.4692,2.4692,2.4695,2.4695,2.4711,2.4707,2.4711,2.4711,2.4726,2.5045,2.5196,2.5268,2.6212,2.6432,2.6184,2.6326,2.6757,2.714,2.5695,2.5572,2.6034,1.6765,1.685,1.6976,1.724,1.7557,1.7868,1.8187,1.8226,1.8226,1.8226,1.8226,1.8226,1.8226,1.8655,1.8907,1.8907,1.9281,1.9588,1.9675,1.9675,1.9566,1.9339,1.942,1.953,1.9632,2.0054,2.0246,2.0193,2.0548,2.0697,2.0597,2.0597,2.0747,2.0991,2.1134,2.1214,2.1309,2.1678,2.1678,2.1464,2.1708,2.1797,2.1797,2.1797,2.1797,2.1797,2.1797,2.184,2.1882,2.1882,2.1957,2.2032,2.2056,2.2039,2.2068,2.2198,2.2237,2.232,2.2588,2.2544,2.251,2.2747,2.2893,2.2977,2.3144,2.3265,2.336,2.336,2.3448,2.3494,2.3494,2.3053,2.2856,2.3405,2.265,2.2374,2.3472,2.3112,2.2973,2.3613,2.4096,2.4462,2.4676,2.4707,2.4707,2.4707,2.4707,2.4707,2.4707,2.4707,2.4707,2.4707,2.4707,2.4707,2.4707,2.4707,2.4707,2.4707,2.4707,2.4707,2.4707,2.4707,2.4707,2.4726,2.4989,2.5102,2.5192,2.6076,2.6336,2.6162,2.6295,2.6761,2.7217,2.5774,2.5832,2.6476,1.7269,1.7639,1.772,1.7434,1.8344,1.9101,1.9101,1.9101,1.9101,1.9101,1.9101,1.9101,1.9101,1.9515,1.9823,1.9823,2.0243,2.0514,2.0514,2.0514,2.0174,1.945,1.9717,1.9984,2.01,2.0764,2.0991,2.0794,2.1151,2.1119,2.0794,2.0794,2.0794,2.0827,2.1151,2.1309,2.1325,2.1678,2.1797,2.1797,2.1797,2.1797,2.1797,2.1797,2.1797,2.1797,2.1797,2.194,2.2096,2.2096,2.2271,2.2525,2.2599,2.2591,2.2582,2.2508,2.2554,2.266,2.2935,2.3102,2.3133,2.2876,2.307,2.3289,2.3289,2.3424,2.3494,2.3494,2.3517,2.3517,2.3517,2.3517,2.3517,2.3517,2.3611,2.3747,2.3876,2.4016,2.4095,2.4097,2.4338,2.4545,2.4692,2.4707,2.4707,2.4707,2.4707,2.4707,2.4707,2.4707,2.4707,2.4707,2.4707,2.4707,2.4707,2.4707,2.4707,2.4707,2.4707,2.4707,2.4707,2.4707,2.4707,2.4745,2.5625,2.5981,2.6057,2.6848,2.6824,2.63,2.6371,2.6435,2.6416,2.5832,2.6025,2.6502,1.7948,1.8108,1.8147,1.8187,1.8461,1.886,1.931,1.9384,1.9479,1.9823,1.9859,1.9929,2.007,2.0208,2.0311,2.0311,2.0413,2.0514,2.0548,2.0663,2.0613,2.0376,2.0395,2.0447,2.0595,2.1039,2.1198,2.1151,2.1495,2.1601,2.1509,2.1509,2.1509,2.1509,2.1617,2.1648,2.1678,2.1768,2.1797,2.1797,2.1797,2.1797,2.1797,2.1797,2.1899,2.2027,2.2027,2.2192,2.2449,2.2449,2.2556,2.273,2.2721,2.2746,2.2772,2.2943,2.2993,2.3067,2.3295,2.3383,2.3407,2.3313,2.336,2.3448,2.3448,2.3544,2.3634,2.3634,2.3682,2.375,2.3894,2.3933,2.3935,2.4056,2.4095,2.4134,2.4172,2.421,2.4266,2.4301,2.4425,2.4545,2.4692,2.4707,2.4707,2.4707,2.4707,2.497,2.5587,2.5027,2.4707,2.4707,2.4707,2.4707,2.4707,2.4707,2.4707,2.4707,2.4707,2.4707,2.4707,2.4753,2.4798,2.4846,2.512,2.5229,2.5244,2.5587,2.5609,2.5473,2.5639,2.5716,2.5721,2.5621,2.5725,2.5952,1.8344,1.8383,1.8539,1.8945,1.8803,1.8826,1.9361,1.9466,1.9569,1.9842,2.0141,2.0379,2.0481,2.038,2.0304,2.0304,2.048,2.0734,2.1055,2.115,2.1198,2.1198,2.1119,2.1055,2.099,2.134,2.1526,2.154,2.1721,2.1811,2.184,2.1811,2.1797,2.1797,2.184,2.184,2.184,2.1869,2.194,2.2056,2.2056,2.2096,2.2192,2.2153,2.222,2.2368,2.233,2.2529,2.2857,2.2857,2.2982,2.3153,2.308,2.3105,2.3194,2.3277,2.3365,2.3417,2.3544,2.3611,2.3638,2.3721,2.3656,2.3567,2.3567,2.3721,2.3961,2.4269,2.4411,2.4514,2.4631,2.4945,2.5075,2.482,2.4764,2.4783,2.4838,2.4856,2.4892,2.5013,2.5346,2.5602,2.5668,2.5684,2.5684,2.5684,2.5684,2.5928,2.6451,2.5984,2.5533,2.5214,2.5214,2.5045,2.4707,2.4738,2.4738,2.4707,2.4753,2.4768,2.4768,2.4856,2.4912,2.4945,2.4921,2.4929,2.4949,2.5037,2.5107,2.5192,2.533,2.5418,2.5449,2.557,2.5828,2.6184,1.8616,1.8693,1.902,1.9752,1.9299,1.901,1.9449,1.9482,1.9467,1.9593,2.0189,2.0614,2.0599,2.0272,2.0086,2.015,2.0553,2.1097,2.1748,2.1797,2.1781,2.1811,2.1811,2.1678,2.1371,2.1678,2.184,2.1911,2.184,2.184,2.1911,2.1869,2.184,2.1869,2.194,2.1969,2.1998,2.2039,2.222,2.2449,2.2449,2.2565,2.2797,2.2669,2.2721,2.2822,2.2695,2.2908,2.3253,2.3236,2.3463,2.37,2.3567,2.3611,2.3696,2.3656,2.3741,2.3851,2.392,2.3934,2.3987,2.4145,2.4024,2.3837,2.3783,2.3953,2.4351,2.5159,2.5425,2.5541,2.5615,2.6282,2.6559,2.5764,2.5634,2.569,2.5817,2.5835,2.5906,2.6097,2.6754,2.7204,2.7204,2.7204,2.7261,2.7411,2.7279,2.7261,2.7428,2.7296,2.6883,2.6148,2.6129,2.5753,2.4948,2.5005,2.4968,2.4835,2.4959,2.5055,2.5144,2.5202,2.5235,2.5235,2.512,2.5108,2.5182,2.5156,2.5198,2.5332,2.5481,2.5503,2.5522,2.5661,2.6223,2.6903,1.96,1.9864,2.0158,2.0311,1.9739,1.9558,2.0447,2.0083,2.0035,2.1001,2.1243,2.1402,2.1493,2.0927,2.0788,2.1365,2.1503,2.1615,2.1781,2.1797,2.1811,2.1869,2.1899,2.1869,2.1853,2.1869,2.1911,2.1969,2.1969,2.1969,2.1998,2.2164,2.2275,2.2275,2.2485,2.2591,2.2617,2.2617,2.2669,2.2721,2.2721,2.2746,2.2797,2.2772,2.2908,2.3116,2.3074,2.3283,2.3594,2.3646,2.371,2.3753,2.3732,2.3753,2.3898,2.4508,2.4798,2.5051,2.5534,2.5403,2.513,2.5065,2.5087,2.4945,2.4301,2.421,2.4469,2.528,2.5485,2.5727,2.6526,2.6823,2.6935,2.6838,2.6818,2.6836,2.6872,2.6853,2.6889,2.6923,2.7092,2.7204,2.7204,2.7204,2.773,2.9063,2.7937,2.7802,2.9151,2.7983,2.7258,2.7169,2.7184,2.7074,2.6885,2.69,2.6529,2.5808,2.5882,2.6289,2.7012,2.7071,2.7136,2.7146,2.6572,2.6399,2.6542,2.6342,2.5909,2.544,2.6196,2.6095,2.558,2.634,2.6747,2.698,2.0193,2.0364,2.0614,2.0764,2.0226,2.0017,2.071,2.0481,2.0456,2.1088,2.148,2.1708,2.1797,2.082,2.034,2.0721,2.1069,2.1446,2.1807,2.1969,2.2068,2.2153,2.2275,2.2368,2.2422,2.2395,2.2358,2.2281,2.2358,2.2395,2.2422,2.2538,2.2591,2.2591,2.2772,2.2848,2.2848,2.2933,2.3007,2.3129,2.3129,2.3183,2.3259,2.3248,2.3567,2.4009,2.3606,2.3827,2.4382,2.4787,2.4936,2.4936,2.4936,2.4683,2.4469,2.4987,2.4947,2.488,2.5667,2.568,2.5596,2.6002,2.6171,2.5968,2.5079,2.5245,2.582,2.6618,2.6842,2.7028,2.7586,2.8016,2.8165,2.7825,2.7786,2.7786,2.7786,2.7786,2.7786,2.7786,2.8481,2.9119,2.9495,2.9532,2.9927,3.0866,3.0132,3.0035,3.0992,2.9855,2.902,2.8707,2.8127,2.7729,2.7494,2.7789,2.7751,2.738,2.7044,2.7132,2.765,2.7711,2.7772,2.7798,2.7142,2.6921,2.7074,2.7526,2.7481,2.714,2.7341,2.7135,2.6805,2.7298,2.7738,2.8204,2.0821,2.0793,2.0878,2.1165,2.0708,2.042,2.0825,2.0799,2.0766,2.0853,2.1458,2.184,2.184,2.0816,2.0087,1.9953,2.0632,2.1329,2.2005,2.2275,2.2422,2.2485,2.2695,2.2848,2.2923,2.2989,2.2908,2.2703,2.2807,2.2873,2.2923,2.2923,2.2923,2.2923,2.3021,2.3045,2.3069,2.317,2.3353,2.3553,2.3553,2.3664,2.3813,2.3891,2.4382,2.4914,2.4342,2.4599,2.5316,2.5986,2.6204,2.6204,2.625,2.5778,2.5314,2.5667,2.5307,2.4982,2.5891,2.606,2.6191,2.6991,2.7214,2.7028,2.6191,2.6544,2.7251,2.8073,2.8428,2.8651,2.8801,2.9532,2.987,2.9139,2.9026,2.9026,2.9026,2.9026,2.9026,2.9026,3.0246,3.1372,3.2048,3.2125,3.224,3.2487,3.2392,3.2409,3.2631,3.1872,3.1149,3.0481,2.9352,2.8632,2.8392,2.8741,2.9108,2.9494,2.8826,2.8383,2.8164,2.8233,2.8289,2.8356,2.7856,2.7661,2.7779,2.8581,2.9055,2.924,2.8573,2.8236,2.812,2.8275,2.8864,2.9758,2.2134,2.1856,2.1661,2.1691,2.111,2.0874,2.1549,2.1102,2.092,2.1549,2.1874,2.2068,2.2068,2.2143,2.1988,2.1458,2.2081,2.2565,2.2652,2.2721,2.2772,2.2822,2.2873,2.294,2.3067,2.3307,2.3283,2.3017,2.3042,2.3049,2.3091,2.3307,2.3417,2.3399,2.3602,2.3671,2.3671,2.371,2.3732,2.3753,2.3753,2.3774,2.3868,2.4552,2.4918,2.5081,2.5656,2.5927,2.6059,2.6168,2.6204,2.6227,2.6388,2.638,2.6457,2.738,2.7635,2.779,2.8445,2.8311,2.8016,2.8016,2.811,2.8183,2.8052,2.7583,2.7395,2.822,2.8989,2.9739,3.0415,3.1241,3.1748,3.1616,3.1598,3.1598,3.1598,3.1598,3.1598,3.1598,3.1804,3.1973,3.2086,3.2203,3.2581,3.3279,3.275,3.2745,3.3572,3.2849,3.2387,3.2336,3.144,3.1287,3.1989,3.1378,3.1508,3.2346,3.225,3.1437,3.0052,3.0104,3.0199,3.0326,3.0222,3.0203,3.0152,2.9324,2.9576,3.0379,2.9544,2.8767,2.8197,2.8961,2.9777,3.0651,2.2159,2.1906,2.184,2.194,2.1702,2.1642,2.2124,2.1888,2.1843,2.2197,2.2313,2.2422,2.2485,2.2617,2.2451,2.1777,2.2362,2.2822,2.2848,2.2996,2.3135,2.3242,2.3323,2.3432,2.3473,2.3602,2.3602,2.3473,2.3473,2.3473,2.3495,2.3602,2.3685,2.3667,2.3753,2.3795,2.3795,2.3795,2.3795,2.3795,2.3795,2.3795,2.3886,2.4683,2.528,2.5864,2.7209,2.7419,2.7109,2.7565,2.7711,2.7734,2.7826,2.7537,2.7291,2.7929,2.7846,2.7699,2.8482,2.8559,2.8483,2.8933,2.9119,2.9304,2.9793,2.9658,2.9374,2.9175,2.9795,3.049,3.0827,3.156,3.2105,3.2105,3.2164,3.2203,3.2203,3.2241,3.2449,3.294,3.2996,3.3166,3.3619,3.3715,3.3923,3.4358,3.409,3.4105,3.4552,3.3824,3.3401,3.3433,3.2879,3.2611,3.2691,3.2649,3.2723,3.2891,3.2954,3.2579,3.1911,3.1942,3.1851,3.1603,3.0982,3.069,3.0651,3.0173,3.0243,3.0651,3.0282,3.0185,3.0275,3.0166,3.0982,3.2135]}]]